<?xml version="1.0" encoding="UTF-8" standalone="no" ?>
<gpx xmlns="http://www.topografix.com/GPX/1/1" xmlns:xsi="http://www.w3.org/2001/XMLSchema-instance" xsi:schemaLocation="http://www.topografix.com/GPX/1/1 http://www.topografix.com/GPX/1/1/gpx.xsd" version="1.1" creator="VisuGPX - https://www.visugpx.com">
  <metadata>
    <name>Teïlo et son père !</name>
    <desc><![CDATA[La petite sortie du samedi après-midi !]]></desc>
  </metadata>
  <trk>
    <name><![CDATA[Teïlo et son père !_1]]></name>
    <trkseg>
      <trkpt lat="45.11393" lon="5.23819">
        <ele>265.7</ele>
        <time>2010-10-23T13:44:03Z</time>
      </trkpt>
      <trkpt lat="45.11392" lon="5.23819">
        <ele>265.6</ele>
        <time>2010-10-23T13:45:33Z</time>
      </trkpt>
      <trkpt lat="45.11392" lon="5.23821">
        <ele>265</ele>
        <time>2010-10-23T13:45:34Z</time>
      </trkpt>
      <trkpt lat="45.11393" lon="5.23821">
        <ele>265.1</ele>
        <time>2010-10-23T13:45:40Z</time>
      </trkpt>
      <trkpt lat="45.11392" lon="5.23822">
        <ele>265.2</ele>
        <time>2010-10-23T13:45:41Z</time>
      </trkpt>
      <trkpt lat="45.11392" lon="5.23822">
        <ele>265.6</ele>
        <time>2010-10-23T13:46:05Z</time>
      </trkpt>
      <trkpt lat="45.11391" lon="5.23824">
        <ele>265.8</ele>
        <time>2010-10-23T13:46:06Z</time>
      </trkpt>
      <trkpt lat="45.1139" lon="5.23826">
        <ele>265.3</ele>
        <time>2010-10-23T13:46:07Z</time>
      </trkpt>
      <trkpt lat="45.11388" lon="5.23827">
        <ele>265</ele>
        <time>2010-10-23T13:46:08Z</time>
      </trkpt>
      <trkpt lat="45.11387" lon="5.2383">
        <ele>265.1</ele>
        <time>2010-10-23T13:46:08Z</time>
      </trkpt>
      <trkpt lat="45.11386" lon="5.23832">
        <ele>265.3</ele>
        <time>2010-10-23T13:46:10Z</time>
      </trkpt>
      <trkpt lat="45.11385" lon="5.23835">
        <ele>265.1</ele>
        <time>2010-10-23T13:46:11Z</time>
      </trkpt>
      <trkpt lat="45.11386" lon="5.23837">
        <ele>264.8</ele>
        <time>2010-10-23T13:46:12Z</time>
      </trkpt>
      <trkpt lat="45.11386" lon="5.23839">
        <ele>265</ele>
        <time>2010-10-23T13:46:13Z</time>
      </trkpt>
      <trkpt lat="45.11387" lon="5.23841">
        <ele>264.9</ele>
        <time>2010-10-23T13:46:15Z</time>
      </trkpt>
      <trkpt lat="45.11387" lon="5.23844">
        <ele>265.8</ele>
        <time>2010-10-23T13:46:15Z</time>
      </trkpt>
      <trkpt lat="45.11388" lon="5.23846">
        <ele>266.1</ele>
        <time>2010-10-23T13:46:16Z</time>
      </trkpt>
      <trkpt lat="45.11389" lon="5.23849">
        <ele>265.4</ele>
        <time>2010-10-23T13:46:17Z</time>
      </trkpt>
      <trkpt lat="45.1139" lon="5.23851">
        <ele>265.2</ele>
        <time>2010-10-23T13:46:18Z</time>
      </trkpt>
      <trkpt lat="45.11393" lon="5.23853">
        <ele>264.4</ele>
        <time>2010-10-23T13:46:19Z</time>
      </trkpt>
      <trkpt lat="45.11395" lon="5.23854">
        <ele>263.8</ele>
        <time>2010-10-23T13:46:20Z</time>
      </trkpt>
      <trkpt lat="45.11397" lon="5.23855">
        <ele>263.4</ele>
        <time>2010-10-23T13:46:21Z</time>
      </trkpt>
      <trkpt lat="45.114" lon="5.23857">
        <ele>263.1</ele>
        <time>2010-10-23T13:46:22Z</time>
      </trkpt>
      <trkpt lat="45.11402" lon="5.23858">
        <ele>263.8</ele>
        <time>2010-10-23T13:46:23Z</time>
      </trkpt>
      <trkpt lat="45.11403" lon="5.23859">
        <ele>262.9</ele>
        <time>2010-10-23T13:46:24Z</time>
      </trkpt>
      <trkpt lat="45.11405" lon="5.2386">
        <ele>263</ele>
        <time>2010-10-23T13:46:25Z</time>
      </trkpt>
      <trkpt lat="45.11407" lon="5.23861">
        <ele>263.1</ele>
        <time>2010-10-23T13:46:27Z</time>
      </trkpt>
      <trkpt lat="45.11409" lon="5.23861">
        <ele>263.7</ele>
        <time>2010-10-23T13:46:27Z</time>
      </trkpt>
      <trkpt lat="45.11411" lon="5.23862">
        <ele>264.1</ele>
        <time>2010-10-23T13:46:27Z</time>
      </trkpt>
      <trkpt lat="45.11412" lon="5.23864">
        <ele>263.7</ele>
        <time>2010-10-23T13:46:28Z</time>
      </trkpt>
      <trkpt lat="45.11414" lon="5.23866">
        <ele>263.8</ele>
        <time>2010-10-23T13:46:30Z</time>
      </trkpt>
      <trkpt lat="45.11416" lon="5.23868">
        <ele>264.5</ele>
        <time>2010-10-23T13:46:31Z</time>
      </trkpt>
      <trkpt lat="45.11418" lon="5.23869">
        <ele>264.1</ele>
        <time>2010-10-23T13:46:32Z</time>
      </trkpt>
      <trkpt lat="45.11421" lon="5.23871">
        <ele>264.5</ele>
        <time>2010-10-23T13:46:33Z</time>
      </trkpt>
      <trkpt lat="45.11423" lon="5.23872">
        <ele>264.5</ele>
        <time>2010-10-23T13:46:34Z</time>
      </trkpt>
      <trkpt lat="45.11425" lon="5.23873">
        <ele>264.6</ele>
        <time>2010-10-23T13:46:35Z</time>
      </trkpt>
      <trkpt lat="45.11428" lon="5.23874">
        <ele>264.7</ele>
        <time>2010-10-23T13:46:36Z</time>
      </trkpt>
      <trkpt lat="45.11431" lon="5.23875">
        <ele>264</ele>
        <time>2010-10-23T13:46:37Z</time>
      </trkpt>
      <trkpt lat="45.11431" lon="5.23876">
        <ele>263.9</ele>
        <time>2010-10-23T13:46:38Z</time>
      </trkpt>
      <trkpt lat="45.11434" lon="5.23876">
        <ele>264.2</ele>
        <time>2010-10-23T13:46:39Z</time>
      </trkpt>
      <trkpt lat="45.11435" lon="5.23877">
        <ele>263.9</ele>
        <time>2010-10-23T13:46:40Z</time>
      </trkpt>
      <trkpt lat="45.11437" lon="5.23879">
        <ele>263.9</ele>
        <time>2010-10-23T13:46:41Z</time>
      </trkpt>
      <trkpt lat="45.11439" lon="5.23881">
        <ele>263.9</ele>
        <time>2010-10-23T13:46:42Z</time>
      </trkpt>
      <trkpt lat="45.11442" lon="5.23882">
        <ele>263.9</ele>
        <time>2010-10-23T13:46:43Z</time>
      </trkpt>
      <trkpt lat="45.11444" lon="5.23883">
        <ele>263.6</ele>
        <time>2010-10-23T13:46:44Z</time>
      </trkpt>
      <trkpt lat="45.11446" lon="5.23884">
        <ele>263.9</ele>
        <time>2010-10-23T13:46:45Z</time>
      </trkpt>
      <trkpt lat="45.11449" lon="5.23886">
        <ele>264.4</ele>
        <time>2010-10-23T13:46:46Z</time>
      </trkpt>
      <trkpt lat="45.11451" lon="5.23886">
        <ele>265</ele>
        <time>2010-10-23T13:46:47Z</time>
      </trkpt>
      <trkpt lat="45.11453" lon="5.23888">
        <ele>265</ele>
        <time>2010-10-23T13:46:47Z</time>
      </trkpt>
      <trkpt lat="45.11454" lon="5.23888">
        <ele>265.3</ele>
        <time>2010-10-23T13:46:48Z</time>
      </trkpt>
      <trkpt lat="45.11456" lon="5.23889">
        <ele>265.3</ele>
        <time>2010-10-23T13:46:50Z</time>
      </trkpt>
      <trkpt lat="45.11458" lon="5.2389">
        <ele>265.6</ele>
        <time>2010-10-23T13:46:51Z</time>
      </trkpt>
      <trkpt lat="45.11459" lon="5.23891">
        <ele>265.6</ele>
        <time>2010-10-23T13:46:52Z</time>
      </trkpt>
      <trkpt lat="45.11461" lon="5.23892">
        <ele>264.8</ele>
        <time>2010-10-23T13:46:53Z</time>
      </trkpt>
      <trkpt lat="45.11463" lon="5.23894">
        <ele>263.7</ele>
        <time>2010-10-23T13:46:54Z</time>
      </trkpt>
      <trkpt lat="45.11466" lon="5.23895">
        <ele>263.9</ele>
        <time>2010-10-23T13:46:55Z</time>
      </trkpt>
      <trkpt lat="45.11467" lon="5.23897">
        <ele>263.4</ele>
        <time>2010-10-23T13:46:56Z</time>
      </trkpt>
      <trkpt lat="45.11469" lon="5.23898">
        <ele>263.4</ele>
        <time>2010-10-23T13:46:57Z</time>
      </trkpt>
      <trkpt lat="45.11471" lon="5.239">
        <ele>263.3</ele>
        <time>2010-10-23T13:46:58Z</time>
      </trkpt>
      <trkpt lat="45.11472" lon="5.239">
        <ele>263.4</ele>
        <time>2010-10-23T13:46:59Z</time>
      </trkpt>
      <trkpt lat="45.11474" lon="5.23902">
        <ele>263.3</ele>
        <time>2010-10-23T13:47:00Z</time>
      </trkpt>
      <trkpt lat="45.11477" lon="5.23903">
        <ele>263.3</ele>
        <time>2010-10-23T13:47:01Z</time>
      </trkpt>
      <trkpt lat="45.11479" lon="5.23905">
        <ele>263</ele>
        <time>2010-10-23T13:47:02Z</time>
      </trkpt>
      <trkpt lat="45.11482" lon="5.23907">
        <ele>262.8</ele>
        <time>2010-10-23T13:47:03Z</time>
      </trkpt>
      <trkpt lat="45.11484" lon="5.23909">
        <ele>263.1</ele>
        <time>2010-10-23T13:47:04Z</time>
      </trkpt>
      <trkpt lat="45.11485" lon="5.2391">
        <ele>263</ele>
        <time>2010-10-23T13:47:05Z</time>
      </trkpt>
      <trkpt lat="45.11488" lon="5.23912">
        <ele>263.1</ele>
        <time>2010-10-23T13:47:06Z</time>
      </trkpt>
      <trkpt lat="45.1149" lon="5.23912">
        <ele>262.9</ele>
        <time>2010-10-23T13:47:07Z</time>
      </trkpt>
      <trkpt lat="45.11491" lon="5.23913">
        <ele>262.8</ele>
        <time>2010-10-23T13:47:07Z</time>
      </trkpt>
      <trkpt lat="45.11494" lon="5.23913">
        <ele>262.9</ele>
        <time>2010-10-23T13:47:08Z</time>
      </trkpt>
      <trkpt lat="45.11496" lon="5.23915">
        <ele>263.2</ele>
        <time>2010-10-23T13:47:10Z</time>
      </trkpt>
      <trkpt lat="45.11497" lon="5.23916">
        <ele>263.7</ele>
        <time>2010-10-23T13:47:11Z</time>
      </trkpt>
      <trkpt lat="45.11499" lon="5.23917">
        <ele>262.3</ele>
        <time>2010-10-23T13:47:12Z</time>
      </trkpt>
      <trkpt lat="45.11501" lon="5.23918">
        <ele>260.6</ele>
        <time>2010-10-23T13:47:13Z</time>
      </trkpt>
      <trkpt lat="45.11503" lon="5.23919">
        <ele>262</ele>
        <time>2010-10-23T13:47:14Z</time>
      </trkpt>
      <trkpt lat="45.11505" lon="5.2392">
        <ele>262.1</ele>
        <time>2010-10-23T13:47:15Z</time>
      </trkpt>
      <trkpt lat="45.11506" lon="5.23922">
        <ele>262.2</ele>
        <time>2010-10-23T13:47:16Z</time>
      </trkpt>
      <trkpt lat="45.11508" lon="5.23922">
        <ele>262.3</ele>
        <time>2010-10-23T13:47:17Z</time>
      </trkpt>
      <trkpt lat="45.11508" lon="5.23924">
        <ele>262.1</ele>
        <time>2010-10-23T13:47:18Z</time>
      </trkpt>
      <trkpt lat="45.11509" lon="5.23925">
        <ele>261.3</ele>
        <time>2010-10-23T13:47:19Z</time>
      </trkpt>
      <trkpt lat="45.1151" lon="5.23926">
        <ele>261.4</ele>
        <time>2010-10-23T13:47:20Z</time>
      </trkpt>
      <trkpt lat="45.11512" lon="5.23927">
        <ele>261.6</ele>
        <time>2010-10-23T13:47:21Z</time>
      </trkpt>
      <trkpt lat="45.11515" lon="5.23927">
        <ele>261.5</ele>
        <time>2010-10-23T13:47:22Z</time>
      </trkpt>
      <trkpt lat="45.11517" lon="5.23928">
        <ele>261.1</ele>
        <time>2010-10-23T13:47:23Z</time>
      </trkpt>
      <trkpt lat="45.11519" lon="5.23931">
        <ele>260.9</ele>
        <time>2010-10-23T13:47:24Z</time>
      </trkpt>
      <trkpt lat="45.1152" lon="5.23931">
        <ele>261.5</ele>
        <time>2010-10-23T13:47:26Z</time>
      </trkpt>
      <trkpt lat="45.11521" lon="5.23932">
        <ele>261.2</ele>
        <time>2010-10-23T13:47:27Z</time>
      </trkpt>
      <trkpt lat="45.11523" lon="5.23933">
        <ele>261.2</ele>
        <time>2010-10-23T13:47:27Z</time>
      </trkpt>
      <trkpt lat="45.11524" lon="5.23934">
        <ele>261.3</ele>
        <time>2010-10-23T13:47:29Z</time>
      </trkpt>
      <trkpt lat="45.11524" lon="5.23937">
        <ele>261.1</ele>
        <time>2010-10-23T13:47:30Z</time>
      </trkpt>
      <trkpt lat="45.11527" lon="5.23937">
        <ele>261.3</ele>
        <time>2010-10-23T13:47:31Z</time>
      </trkpt>
      <trkpt lat="45.1153" lon="5.23941">
        <ele>261.3</ele>
        <time>2010-10-23T13:47:32Z</time>
      </trkpt>
      <trkpt lat="45.11531" lon="5.23942">
        <ele>261.2</ele>
        <time>2010-10-23T13:47:33Z</time>
      </trkpt>
      <trkpt lat="45.11535" lon="5.23945">
        <ele>260.9</ele>
        <time>2010-10-23T13:47:34Z</time>
      </trkpt>
      <trkpt lat="45.11538" lon="5.23945">
        <ele>260.6</ele>
        <time>2010-10-23T13:47:35Z</time>
      </trkpt>
      <trkpt lat="45.1154" lon="5.23947">
        <ele>260.5</ele>
        <time>2010-10-23T13:47:36Z</time>
      </trkpt>
      <trkpt lat="45.11541" lon="5.23946">
        <ele>259.5</ele>
        <time>2010-10-23T13:47:37Z</time>
      </trkpt>
      <trkpt lat="45.11543" lon="5.23948">
        <ele>259.4</ele>
        <time>2010-10-23T13:47:38Z</time>
      </trkpt>
      <trkpt lat="45.11545" lon="5.23949">
        <ele>259.4</ele>
        <time>2010-10-23T13:47:39Z</time>
      </trkpt>
      <trkpt lat="45.11547" lon="5.23951">
        <ele>259.2</ele>
        <time>2010-10-23T13:47:40Z</time>
      </trkpt>
      <trkpt lat="45.1155" lon="5.23952">
        <ele>259.4</ele>
        <time>2010-10-23T13:47:41Z</time>
      </trkpt>
      <trkpt lat="45.11553" lon="5.23953">
        <ele>259.7</ele>
        <time>2010-10-23T13:47:42Z</time>
      </trkpt>
      <trkpt lat="45.11556" lon="5.23955">
        <ele>259.2</ele>
        <time>2010-10-23T13:47:43Z</time>
      </trkpt>
      <trkpt lat="45.1156" lon="5.23956">
        <ele>258.8</ele>
        <time>2010-10-23T13:47:44Z</time>
      </trkpt>
      <trkpt lat="45.11561" lon="5.23957">
        <ele>259</ele>
        <time>2010-10-23T13:47:45Z</time>
      </trkpt>
      <trkpt lat="45.11564" lon="5.23958">
        <ele>259.1</ele>
        <time>2010-10-23T13:47:46Z</time>
      </trkpt>
      <trkpt lat="45.11568" lon="5.2396">
        <ele>258.9</ele>
        <time>2010-10-23T13:47:47Z</time>
      </trkpt>
      <trkpt lat="45.1157" lon="5.23961">
        <ele>258.8</ele>
        <time>2010-10-23T13:47:47Z</time>
      </trkpt>
      <trkpt lat="45.11571" lon="5.23962">
        <ele>259.4</ele>
        <time>2010-10-23T13:47:49Z</time>
      </trkpt>
      <trkpt lat="45.11573" lon="5.23963">
        <ele>259.7</ele>
        <time>2010-10-23T13:47:50Z</time>
      </trkpt>
      <trkpt lat="45.11576" lon="5.23965">
        <ele>259.9</ele>
        <time>2010-10-23T13:47:51Z</time>
      </trkpt>
      <trkpt lat="45.11577" lon="5.23966">
        <ele>260.3</ele>
        <time>2010-10-23T13:47:52Z</time>
      </trkpt>
      <trkpt lat="45.11579" lon="5.23967">
        <ele>260.2</ele>
        <time>2010-10-23T13:47:53Z</time>
      </trkpt>
      <trkpt lat="45.1158" lon="5.23967">
        <ele>261.3</ele>
        <time>2010-10-23T13:47:54Z</time>
      </trkpt>
      <trkpt lat="45.11581" lon="5.23968">
        <ele>260.1</ele>
        <time>2010-10-23T13:47:55Z</time>
      </trkpt>
      <trkpt lat="45.11583" lon="5.23969">
        <ele>260.3</ele>
        <time>2010-10-23T13:47:56Z</time>
      </trkpt>
      <trkpt lat="45.11585" lon="5.23969">
        <ele>260.5</ele>
        <time>2010-10-23T13:47:57Z</time>
      </trkpt>
      <trkpt lat="45.11586" lon="5.2397">
        <ele>260.6</ele>
        <time>2010-10-23T13:47:58Z</time>
      </trkpt>
      <trkpt lat="45.11588" lon="5.23971">
        <ele>260.2</ele>
        <time>2010-10-23T13:47:59Z</time>
      </trkpt>
      <trkpt lat="45.1159" lon="5.23972">
        <ele>260.4</ele>
        <time>2010-10-23T13:48:00Z</time>
      </trkpt>
      <trkpt lat="45.11591" lon="5.23973">
        <ele>260.2</ele>
        <time>2010-10-23T13:48:02Z</time>
      </trkpt>
      <trkpt lat="45.11592" lon="5.23974">
        <ele>260.3</ele>
        <time>2010-10-23T13:48:02Z</time>
      </trkpt>
      <trkpt lat="45.11594" lon="5.23975">
        <ele>260.3</ele>
        <time>2010-10-23T13:48:03Z</time>
      </trkpt>
      <trkpt lat="45.11596" lon="5.23976">
        <ele>260.7</ele>
        <time>2010-10-23T13:48:04Z</time>
      </trkpt>
      <trkpt lat="45.11597" lon="5.23977">
        <ele>260.7</ele>
        <time>2010-10-23T13:48:05Z</time>
      </trkpt>
      <trkpt lat="45.116" lon="5.2398">
        <ele>260.2</ele>
        <time>2010-10-23T13:48:06Z</time>
      </trkpt>
      <trkpt lat="45.11604" lon="5.23982">
        <ele>260.6</ele>
        <time>2010-10-23T13:48:07Z</time>
      </trkpt>
      <trkpt lat="45.11606" lon="5.23983">
        <ele>260.3</ele>
        <time>2010-10-23T13:48:07Z</time>
      </trkpt>
      <trkpt lat="45.11608" lon="5.23984">
        <ele>260.2</ele>
        <time>2010-10-23T13:48:09Z</time>
      </trkpt>
      <trkpt lat="45.11611" lon="5.23985">
        <ele>260.2</ele>
        <time>2010-10-23T13:48:10Z</time>
      </trkpt>
      <trkpt lat="45.11613" lon="5.23986">
        <ele>260.4</ele>
        <time>2010-10-23T13:48:11Z</time>
      </trkpt>
      <trkpt lat="45.11616" lon="5.23987">
        <ele>260.8</ele>
        <time>2010-10-23T13:48:12Z</time>
      </trkpt>
      <trkpt lat="45.11618" lon="5.23988">
        <ele>260.8</ele>
        <time>2010-10-23T13:48:13Z</time>
      </trkpt>
      <trkpt lat="45.1162" lon="5.23987">
        <ele>260.6</ele>
        <time>2010-10-23T13:48:14Z</time>
      </trkpt>
      <trkpt lat="45.11622" lon="5.23989">
        <ele>260.5</ele>
        <time>2010-10-23T13:48:15Z</time>
      </trkpt>
      <trkpt lat="45.11624" lon="5.23989">
        <ele>260.7</ele>
        <time>2010-10-23T13:48:16Z</time>
      </trkpt>
      <trkpt lat="45.11627" lon="5.23989">
        <ele>260.6</ele>
        <time>2010-10-23T13:48:17Z</time>
      </trkpt>
      <trkpt lat="45.11629" lon="5.23991">
        <ele>260.9</ele>
        <time>2010-10-23T13:48:18Z</time>
      </trkpt>
      <trkpt lat="45.1163" lon="5.23992">
        <ele>260.6</ele>
        <time>2010-10-23T13:48:19Z</time>
      </trkpt>
      <trkpt lat="45.11633" lon="5.23993">
        <ele>260.7</ele>
        <time>2010-10-23T13:48:20Z</time>
      </trkpt>
      <trkpt lat="45.11634" lon="5.23994">
        <ele>260.7</ele>
        <time>2010-10-23T13:48:21Z</time>
      </trkpt>
      <trkpt lat="45.11637" lon="5.23996">
        <ele>260.8</ele>
        <time>2010-10-23T13:48:22Z</time>
      </trkpt>
      <trkpt lat="45.11641" lon="5.23996">
        <ele>261.2</ele>
        <time>2010-10-23T13:48:23Z</time>
      </trkpt>
      <trkpt lat="45.11643" lon="5.23997">
        <ele>261.3</ele>
        <time>2010-10-23T13:48:24Z</time>
      </trkpt>
      <trkpt lat="45.11646" lon="5.23997">
        <ele>261.4</ele>
        <time>2010-10-23T13:48:25Z</time>
      </trkpt>
      <trkpt lat="45.11648" lon="5.23997">
        <ele>262.3</ele>
        <time>2010-10-23T13:48:26Z</time>
      </trkpt>
      <trkpt lat="45.1165" lon="5.23998">
        <ele>262.6</ele>
        <time>2010-10-23T13:48:26Z</time>
      </trkpt>
      <trkpt lat="45.11653" lon="5.23998">
        <ele>262.8</ele>
        <time>2010-10-23T13:48:27Z</time>
      </trkpt>
      <trkpt lat="45.11654" lon="5.23999">
        <ele>261.9</ele>
        <time>2010-10-23T13:48:29Z</time>
      </trkpt>
      <trkpt lat="45.11655" lon="5.24">
        <ele>261.9</ele>
        <time>2010-10-23T13:48:30Z</time>
      </trkpt>
      <trkpt lat="45.11656" lon="5.24002">
        <ele>261.2</ele>
        <time>2010-10-23T13:48:31Z</time>
      </trkpt>
      <trkpt lat="45.11658" lon="5.24003">
        <ele>260.9</ele>
        <time>2010-10-23T13:48:32Z</time>
      </trkpt>
      <trkpt lat="45.11661" lon="5.24004">
        <ele>260.7</ele>
        <time>2010-10-23T13:48:33Z</time>
      </trkpt>
      <trkpt lat="45.11663" lon="5.24005">
        <ele>260.8</ele>
        <time>2010-10-23T13:48:34Z</time>
      </trkpt>
      <trkpt lat="45.11665" lon="5.24005">
        <ele>260.1</ele>
        <time>2010-10-23T13:48:35Z</time>
      </trkpt>
      <trkpt lat="45.11666" lon="5.24005">
        <ele>261.4</ele>
        <time>2010-10-23T13:48:36Z</time>
      </trkpt>
      <trkpt lat="45.11668" lon="5.24005">
        <ele>261.8</ele>
        <time>2010-10-23T13:48:37Z</time>
      </trkpt>
      <trkpt lat="45.1167" lon="5.24005">
        <ele>262.1</ele>
        <time>2010-10-23T13:48:38Z</time>
      </trkpt>
      <trkpt lat="45.11671" lon="5.24006">
        <ele>262.2</ele>
        <time>2010-10-23T13:48:39Z</time>
      </trkpt>
      <trkpt lat="45.11673" lon="5.24008">
        <ele>261.7</ele>
        <time>2010-10-23T13:48:40Z</time>
      </trkpt>
      <trkpt lat="45.11676" lon="5.24009">
        <ele>260.8</ele>
        <time>2010-10-23T13:48:41Z</time>
      </trkpt>
      <trkpt lat="45.11678" lon="5.24009">
        <ele>260.9</ele>
        <time>2010-10-23T13:48:42Z</time>
      </trkpt>
      <trkpt lat="45.1168" lon="5.2401">
        <ele>260.8</ele>
        <time>2010-10-23T13:48:43Z</time>
      </trkpt>
      <trkpt lat="45.11682" lon="5.24011">
        <ele>261.2</ele>
        <time>2010-10-23T13:48:44Z</time>
      </trkpt>
      <trkpt lat="45.11684" lon="5.24012">
        <ele>261</ele>
        <time>2010-10-23T13:48:45Z</time>
      </trkpt>
      <trkpt lat="45.11687" lon="5.24012">
        <ele>261.6</ele>
        <time>2010-10-23T13:48:46Z</time>
      </trkpt>
      <trkpt lat="45.11689" lon="5.24013">
        <ele>261.8</ele>
        <time>2010-10-23T13:48:46Z</time>
      </trkpt>
      <trkpt lat="45.11691" lon="5.24014">
        <ele>262.2</ele>
        <time>2010-10-23T13:48:47Z</time>
      </trkpt>
      <trkpt lat="45.11694" lon="5.24015">
        <ele>262</ele>
        <time>2010-10-23T13:48:49Z</time>
      </trkpt>
      <trkpt lat="45.11696" lon="5.24017">
        <ele>261.8</ele>
        <time>2010-10-23T13:48:50Z</time>
      </trkpt>
      <trkpt lat="45.11698" lon="5.2402">
        <ele>261.6</ele>
        <time>2010-10-23T13:48:51Z</time>
      </trkpt>
      <trkpt lat="45.11701" lon="5.24022">
        <ele>261.5</ele>
        <time>2010-10-23T13:48:52Z</time>
      </trkpt>
      <trkpt lat="45.11703" lon="5.24022">
        <ele>262</ele>
        <time>2010-10-23T13:48:53Z</time>
      </trkpt>
      <trkpt lat="45.11707" lon="5.24024">
        <ele>262.2</ele>
        <time>2010-10-23T13:48:54Z</time>
      </trkpt>
      <trkpt lat="45.1171" lon="5.24025">
        <ele>262.5</ele>
        <time>2010-10-23T13:48:55Z</time>
      </trkpt>
      <trkpt lat="45.11712" lon="5.24026">
        <ele>261.6</ele>
        <time>2010-10-23T13:48:56Z</time>
      </trkpt>
      <trkpt lat="45.11715" lon="5.24027">
        <ele>262</ele>
        <time>2010-10-23T13:48:57Z</time>
      </trkpt>
      <trkpt lat="45.11718" lon="5.24028">
        <ele>261.9</ele>
        <time>2010-10-23T13:48:58Z</time>
      </trkpt>
      <trkpt lat="45.11721" lon="5.24029">
        <ele>262.5</ele>
        <time>2010-10-23T13:48:59Z</time>
      </trkpt>
      <trkpt lat="45.11724" lon="5.24029">
        <ele>262.7</ele>
        <time>2010-10-23T13:49:00Z</time>
      </trkpt>
      <trkpt lat="45.11726" lon="5.2403">
        <ele>262.8</ele>
        <time>2010-10-23T13:49:01Z</time>
      </trkpt>
      <trkpt lat="45.11729" lon="5.24031">
        <ele>262</ele>
        <time>2010-10-23T13:49:02Z</time>
      </trkpt>
      <trkpt lat="45.11732" lon="5.24032">
        <ele>261.9</ele>
        <time>2010-10-23T13:49:03Z</time>
      </trkpt>
      <trkpt lat="45.11735" lon="5.24033">
        <ele>261.8</ele>
        <time>2010-10-23T13:49:04Z</time>
      </trkpt>
      <trkpt lat="45.11738" lon="5.24034">
        <ele>261.1</ele>
        <time>2010-10-23T13:49:05Z</time>
      </trkpt>
      <trkpt lat="45.11742" lon="5.24036">
        <ele>261.1</ele>
        <time>2010-10-23T13:49:06Z</time>
      </trkpt>
      <trkpt lat="45.11745" lon="5.24035">
        <ele>261.2</ele>
        <time>2010-10-23T13:49:06Z</time>
      </trkpt>
      <trkpt lat="45.11748" lon="5.24036">
        <ele>261.6</ele>
        <time>2010-10-23T13:49:07Z</time>
      </trkpt>
      <trkpt lat="45.11751" lon="5.24037">
        <ele>261.8</ele>
        <time>2010-10-23T13:49:09Z</time>
      </trkpt>
      <trkpt lat="45.11754" lon="5.24038">
        <ele>262</ele>
        <time>2010-10-23T13:49:10Z</time>
      </trkpt>
      <trkpt lat="45.11757" lon="5.24039">
        <ele>262.1</ele>
        <time>2010-10-23T13:49:11Z</time>
      </trkpt>
      <trkpt lat="45.11761" lon="5.2404">
        <ele>262.2</ele>
        <time>2010-10-23T13:49:12Z</time>
      </trkpt>
      <trkpt lat="45.11764" lon="5.24042">
        <ele>262.2</ele>
        <time>2010-10-23T13:49:13Z</time>
      </trkpt>
      <trkpt lat="45.11767" lon="5.24043">
        <ele>261.8</ele>
        <time>2010-10-23T13:49:14Z</time>
      </trkpt>
      <trkpt lat="45.1177" lon="5.24045">
        <ele>261.9</ele>
        <time>2010-10-23T13:49:15Z</time>
      </trkpt>
      <trkpt lat="45.11772" lon="5.24045">
        <ele>262.3</ele>
        <time>2010-10-23T13:49:16Z</time>
      </trkpt>
      <trkpt lat="45.11776" lon="5.24046">
        <ele>262</ele>
        <time>2010-10-23T13:49:17Z</time>
      </trkpt>
      <trkpt lat="45.11778" lon="5.24047">
        <ele>262.2</ele>
        <time>2010-10-23T13:49:18Z</time>
      </trkpt>
      <trkpt lat="45.11781" lon="5.24048">
        <ele>261.9</ele>
        <time>2010-10-23T13:49:19Z</time>
      </trkpt>
      <trkpt lat="45.11784" lon="5.24049">
        <ele>261.9</ele>
        <time>2010-10-23T13:49:20Z</time>
      </trkpt>
      <trkpt lat="45.11787" lon="5.2405">
        <ele>261.6</ele>
        <time>2010-10-23T13:49:21Z</time>
      </trkpt>
      <trkpt lat="45.11791" lon="5.2405">
        <ele>261.7</ele>
        <time>2010-10-23T13:49:22Z</time>
      </trkpt>
      <trkpt lat="45.11793" lon="5.2405">
        <ele>262.4</ele>
        <time>2010-10-23T13:49:23Z</time>
      </trkpt>
      <trkpt lat="45.11795" lon="5.24051">
        <ele>263.7</ele>
        <time>2010-10-23T13:49:24Z</time>
      </trkpt>
      <trkpt lat="45.11798" lon="5.24051">
        <ele>264.8</ele>
        <time>2010-10-23T13:49:25Z</time>
      </trkpt>
      <trkpt lat="45.11801" lon="5.24052">
        <ele>265.3</ele>
        <time>2010-10-23T13:49:26Z</time>
      </trkpt>
      <trkpt lat="45.11804" lon="5.24053">
        <ele>265.3</ele>
        <time>2010-10-23T13:49:26Z</time>
      </trkpt>
      <trkpt lat="45.11808" lon="5.24054">
        <ele>265.3</ele>
        <time>2010-10-23T13:49:27Z</time>
      </trkpt>
      <trkpt lat="45.11811" lon="5.24054">
        <ele>264.8</ele>
        <time>2010-10-23T13:49:29Z</time>
      </trkpt>
      <trkpt lat="45.11814" lon="5.24055">
        <ele>264.6</ele>
        <time>2010-10-23T13:49:30Z</time>
      </trkpt>
      <trkpt lat="45.11818" lon="5.24056">
        <ele>264.2</ele>
        <time>2010-10-23T13:49:32Z</time>
      </trkpt>
      <trkpt lat="45.1182" lon="5.24057">
        <ele>264.4</ele>
        <time>2010-10-23T13:49:33Z</time>
      </trkpt>
      <trkpt lat="45.11823" lon="5.24058">
        <ele>264.3</ele>
        <time>2010-10-23T13:49:34Z</time>
      </trkpt>
      <trkpt lat="45.11825" lon="5.24058">
        <ele>264.8</ele>
        <time>2010-10-23T13:49:35Z</time>
      </trkpt>
      <trkpt lat="45.11828" lon="5.24059">
        <ele>264.5</ele>
        <time>2010-10-23T13:49:36Z</time>
      </trkpt>
      <trkpt lat="45.1183" lon="5.2406">
        <ele>264.4</ele>
        <time>2010-10-23T13:49:37Z</time>
      </trkpt>
      <trkpt lat="45.11832" lon="5.2406">
        <ele>264.8</ele>
        <time>2010-10-23T13:49:38Z</time>
      </trkpt>
      <trkpt lat="45.11834" lon="5.24062">
        <ele>264.9</ele>
        <time>2010-10-23T13:49:39Z</time>
      </trkpt>
      <trkpt lat="45.11837" lon="5.24063">
        <ele>265</ele>
        <time>2010-10-23T13:49:40Z</time>
      </trkpt>
      <trkpt lat="45.1184" lon="5.24063">
        <ele>264.3</ele>
        <time>2010-10-23T13:49:41Z</time>
      </trkpt>
      <trkpt lat="45.11843" lon="5.24064">
        <ele>264.9</ele>
        <time>2010-10-23T13:49:42Z</time>
      </trkpt>
      <trkpt lat="45.11846" lon="5.24064">
        <ele>264.9</ele>
        <time>2010-10-23T13:49:43Z</time>
      </trkpt>
      <trkpt lat="45.1185" lon="5.24065">
        <ele>264.9</ele>
        <time>2010-10-23T13:49:44Z</time>
      </trkpt>
      <trkpt lat="45.11852" lon="5.24067">
        <ele>264.7</ele>
        <time>2010-10-23T13:49:45Z</time>
      </trkpt>
      <trkpt lat="45.11853" lon="5.24068">
        <ele>265.1</ele>
        <time>2010-10-23T13:49:46Z</time>
      </trkpt>
      <trkpt lat="45.11856" lon="5.2407">
        <ele>265</ele>
        <time>2010-10-23T13:49:46Z</time>
      </trkpt>
      <trkpt lat="45.11859" lon="5.2407">
        <ele>265.3</ele>
        <time>2010-10-23T13:49:48Z</time>
      </trkpt>
      <trkpt lat="45.11863" lon="5.24071">
        <ele>265.2</ele>
        <time>2010-10-23T13:49:49Z</time>
      </trkpt>
      <trkpt lat="45.11865" lon="5.24072">
        <ele>265.2</ele>
        <time>2010-10-23T13:49:50Z</time>
      </trkpt>
      <trkpt lat="45.11868" lon="5.24072">
        <ele>265.1</ele>
        <time>2010-10-23T13:49:51Z</time>
      </trkpt>
      <trkpt lat="45.1187" lon="5.24072">
        <ele>265.5</ele>
        <time>2010-10-23T13:49:52Z</time>
      </trkpt>
      <trkpt lat="45.11872" lon="5.24073">
        <ele>265.8</ele>
        <time>2010-10-23T13:49:53Z</time>
      </trkpt>
      <trkpt lat="45.11874" lon="5.24075">
        <ele>265.5</ele>
        <time>2010-10-23T13:49:54Z</time>
      </trkpt>
      <trkpt lat="45.11877" lon="5.24076">
        <ele>265.8</ele>
        <time>2010-10-23T13:49:55Z</time>
      </trkpt>
      <trkpt lat="45.11878" lon="5.24076">
        <ele>266.3</ele>
        <time>2010-10-23T13:49:56Z</time>
      </trkpt>
      <trkpt lat="45.11881" lon="5.24078">
        <ele>266.3</ele>
        <time>2010-10-23T13:49:57Z</time>
      </trkpt>
      <trkpt lat="45.11884" lon="5.24078">
        <ele>266.1</ele>
        <time>2010-10-23T13:49:58Z</time>
      </trkpt>
      <trkpt lat="45.11886" lon="5.2408">
        <ele>266</ele>
        <time>2010-10-23T13:49:59Z</time>
      </trkpt>
      <trkpt lat="45.11888" lon="5.2408">
        <ele>266.1</ele>
        <time>2010-10-23T13:50:00Z</time>
      </trkpt>
      <trkpt lat="45.11892" lon="5.24081">
        <ele>264.5</ele>
        <time>2010-10-23T13:50:01Z</time>
      </trkpt>
      <trkpt lat="45.11895" lon="5.24081">
        <ele>264.5</ele>
        <time>2010-10-23T13:50:02Z</time>
      </trkpt>
      <trkpt lat="45.11897" lon="5.24082">
        <ele>264.6</ele>
        <time>2010-10-23T13:50:03Z</time>
      </trkpt>
      <trkpt lat="45.11901" lon="5.24083">
        <ele>264.3</ele>
        <time>2010-10-23T13:50:04Z</time>
      </trkpt>
      <trkpt lat="45.11903" lon="5.24084">
        <ele>264.5</ele>
        <time>2010-10-23T13:50:05Z</time>
      </trkpt>
      <trkpt lat="45.11904" lon="5.24085">
        <ele>264.2</ele>
        <time>2010-10-23T13:50:06Z</time>
      </trkpt>
      <trkpt lat="45.11906" lon="5.24086">
        <ele>264.2</ele>
        <time>2010-10-23T13:50:06Z</time>
      </trkpt>
      <trkpt lat="45.11909" lon="5.24087">
        <ele>264.3</ele>
        <time>2010-10-23T13:50:08Z</time>
      </trkpt>
      <trkpt lat="45.11913" lon="5.24086">
        <ele>263.4</ele>
        <time>2010-10-23T13:50:09Z</time>
      </trkpt>
      <trkpt lat="45.11916" lon="5.24087">
        <ele>263.2</ele>
        <time>2010-10-23T13:50:10Z</time>
      </trkpt>
      <trkpt lat="45.11918" lon="5.24087">
        <ele>263.5</ele>
        <time>2010-10-23T13:50:11Z</time>
      </trkpt>
      <trkpt lat="45.11921" lon="5.24088">
        <ele>263.8</ele>
        <time>2010-10-23T13:50:12Z</time>
      </trkpt>
      <trkpt lat="45.11923" lon="5.24089">
        <ele>264.3</ele>
        <time>2010-10-23T13:50:13Z</time>
      </trkpt>
      <trkpt lat="45.11927" lon="5.24089">
        <ele>264.5</ele>
        <time>2010-10-23T13:50:14Z</time>
      </trkpt>
      <trkpt lat="45.11929" lon="5.2409">
        <ele>264.6</ele>
        <time>2010-10-23T13:50:15Z</time>
      </trkpt>
      <trkpt lat="45.11932" lon="5.24091">
        <ele>265.2</ele>
        <time>2010-10-23T13:50:16Z</time>
      </trkpt>
      <trkpt lat="45.11935" lon="5.24092">
        <ele>265.5</ele>
        <time>2010-10-23T13:50:17Z</time>
      </trkpt>
      <trkpt lat="45.11939" lon="5.24093">
        <ele>265.7</ele>
        <time>2010-10-23T13:50:18Z</time>
      </trkpt>
      <trkpt lat="45.11942" lon="5.24093">
        <ele>266</ele>
        <time>2010-10-23T13:50:19Z</time>
      </trkpt>
      <trkpt lat="45.11945" lon="5.24094">
        <ele>266.3</ele>
        <time>2010-10-23T13:50:20Z</time>
      </trkpt>
      <trkpt lat="45.11948" lon="5.24093">
        <ele>266.6</ele>
        <time>2010-10-23T13:50:21Z</time>
      </trkpt>
      <trkpt lat="45.11949" lon="5.24094">
        <ele>267.5</ele>
        <time>2010-10-23T13:50:22Z</time>
      </trkpt>
      <trkpt lat="45.11952" lon="5.24094">
        <ele>267.6</ele>
        <time>2010-10-23T13:50:23Z</time>
      </trkpt>
      <trkpt lat="45.11954" lon="5.24092">
        <ele>267.2</ele>
        <time>2010-10-23T13:50:24Z</time>
      </trkpt>
      <trkpt lat="45.11957" lon="5.24088">
        <ele>267.1</ele>
        <time>2010-10-23T13:50:25Z</time>
      </trkpt>
      <trkpt lat="45.1196" lon="5.24086">
        <ele>266.4</ele>
        <time>2010-10-23T13:50:26Z</time>
      </trkpt>
      <trkpt lat="45.11962" lon="5.24084">
        <ele>266.4</ele>
        <time>2010-10-23T13:50:26Z</time>
      </trkpt>
      <trkpt lat="45.11963" lon="5.24082">
        <ele>266.8</ele>
        <time>2010-10-23T13:50:28Z</time>
      </trkpt>
      <trkpt lat="45.11964" lon="5.2408">
        <ele>267.1</ele>
        <time>2010-10-23T13:50:29Z</time>
      </trkpt>
      <trkpt lat="45.11965" lon="5.24077">
        <ele>266.7</ele>
        <time>2010-10-23T13:50:30Z</time>
      </trkpt>
      <trkpt lat="45.11965" lon="5.24074">
        <ele>267.3</ele>
        <time>2010-10-23T13:50:31Z</time>
      </trkpt>
      <trkpt lat="45.11965" lon="5.24071">
        <ele>268</ele>
        <time>2010-10-23T13:50:32Z</time>
      </trkpt>
      <trkpt lat="45.11965" lon="5.24067">
        <ele>268.5</ele>
        <time>2010-10-23T13:50:33Z</time>
      </trkpt>
      <trkpt lat="45.11964" lon="5.24064">
        <ele>268.2</ele>
        <time>2010-10-23T13:50:34Z</time>
      </trkpt>
      <trkpt lat="45.11965" lon="5.2406">
        <ele>267.9</ele>
        <time>2010-10-23T13:50:35Z</time>
      </trkpt>
      <trkpt lat="45.11966" lon="5.24056">
        <ele>269.2</ele>
        <time>2010-10-23T13:50:36Z</time>
      </trkpt>
      <trkpt lat="45.11966" lon="5.24053">
        <ele>269.8</ele>
        <time>2010-10-23T13:50:37Z</time>
      </trkpt>
      <trkpt lat="45.11965" lon="5.24049">
        <ele>270.6</ele>
        <time>2010-10-23T13:50:38Z</time>
      </trkpt>
      <trkpt lat="45.11968" lon="5.24047">
        <ele>268.4</ele>
        <time>2010-10-23T13:50:39Z</time>
      </trkpt>
      <trkpt lat="45.11969" lon="5.24042">
        <ele>269.6</ele>
        <time>2010-10-23T13:50:40Z</time>
      </trkpt>
      <trkpt lat="45.11969" lon="5.24037">
        <ele>270.2</ele>
        <time>2010-10-23T13:50:41Z</time>
      </trkpt>
      <trkpt lat="45.11971" lon="5.24033">
        <ele>270.2</ele>
        <time>2010-10-23T13:50:42Z</time>
      </trkpt>
      <trkpt lat="45.11971" lon="5.24028">
        <ele>270.3</ele>
        <time>2010-10-23T13:50:43Z</time>
      </trkpt>
      <trkpt lat="45.11972" lon="5.24024">
        <ele>270</ele>
        <time>2010-10-23T13:50:44Z</time>
      </trkpt>
      <trkpt lat="45.11973" lon="5.2402">
        <ele>270.1</ele>
        <time>2010-10-23T13:50:45Z</time>
      </trkpt>
      <trkpt lat="45.11974" lon="5.24016">
        <ele>270.5</ele>
        <time>2010-10-23T13:50:45Z</time>
      </trkpt>
      <trkpt lat="45.11975" lon="5.24012">
        <ele>270.6</ele>
        <time>2010-10-23T13:50:46Z</time>
      </trkpt>
      <trkpt lat="45.11976" lon="5.24007">
        <ele>270.8</ele>
        <time>2010-10-23T13:50:48Z</time>
      </trkpt>
      <trkpt lat="45.11976" lon="5.24002">
        <ele>270.1</ele>
        <time>2010-10-23T13:50:49Z</time>
      </trkpt>
      <trkpt lat="45.11977" lon="5.23996">
        <ele>269.6</ele>
        <time>2010-10-23T13:50:50Z</time>
      </trkpt>
      <trkpt lat="45.11978" lon="5.23991">
        <ele>269.3</ele>
        <time>2010-10-23T13:50:51Z</time>
      </trkpt>
      <trkpt lat="45.11979" lon="5.23986">
        <ele>269.4</ele>
        <time>2010-10-23T13:50:52Z</time>
      </trkpt>
      <trkpt lat="45.11981" lon="5.23981">
        <ele>269.2</ele>
        <time>2010-10-23T13:50:53Z</time>
      </trkpt>
      <trkpt lat="45.11981" lon="5.23975">
        <ele>269.2</ele>
        <time>2010-10-23T13:50:54Z</time>
      </trkpt>
      <trkpt lat="45.11984" lon="5.23969">
        <ele>268.9</ele>
        <time>2010-10-23T13:50:55Z</time>
      </trkpt>
      <trkpt lat="45.11985" lon="5.23964">
        <ele>268.9</ele>
        <time>2010-10-23T13:50:56Z</time>
      </trkpt>
      <trkpt lat="45.11984" lon="5.23957">
        <ele>269.8</ele>
        <time>2010-10-23T13:50:57Z</time>
      </trkpt>
      <trkpt lat="45.11985" lon="5.23952">
        <ele>269.8</ele>
        <time>2010-10-23T13:50:58Z</time>
      </trkpt>
      <trkpt lat="45.11985" lon="5.23945">
        <ele>269.5</ele>
        <time>2010-10-23T13:50:59Z</time>
      </trkpt>
      <trkpt lat="45.11985" lon="5.2394">
        <ele>268.4</ele>
        <time>2010-10-23T13:51:00Z</time>
      </trkpt>
      <trkpt lat="45.11986" lon="5.23934">
        <ele>268.5</ele>
        <time>2010-10-23T13:51:01Z</time>
      </trkpt>
      <trkpt lat="45.11988" lon="5.23929">
        <ele>268</ele>
        <time>2010-10-23T13:51:02Z</time>
      </trkpt>
      <trkpt lat="45.11988" lon="5.23923">
        <ele>267.7</ele>
        <time>2010-10-23T13:51:03Z</time>
      </trkpt>
      <trkpt lat="45.11987" lon="5.23917">
        <ele>267.7</ele>
        <time>2010-10-23T13:51:04Z</time>
      </trkpt>
      <trkpt lat="45.11986" lon="5.23912">
        <ele>268.6</ele>
        <time>2010-10-23T13:51:05Z</time>
      </trkpt>
      <trkpt lat="45.11985" lon="5.23905">
        <ele>268.6</ele>
        <time>2010-10-23T13:51:05Z</time>
      </trkpt>
      <trkpt lat="45.11985" lon="5.239">
        <ele>268.5</ele>
        <time>2010-10-23T13:51:06Z</time>
      </trkpt>
      <trkpt lat="45.11984" lon="5.23895">
        <ele>268.5</ele>
        <time>2010-10-23T13:51:08Z</time>
      </trkpt>
      <trkpt lat="45.11984" lon="5.2389">
        <ele>268.6</ele>
        <time>2010-10-23T13:51:09Z</time>
      </trkpt>
      <trkpt lat="45.11984" lon="5.23884">
        <ele>268.6</ele>
        <time>2010-10-23T13:51:10Z</time>
      </trkpt>
      <trkpt lat="45.11984" lon="5.23879">
        <ele>268.7</ele>
        <time>2010-10-23T13:51:11Z</time>
      </trkpt>
      <trkpt lat="45.11984" lon="5.23875">
        <ele>268.4</ele>
        <time>2010-10-23T13:51:12Z</time>
      </trkpt>
      <trkpt lat="45.11987" lon="5.23871">
        <ele>267.7</ele>
        <time>2010-10-23T13:51:13Z</time>
      </trkpt>
      <trkpt lat="45.11986" lon="5.23866">
        <ele>267.3</ele>
        <time>2010-10-23T13:51:14Z</time>
      </trkpt>
      <trkpt lat="45.11987" lon="5.23862">
        <ele>267.3</ele>
        <time>2010-10-23T13:51:15Z</time>
      </trkpt>
      <trkpt lat="45.11987" lon="5.23858">
        <ele>266.9</ele>
        <time>2010-10-23T13:51:16Z</time>
      </trkpt>
      <trkpt lat="45.11985" lon="5.23853">
        <ele>267.4</ele>
        <time>2010-10-23T13:51:17Z</time>
      </trkpt>
      <trkpt lat="45.11985" lon="5.2385">
        <ele>267.2</ele>
        <time>2010-10-23T13:51:18Z</time>
      </trkpt>
      <trkpt lat="45.11985" lon="5.23846">
        <ele>267.1</ele>
        <time>2010-10-23T13:51:19Z</time>
      </trkpt>
      <trkpt lat="45.11985" lon="5.23843">
        <ele>267.3</ele>
        <time>2010-10-23T13:51:20Z</time>
      </trkpt>
      <trkpt lat="45.11986" lon="5.2384">
        <ele>267.5</ele>
        <time>2010-10-23T13:51:21Z</time>
      </trkpt>
      <trkpt lat="45.11986" lon="5.23837">
        <ele>267.2</ele>
        <time>2010-10-23T13:51:22Z</time>
      </trkpt>
      <trkpt lat="45.11987" lon="5.23834">
        <ele>266.8</ele>
        <time>2010-10-23T13:51:23Z</time>
      </trkpt>
      <trkpt lat="45.11988" lon="5.23832">
        <ele>266.3</ele>
        <time>2010-10-23T13:51:24Z</time>
      </trkpt>
      <trkpt lat="45.11989" lon="5.23828">
        <ele>266.5</ele>
        <time>2010-10-23T13:51:25Z</time>
      </trkpt>
      <trkpt lat="45.11989" lon="5.23824">
        <ele>266.6</ele>
        <time>2010-10-23T13:51:25Z</time>
      </trkpt>
      <trkpt lat="45.11989" lon="5.23821">
        <ele>266.4</ele>
        <time>2010-10-23T13:51:26Z</time>
      </trkpt>
      <trkpt lat="45.11989" lon="5.23818">
        <ele>266.1</ele>
        <time>2010-10-23T13:51:28Z</time>
      </trkpt>
      <trkpt lat="45.11988" lon="5.23815">
        <ele>265.8</ele>
        <time>2010-10-23T13:51:29Z</time>
      </trkpt>
      <trkpt lat="45.11988" lon="5.23812">
        <ele>265.8</ele>
        <time>2010-10-23T13:51:30Z</time>
      </trkpt>
      <trkpt lat="45.11988" lon="5.23809">
        <ele>265.8</ele>
        <time>2010-10-23T13:51:31Z</time>
      </trkpt>
      <trkpt lat="45.11988" lon="5.23806">
        <ele>265.8</ele>
        <time>2010-10-23T13:51:32Z</time>
      </trkpt>
      <trkpt lat="45.11989" lon="5.23803">
        <ele>265.9</ele>
        <time>2010-10-23T13:51:33Z</time>
      </trkpt>
      <trkpt lat="45.11988" lon="5.238">
        <ele>266.1</ele>
        <time>2010-10-23T13:51:34Z</time>
      </trkpt>
      <trkpt lat="45.11988" lon="5.23797">
        <ele>266.3</ele>
        <time>2010-10-23T13:51:35Z</time>
      </trkpt>
      <trkpt lat="45.11989" lon="5.23796">
        <ele>266</ele>
        <time>2010-10-23T13:51:36Z</time>
      </trkpt>
      <trkpt lat="45.11989" lon="5.23793">
        <ele>266.5</ele>
        <time>2010-10-23T13:51:37Z</time>
      </trkpt>
      <trkpt lat="45.1199" lon="5.23791">
        <ele>266.4</ele>
        <time>2010-10-23T13:51:38Z</time>
      </trkpt>
      <trkpt lat="45.1199" lon="5.23789">
        <ele>266.3</ele>
        <time>2010-10-23T13:51:39Z</time>
      </trkpt>
      <trkpt lat="45.11991" lon="5.23787">
        <ele>266.3</ele>
        <time>2010-10-23T13:51:40Z</time>
      </trkpt>
      <trkpt lat="45.1199" lon="5.23785">
        <ele>266.5</ele>
        <time>2010-10-23T13:51:41Z</time>
      </trkpt>
      <trkpt lat="45.11991" lon="5.23783">
        <ele>266.4</ele>
        <time>2010-10-23T13:51:42Z</time>
      </trkpt>
      <trkpt lat="45.1199" lon="5.23781">
        <ele>265.9</ele>
        <time>2010-10-23T13:51:43Z</time>
      </trkpt>
      <trkpt lat="45.11991" lon="5.23779">
        <ele>266</ele>
        <time>2010-10-23T13:51:44Z</time>
      </trkpt>
      <trkpt lat="45.11991" lon="5.23777">
        <ele>265.9</ele>
        <time>2010-10-23T13:51:45Z</time>
      </trkpt>
      <trkpt lat="45.11991" lon="5.23775">
        <ele>266</ele>
        <time>2010-10-23T13:51:45Z</time>
      </trkpt>
      <trkpt lat="45.1199" lon="5.23772">
        <ele>265.8</ele>
        <time>2010-10-23T13:51:47Z</time>
      </trkpt>
      <trkpt lat="45.11989" lon="5.2377">
        <ele>265.7</ele>
        <time>2010-10-23T13:51:48Z</time>
      </trkpt>
      <trkpt lat="45.11989" lon="5.23767">
        <ele>265.6</ele>
        <time>2010-10-23T13:51:49Z</time>
      </trkpt>
      <trkpt lat="45.1199" lon="5.23764">
        <ele>265.9</ele>
        <time>2010-10-23T13:51:50Z</time>
      </trkpt>
      <trkpt lat="45.1199" lon="5.23761">
        <ele>265.9</ele>
        <time>2010-10-23T13:51:51Z</time>
      </trkpt>
      <trkpt lat="45.11989" lon="5.23758">
        <ele>265.9</ele>
        <time>2010-10-23T13:51:52Z</time>
      </trkpt>
      <trkpt lat="45.11989" lon="5.23756">
        <ele>265.7</ele>
        <time>2010-10-23T13:51:53Z</time>
      </trkpt>
      <trkpt lat="45.11989" lon="5.23755">
        <ele>265.4</ele>
        <time>2010-10-23T13:51:54Z</time>
      </trkpt>
      <trkpt lat="45.11989" lon="5.23754">
        <ele>265</ele>
        <time>2010-10-23T13:51:55Z</time>
      </trkpt>
      <trkpt lat="45.11988" lon="5.23749">
        <ele>265.6</ele>
        <time>2010-10-23T13:51:56Z</time>
      </trkpt>
      <trkpt lat="45.11989" lon="5.2375">
        <ele>265.4</ele>
        <time>2010-10-23T13:51:57Z</time>
      </trkpt>
      <trkpt lat="45.11988" lon="5.23749">
        <ele>265.9</ele>
        <time>2010-10-23T13:52:01Z</time>
      </trkpt>
      <trkpt lat="45.11989" lon="5.23748">
        <ele>266.9</ele>
        <time>2010-10-23T13:52:02Z</time>
      </trkpt>
      <trkpt lat="45.11988" lon="5.23746">
        <ele>266.7</ele>
        <time>2010-10-23T13:52:03Z</time>
      </trkpt>
      <trkpt lat="45.11987" lon="5.23743">
        <ele>266.7</ele>
        <time>2010-10-23T13:52:04Z</time>
      </trkpt>
      <trkpt lat="45.11987" lon="5.23741">
        <ele>266.9</ele>
        <time>2010-10-23T13:52:05Z</time>
      </trkpt>
      <trkpt lat="45.11987" lon="5.23739">
        <ele>266.7</ele>
        <time>2010-10-23T13:52:05Z</time>
      </trkpt>
      <trkpt lat="45.11986" lon="5.23736">
        <ele>266.7</ele>
        <time>2010-10-23T13:52:07Z</time>
      </trkpt>
      <trkpt lat="45.11986" lon="5.23734">
        <ele>266.7</ele>
        <time>2010-10-23T13:52:08Z</time>
      </trkpt>
      <trkpt lat="45.11986" lon="5.23731">
        <ele>267</ele>
        <time>2010-10-23T13:52:09Z</time>
      </trkpt>
      <trkpt lat="45.11987" lon="5.23729">
        <ele>267</ele>
        <time>2010-10-23T13:52:10Z</time>
      </trkpt>
      <trkpt lat="45.11988" lon="5.23728">
        <ele>267.8</ele>
        <time>2010-10-23T13:52:11Z</time>
      </trkpt>
      <trkpt lat="45.11987" lon="5.23726">
        <ele>267.9</ele>
        <time>2010-10-23T13:52:12Z</time>
      </trkpt>
      <trkpt lat="45.11988" lon="5.23723">
        <ele>267.9</ele>
        <time>2010-10-23T13:52:14Z</time>
      </trkpt>
      <trkpt lat="45.11989" lon="5.2372">
        <ele>268.1</ele>
        <time>2010-10-23T13:52:15Z</time>
      </trkpt>
      <trkpt lat="45.11989" lon="5.23718">
        <ele>267.9</ele>
        <time>2010-10-23T13:52:16Z</time>
      </trkpt>
      <trkpt lat="45.11988" lon="5.23717">
        <ele>267.6</ele>
        <time>2010-10-23T13:52:17Z</time>
      </trkpt>
      <trkpt lat="45.11989" lon="5.23715">
        <ele>267.6</ele>
        <time>2010-10-23T13:52:18Z</time>
      </trkpt>
      <trkpt lat="45.11988" lon="5.23712">
        <ele>268</ele>
        <time>2010-10-23T13:52:19Z</time>
      </trkpt>
      <trkpt lat="45.11987" lon="5.23711">
        <ele>268.3</ele>
        <time>2010-10-23T13:52:20Z</time>
      </trkpt>
      <trkpt lat="45.11986" lon="5.23709">
        <ele>268.5</ele>
        <time>2010-10-23T13:52:22Z</time>
      </trkpt>
      <trkpt lat="45.11986" lon="5.23706">
        <ele>268.4</ele>
        <time>2010-10-23T13:52:23Z</time>
      </trkpt>
      <trkpt lat="45.11987" lon="5.23705">
        <ele>268.6</ele>
        <time>2010-10-23T13:52:24Z</time>
      </trkpt>
      <trkpt lat="45.11988" lon="5.23702">
        <ele>268.3</ele>
        <time>2010-10-23T13:52:25Z</time>
      </trkpt>
      <trkpt lat="45.11988" lon="5.237">
        <ele>268.9</ele>
        <time>2010-10-23T13:52:25Z</time>
      </trkpt>
      <trkpt lat="45.11987" lon="5.23696">
        <ele>269.4</ele>
        <time>2010-10-23T13:52:27Z</time>
      </trkpt>
      <trkpt lat="45.11989" lon="5.23693">
        <ele>269.5</ele>
        <time>2010-10-23T13:52:28Z</time>
      </trkpt>
      <trkpt lat="45.11989" lon="5.23691">
        <ele>269.9</ele>
        <time>2010-10-23T13:52:29Z</time>
      </trkpt>
      <trkpt lat="45.11989" lon="5.23689">
        <ele>269.7</ele>
        <time>2010-10-23T13:52:30Z</time>
      </trkpt>
      <trkpt lat="45.11989" lon="5.23686">
        <ele>268.8</ele>
        <time>2010-10-23T13:52:31Z</time>
      </trkpt>
      <trkpt lat="45.11989" lon="5.23685">
        <ele>269.3</ele>
        <time>2010-10-23T13:52:32Z</time>
      </trkpt>
      <trkpt lat="45.11989" lon="5.2368">
        <ele>269.3</ele>
        <time>2010-10-23T13:52:33Z</time>
      </trkpt>
      <trkpt lat="45.11985" lon="5.2368">
        <ele>269</ele>
        <time>2010-10-23T13:52:35Z</time>
      </trkpt>
      <trkpt lat="45.11985" lon="5.23678">
        <ele>269.7</ele>
        <time>2010-10-23T13:52:36Z</time>
      </trkpt>
      <trkpt lat="45.11986" lon="5.23676">
        <ele>269.5</ele>
        <time>2010-10-23T13:52:37Z</time>
      </trkpt>
      <trkpt lat="45.11988" lon="5.23675">
        <ele>270</ele>
        <time>2010-10-23T13:52:38Z</time>
      </trkpt>
      <trkpt lat="45.11989" lon="5.23673">
        <ele>270.1</ele>
        <time>2010-10-23T13:52:39Z</time>
      </trkpt>
      <trkpt lat="45.1199" lon="5.2367">
        <ele>271</ele>
        <time>2010-10-23T13:52:40Z</time>
      </trkpt>
      <trkpt lat="45.11988" lon="5.23667">
        <ele>271.3</ele>
        <time>2010-10-23T13:52:41Z</time>
      </trkpt>
      <trkpt lat="45.11989" lon="5.23666">
        <ele>271.4</ele>
        <time>2010-10-23T13:52:42Z</time>
      </trkpt>
      <trkpt lat="45.11989" lon="5.23664">
        <ele>271.7</ele>
        <time>2010-10-23T13:52:43Z</time>
      </trkpt>
      <trkpt lat="45.11987" lon="5.23661">
        <ele>272.4</ele>
        <time>2010-10-23T13:52:44Z</time>
      </trkpt>
      <trkpt lat="45.11986" lon="5.23659">
        <ele>272.6</ele>
        <time>2010-10-23T13:52:45Z</time>
      </trkpt>
      <trkpt lat="45.11985" lon="5.23656">
        <ele>273</ele>
        <time>2010-10-23T13:52:45Z</time>
      </trkpt>
      <trkpt lat="45.11985" lon="5.23655">
        <ele>273.3</ele>
        <time>2010-10-23T13:52:47Z</time>
      </trkpt>
      <trkpt lat="45.11984" lon="5.23652">
        <ele>273.7</ele>
        <time>2010-10-23T13:52:48Z</time>
      </trkpt>
      <trkpt lat="45.11982" lon="5.2365">
        <ele>273.2</ele>
        <time>2010-10-23T13:52:49Z</time>
      </trkpt>
      <trkpt lat="45.11981" lon="5.23648">
        <ele>273.3</ele>
        <time>2010-10-23T13:52:50Z</time>
      </trkpt>
      <trkpt lat="45.1198" lon="5.23646">
        <ele>273.2</ele>
        <time>2010-10-23T13:52:51Z</time>
      </trkpt>
      <trkpt lat="45.11979" lon="5.23644">
        <ele>273.3</ele>
        <time>2010-10-23T13:52:52Z</time>
      </trkpt>
      <trkpt lat="45.11979" lon="5.23642">
        <ele>273.2</ele>
        <time>2010-10-23T13:52:53Z</time>
      </trkpt>
      <trkpt lat="45.11978" lon="5.2364">
        <ele>273.2</ele>
        <time>2010-10-23T13:52:54Z</time>
      </trkpt>
      <trkpt lat="45.11976" lon="5.23638">
        <ele>273.2</ele>
        <time>2010-10-23T13:52:55Z</time>
      </trkpt>
      <trkpt lat="45.11975" lon="5.23636">
        <ele>273</ele>
        <time>2010-10-23T13:52:56Z</time>
      </trkpt>
      <trkpt lat="45.11973" lon="5.23632">
        <ele>273.1</ele>
        <time>2010-10-23T13:52:57Z</time>
      </trkpt>
      <trkpt lat="45.11972" lon="5.23631">
        <ele>272.9</ele>
        <time>2010-10-23T13:52:58Z</time>
      </trkpt>
      <trkpt lat="45.11971" lon="5.23628">
        <ele>273.1</ele>
        <time>2010-10-23T13:52:59Z</time>
      </trkpt>
      <trkpt lat="45.11971" lon="5.23626">
        <ele>273.2</ele>
        <time>2010-10-23T13:53:00Z</time>
      </trkpt>
      <trkpt lat="45.1197" lon="5.23623">
        <ele>273.4</ele>
        <time>2010-10-23T13:53:01Z</time>
      </trkpt>
      <trkpt lat="45.11969" lon="5.23621">
        <ele>273.8</ele>
        <time>2010-10-23T13:53:02Z</time>
      </trkpt>
      <trkpt lat="45.11968" lon="5.23619">
        <ele>273.9</ele>
        <time>2010-10-23T13:53:03Z</time>
      </trkpt>
      <trkpt lat="45.11967" lon="5.23617">
        <ele>273.3</ele>
        <time>2010-10-23T13:53:04Z</time>
      </trkpt>
      <trkpt lat="45.11966" lon="5.23614">
        <ele>272.4</ele>
        <time>2010-10-23T13:53:04Z</time>
      </trkpt>
      <trkpt lat="45.11966" lon="5.23611">
        <ele>272.3</ele>
        <time>2010-10-23T13:53:05Z</time>
      </trkpt>
      <trkpt lat="45.11965" lon="5.23608">
        <ele>271.9</ele>
        <time>2010-10-23T13:53:07Z</time>
      </trkpt>
      <trkpt lat="45.11964" lon="5.23606">
        <ele>271.8</ele>
        <time>2010-10-23T13:53:08Z</time>
      </trkpt>
      <trkpt lat="45.11963" lon="5.23604">
        <ele>272.2</ele>
        <time>2010-10-23T13:53:09Z</time>
      </trkpt>
      <trkpt lat="45.11961" lon="5.23601">
        <ele>272.1</ele>
        <time>2010-10-23T13:53:10Z</time>
      </trkpt>
      <trkpt lat="45.1196" lon="5.23599">
        <ele>272.1</ele>
        <time>2010-10-23T13:53:11Z</time>
      </trkpt>
      <trkpt lat="45.11958" lon="5.23597">
        <ele>272.2</ele>
        <time>2010-10-23T13:53:12Z</time>
      </trkpt>
      <trkpt lat="45.11957" lon="5.23594">
        <ele>272.1</ele>
        <time>2010-10-23T13:53:13Z</time>
      </trkpt>
      <trkpt lat="45.11955" lon="5.23592">
        <ele>272.4</ele>
        <time>2010-10-23T13:53:14Z</time>
      </trkpt>
      <trkpt lat="45.11953" lon="5.2359">
        <ele>273.1</ele>
        <time>2010-10-23T13:53:15Z</time>
      </trkpt>
      <trkpt lat="45.11951" lon="5.23587">
        <ele>273.5</ele>
        <time>2010-10-23T13:53:16Z</time>
      </trkpt>
      <trkpt lat="45.1195" lon="5.23583">
        <ele>273.7</ele>
        <time>2010-10-23T13:53:17Z</time>
      </trkpt>
      <trkpt lat="45.11949" lon="5.23579">
        <ele>273.5</ele>
        <time>2010-10-23T13:53:18Z</time>
      </trkpt>
      <trkpt lat="45.11948" lon="5.23576">
        <ele>273.2</ele>
        <time>2010-10-23T13:53:19Z</time>
      </trkpt>
      <trkpt lat="45.11947" lon="5.23573">
        <ele>273.2</ele>
        <time>2010-10-23T13:53:20Z</time>
      </trkpt>
      <trkpt lat="45.11945" lon="5.2357">
        <ele>273.2</ele>
        <time>2010-10-23T13:53:21Z</time>
      </trkpt>
      <trkpt lat="45.11944" lon="5.23568">
        <ele>272.8</ele>
        <time>2010-10-23T13:53:22Z</time>
      </trkpt>
      <trkpt lat="45.11943" lon="5.23567">
        <ele>272.1</ele>
        <time>2010-10-23T13:53:23Z</time>
      </trkpt>
      <trkpt lat="45.11942" lon="5.23565">
        <ele>272.3</ele>
        <time>2010-10-23T13:53:24Z</time>
      </trkpt>
      <trkpt lat="45.11941" lon="5.23562">
        <ele>272</ele>
        <time>2010-10-23T13:53:24Z</time>
      </trkpt>
      <trkpt lat="45.11938" lon="5.23559">
        <ele>272.3</ele>
        <time>2010-10-23T13:53:25Z</time>
      </trkpt>
      <trkpt lat="45.11937" lon="5.23557">
        <ele>272.2</ele>
        <time>2010-10-23T13:53:27Z</time>
      </trkpt>
      <trkpt lat="45.11936" lon="5.23556">
        <ele>271.7</ele>
        <time>2010-10-23T13:53:28Z</time>
      </trkpt>
      <trkpt lat="45.11934" lon="5.23553">
        <ele>271.5</ele>
        <time>2010-10-23T13:53:29Z</time>
      </trkpt>
      <trkpt lat="45.11934" lon="5.2355">
        <ele>272</ele>
        <time>2010-10-23T13:53:30Z</time>
      </trkpt>
      <trkpt lat="45.11932" lon="5.23547">
        <ele>271.4</ele>
        <time>2010-10-23T13:53:32Z</time>
      </trkpt>
      <trkpt lat="45.1193" lon="5.23544">
        <ele>272</ele>
        <time>2010-10-23T13:53:33Z</time>
      </trkpt>
      <trkpt lat="45.11929" lon="5.23542">
        <ele>271.8</ele>
        <time>2010-10-23T13:53:34Z</time>
      </trkpt>
      <trkpt lat="45.11928" lon="5.23539">
        <ele>271.1</ele>
        <time>2010-10-23T13:53:35Z</time>
      </trkpt>
      <trkpt lat="45.11926" lon="5.23537">
        <ele>271.2</ele>
        <time>2010-10-23T13:53:36Z</time>
      </trkpt>
      <trkpt lat="45.11925" lon="5.23535">
        <ele>271.7</ele>
        <time>2010-10-23T13:53:37Z</time>
      </trkpt>
      <trkpt lat="45.11924" lon="5.23533">
        <ele>272</ele>
        <time>2010-10-23T13:53:38Z</time>
      </trkpt>
      <trkpt lat="45.11923" lon="5.23532">
        <ele>273</ele>
        <time>2010-10-23T13:53:39Z</time>
      </trkpt>
      <trkpt lat="45.11922" lon="5.23531">
        <ele>273</ele>
        <time>2010-10-23T13:53:40Z</time>
      </trkpt>
      <trkpt lat="45.11921" lon="5.23528">
        <ele>272.5</ele>
        <time>2010-10-23T13:53:41Z</time>
      </trkpt>
      <trkpt lat="45.1192" lon="5.23526">
        <ele>272.2</ele>
        <time>2010-10-23T13:53:42Z</time>
      </trkpt>
      <trkpt lat="45.11918" lon="5.23525">
        <ele>272.1</ele>
        <time>2010-10-23T13:53:43Z</time>
      </trkpt>
      <trkpt lat="45.11917" lon="5.23523">
        <ele>272.3</ele>
        <time>2010-10-23T13:53:44Z</time>
      </trkpt>
      <trkpt lat="45.11917" lon="5.2352">
        <ele>272.6</ele>
        <time>2010-10-23T13:53:44Z</time>
      </trkpt>
      <trkpt lat="45.11916" lon="5.23518">
        <ele>272.6</ele>
        <time>2010-10-23T13:53:45Z</time>
      </trkpt>
      <trkpt lat="45.11916" lon="5.23516">
        <ele>273</ele>
        <time>2010-10-23T13:53:47Z</time>
      </trkpt>
      <trkpt lat="45.11915" lon="5.23514">
        <ele>272.9</ele>
        <time>2010-10-23T13:53:48Z</time>
      </trkpt>
      <trkpt lat="45.11914" lon="5.23511">
        <ele>273</ele>
        <time>2010-10-23T13:53:49Z</time>
      </trkpt>
      <trkpt lat="45.11914" lon="5.2351">
        <ele>273.2</ele>
        <time>2010-10-23T13:53:50Z</time>
      </trkpt>
      <trkpt lat="45.11914" lon="5.23508">
        <ele>272.9</ele>
        <time>2010-10-23T13:53:51Z</time>
      </trkpt>
      <trkpt lat="45.11913" lon="5.23506">
        <ele>272.6</ele>
        <time>2010-10-23T13:53:52Z</time>
      </trkpt>
      <trkpt lat="45.11912" lon="5.23505">
        <ele>272.2</ele>
        <time>2010-10-23T13:53:53Z</time>
      </trkpt>
      <trkpt lat="45.11911" lon="5.23503">
        <ele>272.1</ele>
        <time>2010-10-23T13:53:54Z</time>
      </trkpt>
      <trkpt lat="45.1191" lon="5.23502">
        <ele>272</ele>
        <time>2010-10-23T13:53:55Z</time>
      </trkpt>
      <trkpt lat="45.11909" lon="5.23499">
        <ele>272.3</ele>
        <time>2010-10-23T13:53:56Z</time>
      </trkpt>
      <trkpt lat="45.11909" lon="5.23498">
        <ele>272.4</ele>
        <time>2010-10-23T13:53:57Z</time>
      </trkpt>
      <trkpt lat="45.11909" lon="5.23496">
        <ele>272.6</ele>
        <time>2010-10-23T13:53:58Z</time>
      </trkpt>
      <trkpt lat="45.11909" lon="5.23495">
        <ele>273.2</ele>
        <time>2010-10-23T13:53:59Z</time>
      </trkpt>
      <trkpt lat="45.11909" lon="5.23496">
        <ele>272.8</ele>
        <time>2010-10-23T13:54:04Z</time>
      </trkpt>
      <trkpt lat="45.11908" lon="5.23495">
        <ele>272.4</ele>
        <time>2010-10-23T13:54:06Z</time>
      </trkpt>
      <trkpt lat="45.11908" lon="5.23495">
        <ele>272.6</ele>
        <time>2010-10-23T13:54:08Z</time>
      </trkpt>
      <trkpt lat="45.11908" lon="5.23494">
        <ele>273.2</ele>
        <time>2010-10-23T13:54:09Z</time>
      </trkpt>
      <trkpt lat="45.11908" lon="5.23494">
        <ele>273.3</ele>
        <time>2010-10-23T13:54:15Z</time>
      </trkpt>
      <trkpt lat="45.11908" lon="5.23489">
        <ele>273.5</ele>
        <time>2010-10-23T13:54:16Z</time>
      </trkpt>
      <trkpt lat="45.11909" lon="5.23488">
        <ele>273.2</ele>
        <time>2010-10-23T13:54:17Z</time>
      </trkpt>
      <trkpt lat="45.1191" lon="5.23486">
        <ele>273.1</ele>
        <time>2010-10-23T13:54:18Z</time>
      </trkpt>
      <trkpt lat="45.1191" lon="5.23482">
        <ele>273.3</ele>
        <time>2010-10-23T13:54:19Z</time>
      </trkpt>
      <trkpt lat="45.1191" lon="5.23479">
        <ele>272.3</ele>
        <time>2010-10-23T13:54:20Z</time>
      </trkpt>
      <trkpt lat="45.11909" lon="5.23477">
        <ele>271.7</ele>
        <time>2010-10-23T13:54:21Z</time>
      </trkpt>
      <trkpt lat="45.1191" lon="5.23473">
        <ele>272.1</ele>
        <time>2010-10-23T13:54:22Z</time>
      </trkpt>
      <trkpt lat="45.1191" lon="5.2347">
        <ele>272.5</ele>
        <time>2010-10-23T13:54:23Z</time>
      </trkpt>
      <trkpt lat="45.1191" lon="5.23468">
        <ele>272.9</ele>
        <time>2010-10-23T13:54:24Z</time>
      </trkpt>
      <trkpt lat="45.11909" lon="5.23466">
        <ele>272.6</ele>
        <time>2010-10-23T13:54:24Z</time>
      </trkpt>
      <trkpt lat="45.11909" lon="5.23464">
        <ele>273.1</ele>
        <time>2010-10-23T13:54:26Z</time>
      </trkpt>
      <trkpt lat="45.11909" lon="5.23461">
        <ele>273.7</ele>
        <time>2010-10-23T13:54:27Z</time>
      </trkpt>
      <trkpt lat="45.11909" lon="5.23459">
        <ele>273.7</ele>
        <time>2010-10-23T13:54:28Z</time>
      </trkpt>
      <trkpt lat="45.11909" lon="5.23456">
        <ele>273.9</ele>
        <time>2010-10-23T13:54:29Z</time>
      </trkpt>
      <trkpt lat="45.11909" lon="5.23454">
        <ele>273.9</ele>
        <time>2010-10-23T13:54:30Z</time>
      </trkpt>
      <trkpt lat="45.1191" lon="5.23451">
        <ele>274.1</ele>
        <time>2010-10-23T13:54:31Z</time>
      </trkpt>
      <trkpt lat="45.1191" lon="5.23448">
        <ele>274.5</ele>
        <time>2010-10-23T13:54:32Z</time>
      </trkpt>
      <trkpt lat="45.1191" lon="5.23446">
        <ele>274.3</ele>
        <time>2010-10-23T13:54:33Z</time>
      </trkpt>
      <trkpt lat="45.11911" lon="5.23444">
        <ele>274.5</ele>
        <time>2010-10-23T13:54:34Z</time>
      </trkpt>
      <trkpt lat="45.11912" lon="5.23441">
        <ele>275</ele>
        <time>2010-10-23T13:54:35Z</time>
      </trkpt>
      <trkpt lat="45.11911" lon="5.23439">
        <ele>275.2</ele>
        <time>2010-10-23T13:54:36Z</time>
      </trkpt>
      <trkpt lat="45.11911" lon="5.23437">
        <ele>275.2</ele>
        <time>2010-10-23T13:54:37Z</time>
      </trkpt>
      <trkpt lat="45.11911" lon="5.23435">
        <ele>275.8</ele>
        <time>2010-10-23T13:54:38Z</time>
      </trkpt>
      <trkpt lat="45.11912" lon="5.23435">
        <ele>275.8</ele>
        <time>2010-10-23T13:54:40Z</time>
      </trkpt>
      <trkpt lat="45.11912" lon="5.23433">
        <ele>275.3</ele>
        <time>2010-10-23T13:54:41Z</time>
      </trkpt>
      <trkpt lat="45.11912" lon="5.23431">
        <ele>276.3</ele>
        <time>2010-10-23T13:54:42Z</time>
      </trkpt>
      <trkpt lat="45.11912" lon="5.23426">
        <ele>277.4</ele>
        <time>2010-10-23T13:54:43Z</time>
      </trkpt>
      <trkpt lat="45.11912" lon="5.23424">
        <ele>278</ele>
        <time>2010-10-23T13:54:44Z</time>
      </trkpt>
      <trkpt lat="45.11913" lon="5.2342">
        <ele>279.6</ele>
        <time>2010-10-23T13:54:44Z</time>
      </trkpt>
      <trkpt lat="45.11914" lon="5.23418">
        <ele>279.7</ele>
        <time>2010-10-23T13:54:46Z</time>
      </trkpt>
      <trkpt lat="45.11915" lon="5.23416">
        <ele>280.4</ele>
        <time>2010-10-23T13:54:47Z</time>
      </trkpt>
      <trkpt lat="45.11916" lon="5.23414">
        <ele>280.7</ele>
        <time>2010-10-23T13:54:48Z</time>
      </trkpt>
      <trkpt lat="45.11915" lon="5.23411">
        <ele>281.1</ele>
        <time>2010-10-23T13:54:50Z</time>
      </trkpt>
      <trkpt lat="45.11915" lon="5.23411">
        <ele>281.2</ele>
        <time>2010-10-23T13:54:52Z</time>
      </trkpt>
      <trkpt lat="45.11913" lon="5.23411">
        <ele>281.3</ele>
        <time>2010-10-23T13:54:53Z</time>
      </trkpt>
      <trkpt lat="45.11912" lon="5.2341">
        <ele>281.7</ele>
        <time>2010-10-23T13:54:54Z</time>
      </trkpt>
      <trkpt lat="45.11911" lon="5.23408">
        <ele>282.4</ele>
        <time>2010-10-23T13:54:55Z</time>
      </trkpt>
      <trkpt lat="45.11911" lon="5.23406">
        <ele>283.1</ele>
        <time>2010-10-23T13:54:56Z</time>
      </trkpt>
      <trkpt lat="45.11911" lon="5.23404">
        <ele>283.1</ele>
        <time>2010-10-23T13:54:57Z</time>
      </trkpt>
      <trkpt lat="45.11911" lon="5.23403">
        <ele>283.3</ele>
        <time>2010-10-23T13:54:58Z</time>
      </trkpt>
      <trkpt lat="45.11911" lon="5.23402">
        <ele>283.4</ele>
        <time>2010-10-23T13:54:59Z</time>
      </trkpt>
      <trkpt lat="45.1191" lon="5.23401">
        <ele>283</ele>
        <time>2010-10-23T13:55:00Z</time>
      </trkpt>
      <trkpt lat="45.11909" lon="5.23399">
        <ele>283</ele>
        <time>2010-10-23T13:55:01Z</time>
      </trkpt>
      <trkpt lat="45.11909" lon="5.23397">
        <ele>283.3</ele>
        <time>2010-10-23T13:55:02Z</time>
      </trkpt>
      <trkpt lat="45.11909" lon="5.23396">
        <ele>283.7</ele>
        <time>2010-10-23T13:55:03Z</time>
      </trkpt>
      <trkpt lat="45.1191" lon="5.23394">
        <ele>284</ele>
        <time>2010-10-23T13:55:04Z</time>
      </trkpt>
      <trkpt lat="45.11911" lon="5.23394">
        <ele>283.9</ele>
        <time>2010-10-23T13:55:04Z</time>
      </trkpt>
      <trkpt lat="45.1191" lon="5.23392">
        <ele>284.1</ele>
        <time>2010-10-23T13:55:07Z</time>
      </trkpt>
      <trkpt lat="45.1191" lon="5.2339">
        <ele>284</ele>
        <time>2010-10-23T13:55:08Z</time>
      </trkpt>
      <trkpt lat="45.11909" lon="5.23389">
        <ele>284</ele>
        <time>2010-10-23T13:55:09Z</time>
      </trkpt>
      <trkpt lat="45.11909" lon="5.23388">
        <ele>283.8</ele>
        <time>2010-10-23T13:55:12Z</time>
      </trkpt>
      <trkpt lat="45.11909" lon="5.23387">
        <ele>283.8</ele>
        <time>2010-10-23T13:55:15Z</time>
      </trkpt>
      <trkpt lat="45.1191" lon="5.23386">
        <ele>283.7</ele>
        <time>2010-10-23T13:55:16Z</time>
      </trkpt>
      <trkpt lat="45.1191" lon="5.23386">
        <ele>283.7</ele>
        <time>2010-10-23T13:55:17Z</time>
      </trkpt>
      <trkpt lat="45.11911" lon="5.23384">
        <ele>284.2</ele>
        <time>2010-10-23T13:55:18Z</time>
      </trkpt>
      <trkpt lat="45.11912" lon="5.23383">
        <ele>284.6</ele>
        <time>2010-10-23T13:55:19Z</time>
      </trkpt>
      <trkpt lat="45.11912" lon="5.23381">
        <ele>284.5</ele>
        <time>2010-10-23T13:55:20Z</time>
      </trkpt>
      <trkpt lat="45.11914" lon="5.2338">
        <ele>284.9</ele>
        <time>2010-10-23T13:55:21Z</time>
      </trkpt>
      <trkpt lat="45.11915" lon="5.23378">
        <ele>285</ele>
        <time>2010-10-23T13:55:23Z</time>
      </trkpt>
      <trkpt lat="45.11915" lon="5.23375">
        <ele>285</ele>
        <time>2010-10-23T13:55:23Z</time>
      </trkpt>
      <trkpt lat="45.11915" lon="5.23373">
        <ele>284.6</ele>
        <time>2010-10-23T13:55:24Z</time>
      </trkpt>
      <trkpt lat="45.11914" lon="5.23372">
        <ele>285</ele>
        <time>2010-10-23T13:55:26Z</time>
      </trkpt>
      <trkpt lat="45.11915" lon="5.23369">
        <ele>285</ele>
        <time>2010-10-23T13:55:28Z</time>
      </trkpt>
      <trkpt lat="45.11914" lon="5.23366">
        <ele>284.9</ele>
        <time>2010-10-23T13:55:29Z</time>
      </trkpt>
      <trkpt lat="45.11914" lon="5.23366">
        <ele>284.8</ele>
        <time>2010-10-23T13:55:30Z</time>
      </trkpt>
      <trkpt lat="45.11913" lon="5.23365">
        <ele>285.3</ele>
        <time>2010-10-23T13:55:31Z</time>
      </trkpt>
      <trkpt lat="45.11912" lon="5.23365">
        <ele>285.5</ele>
        <time>2010-10-23T13:55:33Z</time>
      </trkpt>
      <trkpt lat="45.11911" lon="5.23365">
        <ele>285.3</ele>
        <time>2010-10-23T13:55:34Z</time>
      </trkpt>
      <trkpt lat="45.1191" lon="5.23365">
        <ele>285.2</ele>
        <time>2010-10-23T13:55:37Z</time>
      </trkpt>
      <trkpt lat="45.11908" lon="5.23364">
        <ele>285</ele>
        <time>2010-10-23T13:55:39Z</time>
      </trkpt>
      <trkpt lat="45.11905" lon="5.23363">
        <ele>286.3</ele>
        <time>2010-10-23T13:55:41Z</time>
      </trkpt>
      <trkpt lat="45.11905" lon="5.23363">
        <ele>286.2</ele>
        <time>2010-10-23T13:55:43Z</time>
      </trkpt>
      <trkpt lat="45.119" lon="5.23361">
        <ele>287.6</ele>
        <time>2010-10-23T13:55:43Z</time>
      </trkpt>
      <trkpt lat="45.119" lon="5.23362">
        <ele>287.4</ele>
        <time>2010-10-23T13:55:46Z</time>
      </trkpt>
      <trkpt lat="45.11898" lon="5.23361">
        <ele>287.6</ele>
        <time>2010-10-23T13:55:48Z</time>
      </trkpt>
      <trkpt lat="45.11897" lon="5.23361">
        <ele>287.9</ele>
        <time>2010-10-23T13:55:50Z</time>
      </trkpt>
      <trkpt lat="45.11896" lon="5.23361">
        <ele>287.9</ele>
        <time>2010-10-23T13:55:53Z</time>
      </trkpt>
      <trkpt lat="45.11895" lon="5.23361">
        <ele>287.9</ele>
        <time>2010-10-23T13:55:54Z</time>
      </trkpt>
      <trkpt lat="45.11879" lon="5.23354">
        <ele>288.8</ele>
        <time>2010-10-23T13:56:03Z</time>
      </trkpt>
      <trkpt lat="45.11879" lon="5.23354">
        <ele>288.4</ele>
        <time>2010-10-23T13:56:04Z</time>
      </trkpt>
      <trkpt lat="45.1188" lon="5.23352">
        <ele>288.6</ele>
        <time>2010-10-23T13:56:06Z</time>
      </trkpt>
      <trkpt lat="45.1188" lon="5.23352">
        <ele>288.9</ele>
        <time>2010-10-23T13:56:23Z</time>
      </trkpt>
      <trkpt lat="45.11878" lon="5.23353">
        <ele>289.3</ele>
        <time>2010-10-23T13:56:25Z</time>
      </trkpt>
      <trkpt lat="45.11878" lon="5.23353">
        <ele>288.8</ele>
        <time>2010-10-23T13:56:30Z</time>
      </trkpt>
      <trkpt lat="45.11879" lon="5.23352">
        <ele>288.2</ele>
        <time>2010-10-23T13:56:31Z</time>
      </trkpt>
      <trkpt lat="45.1188" lon="5.23351">
        <ele>287.9</ele>
        <time>2010-10-23T13:56:32Z</time>
      </trkpt>
      <trkpt lat="45.1188" lon="5.23349">
        <ele>287.1</ele>
        <time>2010-10-23T13:56:33Z</time>
      </trkpt>
      <trkpt lat="45.1188" lon="5.23348">
        <ele>286.8</ele>
        <time>2010-10-23T13:56:34Z</time>
      </trkpt>
      <trkpt lat="45.11879" lon="5.23346">
        <ele>286.7</ele>
        <time>2010-10-23T13:56:35Z</time>
      </trkpt>
      <trkpt lat="45.11879" lon="5.23344">
        <ele>286.4</ele>
        <time>2010-10-23T13:56:36Z</time>
      </trkpt>
      <trkpt lat="45.11878" lon="5.23342">
        <ele>287.1</ele>
        <time>2010-10-23T13:56:37Z</time>
      </trkpt>
      <trkpt lat="45.11877" lon="5.2334">
        <ele>287.5</ele>
        <time>2010-10-23T13:56:38Z</time>
      </trkpt>
      <trkpt lat="45.11876" lon="5.23338">
        <ele>287.5</ele>
        <time>2010-10-23T13:56:39Z</time>
      </trkpt>
      <trkpt lat="45.11876" lon="5.23336">
        <ele>287.3</ele>
        <time>2010-10-23T13:56:40Z</time>
      </trkpt>
      <trkpt lat="45.11875" lon="5.23335">
        <ele>287.4</ele>
        <time>2010-10-23T13:56:41Z</time>
      </trkpt>
      <trkpt lat="45.11874" lon="5.23333">
        <ele>287.6</ele>
        <time>2010-10-23T13:56:42Z</time>
      </trkpt>
      <trkpt lat="45.11873" lon="5.23331">
        <ele>287.5</ele>
        <time>2010-10-23T13:56:43Z</time>
      </trkpt>
      <trkpt lat="45.11873" lon="5.2333">
        <ele>287.5</ele>
        <time>2010-10-23T13:56:43Z</time>
      </trkpt>
      <trkpt lat="45.11872" lon="5.23328">
        <ele>287.8</ele>
        <time>2010-10-23T13:56:45Z</time>
      </trkpt>
      <trkpt lat="45.11872" lon="5.23326">
        <ele>287.8</ele>
        <time>2010-10-23T13:56:46Z</time>
      </trkpt>
      <trkpt lat="45.11872" lon="5.23324">
        <ele>287.8</ele>
        <time>2010-10-23T13:56:47Z</time>
      </trkpt>
      <trkpt lat="45.11872" lon="5.23321">
        <ele>288.2</ele>
        <time>2010-10-23T13:56:48Z</time>
      </trkpt>
      <trkpt lat="45.11872" lon="5.23319">
        <ele>288.4</ele>
        <time>2010-10-23T13:56:49Z</time>
      </trkpt>
      <trkpt lat="45.11872" lon="5.23318">
        <ele>288.3</ele>
        <time>2010-10-23T13:56:50Z</time>
      </trkpt>
      <trkpt lat="45.11872" lon="5.23315">
        <ele>288.4</ele>
        <time>2010-10-23T13:56:51Z</time>
      </trkpt>
      <trkpt lat="45.11872" lon="5.23312">
        <ele>288.4</ele>
        <time>2010-10-23T13:56:52Z</time>
      </trkpt>
      <trkpt lat="45.11872" lon="5.2331">
        <ele>288.6</ele>
        <time>2010-10-23T13:56:53Z</time>
      </trkpt>
      <trkpt lat="45.11872" lon="5.23308">
        <ele>288.6</ele>
        <time>2010-10-23T13:56:54Z</time>
      </trkpt>
      <trkpt lat="45.11877" lon="5.23308">
        <ele>289</ele>
        <time>2010-10-23T13:56:55Z</time>
      </trkpt>
      <trkpt lat="45.11878" lon="5.23307">
        <ele>289</ele>
        <time>2010-10-23T13:56:56Z</time>
      </trkpt>
      <trkpt lat="45.11878" lon="5.23306">
        <ele>289.5</ele>
        <time>2010-10-23T13:57:03Z</time>
      </trkpt>
      <trkpt lat="45.11877" lon="5.23307">
        <ele>288.9</ele>
        <time>2010-10-23T13:57:05Z</time>
      </trkpt>
      <trkpt lat="45.11877" lon="5.23307">
        <ele>288.9</ele>
        <time>2010-10-23T13:57:11Z</time>
      </trkpt>
      <trkpt lat="45.11877" lon="5.23306">
        <ele>288.9</ele>
        <time>2010-10-23T13:57:58Z</time>
      </trkpt>
      <trkpt lat="45.11875" lon="5.23305">
        <ele>289.1</ele>
        <time>2010-10-23T13:57:59Z</time>
      </trkpt>
      <trkpt lat="45.11875" lon="5.23305">
        <ele>289.2</ele>
        <time>2010-10-23T13:58:05Z</time>
      </trkpt>
      <trkpt lat="45.11875" lon="5.23306">
        <ele>289.5</ele>
        <time>2010-10-23T13:58:48Z</time>
      </trkpt>
      <trkpt lat="45.11874" lon="5.23308">
        <ele>289</ele>
        <time>2010-10-23T13:58:49Z</time>
      </trkpt>
      <trkpt lat="45.11874" lon="5.23312">
        <ele>290.3</ele>
        <time>2010-10-23T13:58:50Z</time>
      </trkpt>
      <trkpt lat="45.11874" lon="5.23313">
        <ele>290</ele>
        <time>2010-10-23T13:58:51Z</time>
      </trkpt>
      <trkpt lat="45.11874" lon="5.23316">
        <ele>290.4</ele>
        <time>2010-10-23T13:58:52Z</time>
      </trkpt>
      <trkpt lat="45.11874" lon="5.23318">
        <ele>290.4</ele>
        <time>2010-10-23T13:58:53Z</time>
      </trkpt>
      <trkpt lat="45.11875" lon="5.2332">
        <ele>290.1</ele>
        <time>2010-10-23T13:58:54Z</time>
      </trkpt>
      <trkpt lat="45.11876" lon="5.23322">
        <ele>290</ele>
        <time>2010-10-23T13:58:55Z</time>
      </trkpt>
      <trkpt lat="45.11876" lon="5.23323">
        <ele>289.9</ele>
        <time>2010-10-23T13:58:56Z</time>
      </trkpt>
      <trkpt lat="45.11877" lon="5.23325">
        <ele>289.6</ele>
        <time>2010-10-23T13:58:57Z</time>
      </trkpt>
      <trkpt lat="45.11878" lon="5.23326">
        <ele>289.7</ele>
        <time>2010-10-23T13:58:58Z</time>
      </trkpt>
      <trkpt lat="45.11878" lon="5.23328">
        <ele>289.1</ele>
        <time>2010-10-23T13:58:59Z</time>
      </trkpt>
      <trkpt lat="45.11879" lon="5.23331">
        <ele>288.9</ele>
        <time>2010-10-23T13:59:00Z</time>
      </trkpt>
      <trkpt lat="45.11879" lon="5.23333">
        <ele>289</ele>
        <time>2010-10-23T13:59:01Z</time>
      </trkpt>
      <trkpt lat="45.11879" lon="5.23334">
        <ele>289.4</ele>
        <time>2010-10-23T13:59:02Z</time>
      </trkpt>
      <trkpt lat="45.1188" lon="5.23336">
        <ele>289.4</ele>
        <time>2010-10-23T13:59:02Z</time>
      </trkpt>
      <trkpt lat="45.1188" lon="5.23337">
        <ele>289.4</ele>
        <time>2010-10-23T13:59:04Z</time>
      </trkpt>
      <trkpt lat="45.1188" lon="5.23339">
        <ele>289.4</ele>
        <time>2010-10-23T13:59:05Z</time>
      </trkpt>
      <trkpt lat="45.11881" lon="5.23341">
        <ele>289.2</ele>
        <time>2010-10-23T13:59:06Z</time>
      </trkpt>
      <trkpt lat="45.11881" lon="5.23342">
        <ele>289.4</ele>
        <time>2010-10-23T13:59:07Z</time>
      </trkpt>
      <trkpt lat="45.11882" lon="5.23345">
        <ele>290</ele>
        <time>2010-10-23T13:59:08Z</time>
      </trkpt>
      <trkpt lat="45.11882" lon="5.23346">
        <ele>290.1</ele>
        <time>2010-10-23T13:59:09Z</time>
      </trkpt>
      <trkpt lat="45.11882" lon="5.23348">
        <ele>289.9</ele>
        <time>2010-10-23T13:59:10Z</time>
      </trkpt>
      <trkpt lat="45.11883" lon="5.23349">
        <ele>289.8</ele>
        <time>2010-10-23T13:59:11Z</time>
      </trkpt>
      <trkpt lat="45.11883" lon="5.23351">
        <ele>289.5</ele>
        <time>2010-10-23T13:59:12Z</time>
      </trkpt>
      <trkpt lat="45.11881" lon="5.23353">
        <ele>288.8</ele>
        <time>2010-10-23T13:59:13Z</time>
      </trkpt>
      <trkpt lat="45.1188" lon="5.23353">
        <ele>288.9</ele>
        <time>2010-10-23T13:59:14Z</time>
      </trkpt>
      <trkpt lat="45.11879" lon="5.23354">
        <ele>288.9</ele>
        <time>2010-10-23T13:59:15Z</time>
      </trkpt>
      <trkpt lat="45.11879" lon="5.23355">
        <ele>289</ele>
        <time>2010-10-23T13:59:16Z</time>
      </trkpt>
      <trkpt lat="45.1188" lon="5.23358">
        <ele>289.4</ele>
        <time>2010-10-23T13:59:18Z</time>
      </trkpt>
      <trkpt lat="45.1188" lon="5.23357">
        <ele>289.3</ele>
        <time>2010-10-23T13:59:19Z</time>
      </trkpt>
      <trkpt lat="45.11881" lon="5.23359">
        <ele>289</ele>
        <time>2010-10-23T13:59:21Z</time>
      </trkpt>
      <trkpt lat="45.11883" lon="5.23359">
        <ele>288.8</ele>
        <time>2010-10-23T13:59:24Z</time>
      </trkpt>
      <trkpt lat="45.11884" lon="5.23359">
        <ele>288.6</ele>
        <time>2010-10-23T13:59:26Z</time>
      </trkpt>
      <trkpt lat="45.11884" lon="5.23359">
        <ele>288.6</ele>
        <time>2010-10-23T13:59:29Z</time>
      </trkpt>
      <trkpt lat="45.11885" lon="5.2336">
        <ele>288.7</ele>
        <time>2010-10-23T13:59:30Z</time>
      </trkpt>
      <trkpt lat="45.11885" lon="5.2336">
        <ele>288.8</ele>
        <time>2010-10-23T13:59:36Z</time>
      </trkpt>
      <trkpt lat="45.11887" lon="5.23358">
        <ele>288.7</ele>
        <time>2010-10-23T13:59:37Z</time>
      </trkpt>
      <trkpt lat="45.11886" lon="5.23357">
        <ele>288.6</ele>
        <time>2010-10-23T13:59:39Z</time>
      </trkpt>
      <trkpt lat="45.11887" lon="5.23359">
        <ele>288.7</ele>
        <time>2010-10-23T13:59:40Z</time>
      </trkpt>
      <trkpt lat="45.11889" lon="5.23361">
        <ele>289</ele>
        <time>2010-10-23T13:59:41Z</time>
      </trkpt>
      <trkpt lat="45.1189" lon="5.23361">
        <ele>288.9</ele>
        <time>2010-10-23T13:59:42Z</time>
      </trkpt>
      <trkpt lat="45.1189" lon="5.23362">
        <ele>288.9</ele>
        <time>2010-10-23T13:59:44Z</time>
      </trkpt>
      <trkpt lat="45.1189" lon="5.23361">
        <ele>289.2</ele>
        <time>2010-10-23T13:59:49Z</time>
      </trkpt>
      <trkpt lat="45.11894" lon="5.2336">
        <ele>288.2</ele>
        <time>2010-10-23T13:59:59Z</time>
      </trkpt>
      <trkpt lat="45.11895" lon="5.23361">
        <ele>287.7</ele>
        <time>2010-10-23T14:00:00Z</time>
      </trkpt>
      <trkpt lat="45.11899" lon="5.23363">
        <ele>287.2</ele>
        <time>2010-10-23T14:00:01Z</time>
      </trkpt>
      <trkpt lat="45.11902" lon="5.23363">
        <ele>286.9</ele>
        <time>2010-10-23T14:00:01Z</time>
      </trkpt>
      <trkpt lat="45.11903" lon="5.23363">
        <ele>287.1</ele>
        <time>2010-10-23T14:00:02Z</time>
      </trkpt>
      <trkpt lat="45.11906" lon="5.23362">
        <ele>288</ele>
        <time>2010-10-23T14:00:04Z</time>
      </trkpt>
      <trkpt lat="45.11907" lon="5.23361">
        <ele>288.1</ele>
        <time>2010-10-23T14:00:05Z</time>
      </trkpt>
      <trkpt lat="45.1191" lon="5.2336">
        <ele>287.8</ele>
        <time>2010-10-23T14:00:07Z</time>
      </trkpt>
      <trkpt lat="45.11912" lon="5.23358">
        <ele>289.1</ele>
        <time>2010-10-23T14:00:09Z</time>
      </trkpt>
      <trkpt lat="45.11912" lon="5.23357">
        <ele>289.1</ele>
        <time>2010-10-23T14:00:10Z</time>
      </trkpt>
      <trkpt lat="45.11914" lon="5.23356">
        <ele>289.3</ele>
        <time>2010-10-23T14:00:11Z</time>
      </trkpt>
      <trkpt lat="45.11915" lon="5.23355">
        <ele>288.8</ele>
        <time>2010-10-23T14:00:12Z</time>
      </trkpt>
      <trkpt lat="45.11914" lon="5.23352">
        <ele>289.2</ele>
        <time>2010-10-23T14:00:13Z</time>
      </trkpt>
      <trkpt lat="45.11915" lon="5.2335">
        <ele>289.2</ele>
        <time>2010-10-23T14:00:14Z</time>
      </trkpt>
      <trkpt lat="45.11915" lon="5.23348">
        <ele>289.7</ele>
        <time>2010-10-23T14:00:15Z</time>
      </trkpt>
      <trkpt lat="45.11915" lon="5.23346">
        <ele>290.4</ele>
        <time>2010-10-23T14:00:16Z</time>
      </trkpt>
      <trkpt lat="45.11915" lon="5.23344">
        <ele>290.1</ele>
        <time>2010-10-23T14:00:17Z</time>
      </trkpt>
      <trkpt lat="45.11915" lon="5.23341">
        <ele>289.7</ele>
        <time>2010-10-23T14:00:18Z</time>
      </trkpt>
      <trkpt lat="45.11915" lon="5.23338">
        <ele>289.8</ele>
        <time>2010-10-23T14:00:19Z</time>
      </trkpt>
      <trkpt lat="45.11916" lon="5.23335">
        <ele>290.2</ele>
        <time>2010-10-23T14:00:20Z</time>
      </trkpt>
      <trkpt lat="45.11916" lon="5.23332">
        <ele>290.6</ele>
        <time>2010-10-23T14:00:21Z</time>
      </trkpt>
      <trkpt lat="45.11916" lon="5.2333">
        <ele>290.6</ele>
        <time>2010-10-23T14:00:21Z</time>
      </trkpt>
      <trkpt lat="45.11917" lon="5.23328">
        <ele>290.6</ele>
        <time>2010-10-23T14:00:22Z</time>
      </trkpt>
      <trkpt lat="45.11917" lon="5.23326">
        <ele>290.3</ele>
        <time>2010-10-23T14:00:24Z</time>
      </trkpt>
      <trkpt lat="45.11918" lon="5.23324">
        <ele>290.6</ele>
        <time>2010-10-23T14:00:25Z</time>
      </trkpt>
      <trkpt lat="45.11918" lon="5.23322">
        <ele>290.6</ele>
        <time>2010-10-23T14:00:26Z</time>
      </trkpt>
      <trkpt lat="45.11919" lon="5.2332">
        <ele>290.1</ele>
        <time>2010-10-23T14:00:27Z</time>
      </trkpt>
      <trkpt lat="45.11919" lon="5.23317">
        <ele>289.9</ele>
        <time>2010-10-23T14:00:28Z</time>
      </trkpt>
      <trkpt lat="45.11919" lon="5.23315">
        <ele>289.4</ele>
        <time>2010-10-23T14:00:29Z</time>
      </trkpt>
      <trkpt lat="45.1192" lon="5.23313">
        <ele>289.9</ele>
        <time>2010-10-23T14:00:30Z</time>
      </trkpt>
      <trkpt lat="45.1192" lon="5.23311">
        <ele>289.9</ele>
        <time>2010-10-23T14:00:31Z</time>
      </trkpt>
      <trkpt lat="45.1192" lon="5.2331">
        <ele>288.6</ele>
        <time>2010-10-23T14:00:32Z</time>
      </trkpt>
      <trkpt lat="45.1192" lon="5.23308">
        <ele>288.5</ele>
        <time>2010-10-23T14:00:33Z</time>
      </trkpt>
      <trkpt lat="45.1192" lon="5.23306">
        <ele>288.1</ele>
        <time>2010-10-23T14:00:34Z</time>
      </trkpt>
      <trkpt lat="45.1192" lon="5.23304">
        <ele>288.2</ele>
        <time>2010-10-23T14:00:35Z</time>
      </trkpt>
      <trkpt lat="45.1192" lon="5.23302">
        <ele>288.4</ele>
        <time>2010-10-23T14:00:36Z</time>
      </trkpt>
      <trkpt lat="45.1192" lon="5.23299">
        <ele>288.9</ele>
        <time>2010-10-23T14:00:37Z</time>
      </trkpt>
      <trkpt lat="45.11921" lon="5.23296">
        <ele>288</ele>
        <time>2010-10-23T14:00:38Z</time>
      </trkpt>
      <trkpt lat="45.11921" lon="5.23294">
        <ele>286.9</ele>
        <time>2010-10-23T14:00:39Z</time>
      </trkpt>
      <trkpt lat="45.11921" lon="5.23292">
        <ele>287.1</ele>
        <time>2010-10-23T14:00:40Z</time>
      </trkpt>
      <trkpt lat="45.11922" lon="5.23291">
        <ele>286.8</ele>
        <time>2010-10-23T14:00:41Z</time>
      </trkpt>
      <trkpt lat="45.11921" lon="5.23288">
        <ele>288.1</ele>
        <time>2010-10-23T14:00:42Z</time>
      </trkpt>
      <trkpt lat="45.11921" lon="5.23286">
        <ele>288.2</ele>
        <time>2010-10-23T14:00:44Z</time>
      </trkpt>
      <trkpt lat="45.11921" lon="5.23285">
        <ele>287.8</ele>
        <time>2010-10-23T14:00:45Z</time>
      </trkpt>
      <trkpt lat="45.11921" lon="5.23283">
        <ele>288</ele>
        <time>2010-10-23T14:00:46Z</time>
      </trkpt>
      <trkpt lat="45.11921" lon="5.23281">
        <ele>288.2</ele>
        <time>2010-10-23T14:00:47Z</time>
      </trkpt>
      <trkpt lat="45.11921" lon="5.23279">
        <ele>288.2</ele>
        <time>2010-10-23T14:00:48Z</time>
      </trkpt>
      <trkpt lat="45.1192" lon="5.23277">
        <ele>289.1</ele>
        <time>2010-10-23T14:00:49Z</time>
      </trkpt>
      <trkpt lat="45.11921" lon="5.23275">
        <ele>289.8</ele>
        <time>2010-10-23T14:00:50Z</time>
      </trkpt>
      <trkpt lat="45.1192" lon="5.23273">
        <ele>290.2</ele>
        <time>2010-10-23T14:00:51Z</time>
      </trkpt>
      <trkpt lat="45.1192" lon="5.23271">
        <ele>291</ele>
        <time>2010-10-23T14:00:52Z</time>
      </trkpt>
      <trkpt lat="45.1192" lon="5.23269">
        <ele>291.1</ele>
        <time>2010-10-23T14:00:53Z</time>
      </trkpt>
      <trkpt lat="45.1192" lon="5.23268">
        <ele>291.3</ele>
        <time>2010-10-23T14:00:54Z</time>
      </trkpt>
      <trkpt lat="45.11921" lon="5.23266">
        <ele>291.6</ele>
        <time>2010-10-23T14:00:55Z</time>
      </trkpt>
      <trkpt lat="45.11921" lon="5.23264">
        <ele>291.7</ele>
        <time>2010-10-23T14:00:56Z</time>
      </trkpt>
      <trkpt lat="45.1192" lon="5.23262">
        <ele>292</ele>
        <time>2010-10-23T14:00:57Z</time>
      </trkpt>
      <trkpt lat="45.1192" lon="5.2326">
        <ele>292.2</ele>
        <time>2010-10-23T14:00:58Z</time>
      </trkpt>
      <trkpt lat="45.1192" lon="5.23259">
        <ele>292.2</ele>
        <time>2010-10-23T14:00:59Z</time>
      </trkpt>
      <trkpt lat="45.1192" lon="5.23257">
        <ele>292.3</ele>
        <time>2010-10-23T14:01:00Z</time>
      </trkpt>
      <trkpt lat="45.1192" lon="5.23255">
        <ele>292.3</ele>
        <time>2010-10-23T14:01:01Z</time>
      </trkpt>
      <trkpt lat="45.1192" lon="5.23253">
        <ele>292.3</ele>
        <time>2010-10-23T14:01:01Z</time>
      </trkpt>
      <trkpt lat="45.1192" lon="5.23251">
        <ele>292.3</ele>
        <time>2010-10-23T14:01:03Z</time>
      </trkpt>
      <trkpt lat="45.1192" lon="5.2325">
        <ele>292.4</ele>
        <time>2010-10-23T14:01:04Z</time>
      </trkpt>
      <trkpt lat="45.1192" lon="5.23248">
        <ele>292.5</ele>
        <time>2010-10-23T14:01:05Z</time>
      </trkpt>
      <trkpt lat="45.1192" lon="5.23246">
        <ele>292.6</ele>
        <time>2010-10-23T14:01:06Z</time>
      </trkpt>
      <trkpt lat="45.1192" lon="5.23244">
        <ele>292.4</ele>
        <time>2010-10-23T14:01:07Z</time>
      </trkpt>
      <trkpt lat="45.1192" lon="5.23243">
        <ele>292.3</ele>
        <time>2010-10-23T14:01:08Z</time>
      </trkpt>
      <trkpt lat="45.11921" lon="5.2324">
        <ele>292.6</ele>
        <time>2010-10-23T14:01:09Z</time>
      </trkpt>
      <trkpt lat="45.11921" lon="5.23238">
        <ele>293.7</ele>
        <time>2010-10-23T14:01:10Z</time>
      </trkpt>
      <trkpt lat="45.11922" lon="5.23237">
        <ele>293.9</ele>
        <time>2010-10-23T14:01:11Z</time>
      </trkpt>
      <trkpt lat="45.11922" lon="5.23235">
        <ele>294.1</ele>
        <time>2010-10-23T14:01:12Z</time>
      </trkpt>
      <trkpt lat="45.11923" lon="5.23232">
        <ele>294.9</ele>
        <time>2010-10-23T14:01:13Z</time>
      </trkpt>
      <trkpt lat="45.11923" lon="5.2323">
        <ele>295.6</ele>
        <time>2010-10-23T14:01:14Z</time>
      </trkpt>
      <trkpt lat="45.11922" lon="5.23228">
        <ele>295.9</ele>
        <time>2010-10-23T14:01:15Z</time>
      </trkpt>
      <trkpt lat="45.11922" lon="5.23227">
        <ele>296.2</ele>
        <time>2010-10-23T14:01:16Z</time>
      </trkpt>
      <trkpt lat="45.11922" lon="5.23226">
        <ele>296.4</ele>
        <time>2010-10-23T14:01:17Z</time>
      </trkpt>
      <trkpt lat="45.11921" lon="5.23225">
        <ele>296.7</ele>
        <time>2010-10-23T14:01:18Z</time>
      </trkpt>
      <trkpt lat="45.11922" lon="5.23223">
        <ele>296.9</ele>
        <time>2010-10-23T14:01:19Z</time>
      </trkpt>
      <trkpt lat="45.11922" lon="5.23222">
        <ele>295.6</ele>
        <time>2010-10-23T14:01:20Z</time>
      </trkpt>
      <trkpt lat="45.11922" lon="5.23221">
        <ele>295.1</ele>
        <time>2010-10-23T14:01:21Z</time>
      </trkpt>
      <trkpt lat="45.11922" lon="5.2322">
        <ele>295.1</ele>
        <time>2010-10-23T14:01:21Z</time>
      </trkpt>
      <trkpt lat="45.11922" lon="5.23219">
        <ele>294.6</ele>
        <time>2010-10-23T14:01:23Z</time>
      </trkpt>
      <trkpt lat="45.11921" lon="5.23217">
        <ele>294.8</ele>
        <time>2010-10-23T14:01:24Z</time>
      </trkpt>
      <trkpt lat="45.11922" lon="5.23216">
        <ele>294.8</ele>
        <time>2010-10-23T14:01:25Z</time>
      </trkpt>
      <trkpt lat="45.11922" lon="5.23214">
        <ele>295</ele>
        <time>2010-10-23T14:01:26Z</time>
      </trkpt>
      <trkpt lat="45.11923" lon="5.23213">
        <ele>295.5</ele>
        <time>2010-10-23T14:01:27Z</time>
      </trkpt>
      <trkpt lat="45.11923" lon="5.23211">
        <ele>295.4</ele>
        <time>2010-10-23T14:01:28Z</time>
      </trkpt>
      <trkpt lat="45.11923" lon="5.2321">
        <ele>295.3</ele>
        <time>2010-10-23T14:01:29Z</time>
      </trkpt>
      <trkpt lat="45.11924" lon="5.23208">
        <ele>295.6</ele>
        <time>2010-10-23T14:01:30Z</time>
      </trkpt>
      <trkpt lat="45.11924" lon="5.23206">
        <ele>295.6</ele>
        <time>2010-10-23T14:01:31Z</time>
      </trkpt>
      <trkpt lat="45.11925" lon="5.23204">
        <ele>295</ele>
        <time>2010-10-23T14:01:32Z</time>
      </trkpt>
      <trkpt lat="45.11925" lon="5.23202">
        <ele>295.1</ele>
        <time>2010-10-23T14:01:33Z</time>
      </trkpt>
      <trkpt lat="45.11925" lon="5.23201">
        <ele>296.1</ele>
        <time>2010-10-23T14:01:34Z</time>
      </trkpt>
      <trkpt lat="45.11925" lon="5.23199">
        <ele>297.9</ele>
        <time>2010-10-23T14:01:35Z</time>
      </trkpt>
      <trkpt lat="45.11925" lon="5.23196">
        <ele>297.8</ele>
        <time>2010-10-23T14:01:36Z</time>
      </trkpt>
      <trkpt lat="45.11925" lon="5.23194">
        <ele>297.3</ele>
        <time>2010-10-23T14:01:37Z</time>
      </trkpt>
      <trkpt lat="45.11925" lon="5.23192">
        <ele>297.2</ele>
        <time>2010-10-23T14:01:38Z</time>
      </trkpt>
      <trkpt lat="45.11925" lon="5.23191">
        <ele>297</ele>
        <time>2010-10-23T14:01:39Z</time>
      </trkpt>
      <trkpt lat="45.11925" lon="5.2319">
        <ele>297</ele>
        <time>2010-10-23T14:01:40Z</time>
      </trkpt>
      <trkpt lat="45.11926" lon="5.23188">
        <ele>296.8</ele>
        <time>2010-10-23T14:01:41Z</time>
      </trkpt>
      <trkpt lat="45.11926" lon="5.23187">
        <ele>296.8</ele>
        <time>2010-10-23T14:01:41Z</time>
      </trkpt>
      <trkpt lat="45.11926" lon="5.23185">
        <ele>297</ele>
        <time>2010-10-23T14:01:43Z</time>
      </trkpt>
      <trkpt lat="45.11926" lon="5.23183">
        <ele>297.2</ele>
        <time>2010-10-23T14:01:44Z</time>
      </trkpt>
      <trkpt lat="45.11926" lon="5.23181">
        <ele>297.7</ele>
        <time>2010-10-23T14:01:45Z</time>
      </trkpt>
      <trkpt lat="45.11927" lon="5.2318">
        <ele>298</ele>
        <time>2010-10-23T14:01:46Z</time>
      </trkpt>
      <trkpt lat="45.11929" lon="5.23178">
        <ele>298</ele>
        <time>2010-10-23T14:01:47Z</time>
      </trkpt>
      <trkpt lat="45.1193" lon="5.23176">
        <ele>298.3</ele>
        <time>2010-10-23T14:01:48Z</time>
      </trkpt>
      <trkpt lat="45.1193" lon="5.23174">
        <ele>298.6</ele>
        <time>2010-10-23T14:01:49Z</time>
      </trkpt>
      <trkpt lat="45.1193" lon="5.23172">
        <ele>298.7</ele>
        <time>2010-10-23T14:01:50Z</time>
      </trkpt>
      <trkpt lat="45.1193" lon="5.2317">
        <ele>298.4</ele>
        <time>2010-10-23T14:01:51Z</time>
      </trkpt>
      <trkpt lat="45.11929" lon="5.23169">
        <ele>299</ele>
        <time>2010-10-23T14:01:52Z</time>
      </trkpt>
      <trkpt lat="45.11928" lon="5.23167">
        <ele>299.6</ele>
        <time>2010-10-23T14:01:53Z</time>
      </trkpt>
      <trkpt lat="45.11928" lon="5.23166">
        <ele>300.1</ele>
        <time>2010-10-23T14:01:54Z</time>
      </trkpt>
      <trkpt lat="45.11927" lon="5.23164">
        <ele>300.9</ele>
        <time>2010-10-23T14:01:55Z</time>
      </trkpt>
      <trkpt lat="45.11927" lon="5.23162">
        <ele>301.7</ele>
        <time>2010-10-23T14:01:56Z</time>
      </trkpt>
      <trkpt lat="45.11927" lon="5.2316">
        <ele>302</ele>
        <time>2010-10-23T14:01:57Z</time>
      </trkpt>
      <trkpt lat="45.11926" lon="5.23159">
        <ele>302.1</ele>
        <time>2010-10-23T14:01:58Z</time>
      </trkpt>
      <trkpt lat="45.11926" lon="5.23157">
        <ele>302.5</ele>
        <time>2010-10-23T14:01:59Z</time>
      </trkpt>
      <trkpt lat="45.11925" lon="5.23155">
        <ele>302.9</ele>
        <time>2010-10-23T14:02:00Z</time>
      </trkpt>
      <trkpt lat="45.11925" lon="5.23154">
        <ele>303</ele>
        <time>2010-10-23T14:02:00Z</time>
      </trkpt>
      <trkpt lat="45.11925" lon="5.23153">
        <ele>302.7</ele>
        <time>2010-10-23T14:02:01Z</time>
      </trkpt>
      <trkpt lat="45.11925" lon="5.23151">
        <ele>302.7</ele>
        <time>2010-10-23T14:02:03Z</time>
      </trkpt>
      <trkpt lat="45.11926" lon="5.2315">
        <ele>302.7</ele>
        <time>2010-10-23T14:02:04Z</time>
      </trkpt>
      <trkpt lat="45.11926" lon="5.23148">
        <ele>302.7</ele>
        <time>2010-10-23T14:02:05Z</time>
      </trkpt>
      <trkpt lat="45.11926" lon="5.23146">
        <ele>302.6</ele>
        <time>2010-10-23T14:02:06Z</time>
      </trkpt>
      <trkpt lat="45.11926" lon="5.23145">
        <ele>302.6</ele>
        <time>2010-10-23T14:02:07Z</time>
      </trkpt>
      <trkpt lat="45.11926" lon="5.23143">
        <ele>302.7</ele>
        <time>2010-10-23T14:02:08Z</time>
      </trkpt>
      <trkpt lat="45.11926" lon="5.23141">
        <ele>303.4</ele>
        <time>2010-10-23T14:02:09Z</time>
      </trkpt>
      <trkpt lat="45.11926" lon="5.23139">
        <ele>303.6</ele>
        <time>2010-10-23T14:02:10Z</time>
      </trkpt>
      <trkpt lat="45.11927" lon="5.23137">
        <ele>303.1</ele>
        <time>2010-10-23T14:02:11Z</time>
      </trkpt>
      <trkpt lat="45.11927" lon="5.23135">
        <ele>303.1</ele>
        <time>2010-10-23T14:02:12Z</time>
      </trkpt>
      <trkpt lat="45.11927" lon="5.23133">
        <ele>303.2</ele>
        <time>2010-10-23T14:02:13Z</time>
      </trkpt>
      <trkpt lat="45.11927" lon="5.2313">
        <ele>303.6</ele>
        <time>2010-10-23T14:02:14Z</time>
      </trkpt>
      <trkpt lat="45.11927" lon="5.23127">
        <ele>303.5</ele>
        <time>2010-10-23T14:02:15Z</time>
      </trkpt>
      <trkpt lat="45.11928" lon="5.23125">
        <ele>303.6</ele>
        <time>2010-10-23T14:02:16Z</time>
      </trkpt>
      <trkpt lat="45.11928" lon="5.23123">
        <ele>303.8</ele>
        <time>2010-10-23T14:02:17Z</time>
      </trkpt>
      <trkpt lat="45.11928" lon="5.2312">
        <ele>303.9</ele>
        <time>2010-10-23T14:02:18Z</time>
      </trkpt>
      <trkpt lat="45.11929" lon="5.23117">
        <ele>304.3</ele>
        <time>2010-10-23T14:02:19Z</time>
      </trkpt>
      <trkpt lat="45.1193" lon="5.23116">
        <ele>304.7</ele>
        <time>2010-10-23T14:02:20Z</time>
      </trkpt>
      <trkpt lat="45.1193" lon="5.23114">
        <ele>304.9</ele>
        <time>2010-10-23T14:02:20Z</time>
      </trkpt>
      <trkpt lat="45.11929" lon="5.23112">
        <ele>304.8</ele>
        <time>2010-10-23T14:02:21Z</time>
      </trkpt>
      <trkpt lat="45.11929" lon="5.23109">
        <ele>304.8</ele>
        <time>2010-10-23T14:02:23Z</time>
      </trkpt>
      <trkpt lat="45.1193" lon="5.23108">
        <ele>304.5</ele>
        <time>2010-10-23T14:02:24Z</time>
      </trkpt>
      <trkpt lat="45.11931" lon="5.23107">
        <ele>304.6</ele>
        <time>2010-10-23T14:02:25Z</time>
      </trkpt>
      <trkpt lat="45.11931" lon="5.23105">
        <ele>304.6</ele>
        <time>2010-10-23T14:02:26Z</time>
      </trkpt>
      <trkpt lat="45.11931" lon="5.23103">
        <ele>304.7</ele>
        <time>2010-10-23T14:02:27Z</time>
      </trkpt>
      <trkpt lat="45.1193" lon="5.23102">
        <ele>304.7</ele>
        <time>2010-10-23T14:02:28Z</time>
      </trkpt>
      <trkpt lat="45.1193" lon="5.23099">
        <ele>304.9</ele>
        <time>2010-10-23T14:02:29Z</time>
      </trkpt>
      <trkpt lat="45.11931" lon="5.23097">
        <ele>305.5</ele>
        <time>2010-10-23T14:02:30Z</time>
      </trkpt>
      <trkpt lat="45.11931" lon="5.23095">
        <ele>305.7</ele>
        <time>2010-10-23T14:02:31Z</time>
      </trkpt>
      <trkpt lat="45.11931" lon="5.23093">
        <ele>305.3</ele>
        <time>2010-10-23T14:02:32Z</time>
      </trkpt>
      <trkpt lat="45.11931" lon="5.2309">
        <ele>305.7</ele>
        <time>2010-10-23T14:02:33Z</time>
      </trkpt>
      <trkpt lat="45.11931" lon="5.23087">
        <ele>305.5</ele>
        <time>2010-10-23T14:02:34Z</time>
      </trkpt>
      <trkpt lat="45.11931" lon="5.23085">
        <ele>305.5</ele>
        <time>2010-10-23T14:02:35Z</time>
      </trkpt>
      <trkpt lat="45.11931" lon="5.23081">
        <ele>305.4</ele>
        <time>2010-10-23T14:02:36Z</time>
      </trkpt>
      <trkpt lat="45.11929" lon="5.23078">
        <ele>305.4</ele>
        <time>2010-10-23T14:02:37Z</time>
      </trkpt>
      <trkpt lat="45.11928" lon="5.23075">
        <ele>306.4</ele>
        <time>2010-10-23T14:02:38Z</time>
      </trkpt>
      <trkpt lat="45.11927" lon="5.23072">
        <ele>307</ele>
        <time>2010-10-23T14:02:39Z</time>
      </trkpt>
      <trkpt lat="45.11927" lon="5.23069">
        <ele>307.5</ele>
        <time>2010-10-23T14:02:40Z</time>
      </trkpt>
      <trkpt lat="45.11929" lon="5.23069">
        <ele>307.4</ele>
        <time>2010-10-23T14:02:41Z</time>
      </trkpt>
      <trkpt lat="45.11931" lon="5.23067">
        <ele>308.3</ele>
        <time>2010-10-23T14:02:43Z</time>
      </trkpt>
      <trkpt lat="45.11933" lon="5.23065">
        <ele>309.5</ele>
        <time>2010-10-23T14:02:44Z</time>
      </trkpt>
      <trkpt lat="45.11934" lon="5.23063">
        <ele>310</ele>
        <time>2010-10-23T14:02:45Z</time>
      </trkpt>
      <trkpt lat="45.11934" lon="5.23062">
        <ele>310.2</ele>
        <time>2010-10-23T14:02:46Z</time>
      </trkpt>
      <trkpt lat="45.11934" lon="5.2306">
        <ele>310.4</ele>
        <time>2010-10-23T14:02:47Z</time>
      </trkpt>
      <trkpt lat="45.11935" lon="5.23058">
        <ele>310.5</ele>
        <time>2010-10-23T14:02:48Z</time>
      </trkpt>
      <trkpt lat="45.11935" lon="5.23057">
        <ele>310.5</ele>
        <time>2010-10-23T14:02:49Z</time>
      </trkpt>
      <trkpt lat="45.11936" lon="5.23054">
        <ele>310.6</ele>
        <time>2010-10-23T14:02:50Z</time>
      </trkpt>
      <trkpt lat="45.11936" lon="5.23052">
        <ele>310.7</ele>
        <time>2010-10-23T14:02:51Z</time>
      </trkpt>
      <trkpt lat="45.11938" lon="5.23052">
        <ele>310.9</ele>
        <time>2010-10-23T14:02:52Z</time>
      </trkpt>
      <trkpt lat="45.11939" lon="5.23051">
        <ele>310.8</ele>
        <time>2010-10-23T14:02:53Z</time>
      </trkpt>
      <trkpt lat="45.1194" lon="5.23049">
        <ele>310.8</ele>
        <time>2010-10-23T14:02:54Z</time>
      </trkpt>
      <trkpt lat="45.11942" lon="5.2305">
        <ele>310.9</ele>
        <time>2010-10-23T14:02:56Z</time>
      </trkpt>
      <trkpt lat="45.11945" lon="5.23051">
        <ele>310.9</ele>
        <time>2010-10-23T14:02:58Z</time>
      </trkpt>
      <trkpt lat="45.11946" lon="5.23052">
        <ele>311</ele>
        <time>2010-10-23T14:02:59Z</time>
      </trkpt>
      <trkpt lat="45.11948" lon="5.23053">
        <ele>311.1</ele>
        <time>2010-10-23T14:03:00Z</time>
      </trkpt>
      <trkpt lat="45.1195" lon="5.23054">
        <ele>310.8</ele>
        <time>2010-10-23T14:03:00Z</time>
      </trkpt>
      <trkpt lat="45.11952" lon="5.23054">
        <ele>310</ele>
        <time>2010-10-23T14:03:02Z</time>
      </trkpt>
      <trkpt lat="45.11954" lon="5.23054">
        <ele>309.9</ele>
        <time>2010-10-23T14:03:03Z</time>
      </trkpt>
      <trkpt lat="45.11956" lon="5.23055">
        <ele>310</ele>
        <time>2010-10-23T14:03:04Z</time>
      </trkpt>
      <trkpt lat="45.11958" lon="5.23055">
        <ele>310.2</ele>
        <time>2010-10-23T14:03:05Z</time>
      </trkpt>
      <trkpt lat="45.11959" lon="5.23056">
        <ele>310.3</ele>
        <time>2010-10-23T14:03:06Z</time>
      </trkpt>
      <trkpt lat="45.11961" lon="5.23056">
        <ele>310.1</ele>
        <time>2010-10-23T14:03:07Z</time>
      </trkpt>
      <trkpt lat="45.11963" lon="5.23057">
        <ele>310.5</ele>
        <time>2010-10-23T14:03:08Z</time>
      </trkpt>
      <trkpt lat="45.11964" lon="5.23057">
        <ele>310.5</ele>
        <time>2010-10-23T14:03:09Z</time>
      </trkpt>
      <trkpt lat="45.11966" lon="5.23057">
        <ele>310.1</ele>
        <time>2010-10-23T14:03:10Z</time>
      </trkpt>
      <trkpt lat="45.11967" lon="5.23057">
        <ele>310.1</ele>
        <time>2010-10-23T14:03:11Z</time>
      </trkpt>
      <trkpt lat="45.11969" lon="5.23057">
        <ele>310.2</ele>
        <time>2010-10-23T14:03:12Z</time>
      </trkpt>
      <trkpt lat="45.1197" lon="5.23058">
        <ele>310.6</ele>
        <time>2010-10-23T14:03:13Z</time>
      </trkpt>
      <trkpt lat="45.11972" lon="5.23059">
        <ele>311</ele>
        <time>2010-10-23T14:03:14Z</time>
      </trkpt>
      <trkpt lat="45.11974" lon="5.2306">
        <ele>311.3</ele>
        <time>2010-10-23T14:03:15Z</time>
      </trkpt>
      <trkpt lat="45.11976" lon="5.2306">
        <ele>311.8</ele>
        <time>2010-10-23T14:03:16Z</time>
      </trkpt>
      <trkpt lat="45.11977" lon="5.23061">
        <ele>312.6</ele>
        <time>2010-10-23T14:03:17Z</time>
      </trkpt>
      <trkpt lat="45.11979" lon="5.23061">
        <ele>313.2</ele>
        <time>2010-10-23T14:03:18Z</time>
      </trkpt>
      <trkpt lat="45.1198" lon="5.23061">
        <ele>313</ele>
        <time>2010-10-23T14:03:19Z</time>
      </trkpt>
      <trkpt lat="45.11981" lon="5.23062">
        <ele>312.7</ele>
        <time>2010-10-23T14:03:20Z</time>
      </trkpt>
      <trkpt lat="45.11983" lon="5.23062">
        <ele>312.5</ele>
        <time>2010-10-23T14:03:20Z</time>
      </trkpt>
      <trkpt lat="45.11984" lon="5.23063">
        <ele>312.7</ele>
        <time>2010-10-23T14:03:22Z</time>
      </trkpt>
      <trkpt lat="45.11986" lon="5.23063">
        <ele>312.6</ele>
        <time>2010-10-23T14:03:23Z</time>
      </trkpt>
      <trkpt lat="45.11988" lon="5.23064">
        <ele>312.3</ele>
        <time>2010-10-23T14:03:25Z</time>
      </trkpt>
      <trkpt lat="45.1199" lon="5.23064">
        <ele>311.9</ele>
        <time>2010-10-23T14:03:26Z</time>
      </trkpt>
      <trkpt lat="45.11991" lon="5.23065">
        <ele>312.1</ele>
        <time>2010-10-23T14:03:27Z</time>
      </trkpt>
      <trkpt lat="45.11992" lon="5.23066">
        <ele>312.3</ele>
        <time>2010-10-23T14:03:28Z</time>
      </trkpt>
      <trkpt lat="45.11994" lon="5.23067">
        <ele>312.4</ele>
        <time>2010-10-23T14:03:29Z</time>
      </trkpt>
      <trkpt lat="45.11995" lon="5.23068">
        <ele>312.3</ele>
        <time>2010-10-23T14:03:30Z</time>
      </trkpt>
      <trkpt lat="45.11997" lon="5.23068">
        <ele>312.4</ele>
        <time>2010-10-23T14:03:31Z</time>
      </trkpt>
      <trkpt lat="45.11998" lon="5.23068">
        <ele>312.3</ele>
        <time>2010-10-23T14:03:32Z</time>
      </trkpt>
      <trkpt lat="45.12001" lon="5.23068">
        <ele>312.1</ele>
        <time>2010-10-23T14:03:33Z</time>
      </trkpt>
      <trkpt lat="45.12003" lon="5.23068">
        <ele>312.2</ele>
        <time>2010-10-23T14:03:34Z</time>
      </trkpt>
      <trkpt lat="45.12005" lon="5.23069">
        <ele>312.3</ele>
        <time>2010-10-23T14:03:35Z</time>
      </trkpt>
      <trkpt lat="45.12008" lon="5.23069">
        <ele>312.1</ele>
        <time>2010-10-23T14:03:36Z</time>
      </trkpt>
      <trkpt lat="45.1201" lon="5.23069">
        <ele>312</ele>
        <time>2010-10-23T14:03:37Z</time>
      </trkpt>
      <trkpt lat="45.12012" lon="5.23069">
        <ele>312</ele>
        <time>2010-10-23T14:03:38Z</time>
      </trkpt>
      <trkpt lat="45.12014" lon="5.2307">
        <ele>311.8</ele>
        <time>2010-10-23T14:03:39Z</time>
      </trkpt>
      <trkpt lat="45.12018" lon="5.23071">
        <ele>311.8</ele>
        <time>2010-10-23T14:03:40Z</time>
      </trkpt>
      <trkpt lat="45.12022" lon="5.23073">
        <ele>311.9</ele>
        <time>2010-10-23T14:03:40Z</time>
      </trkpt>
      <trkpt lat="45.12027" lon="5.23075">
        <ele>311.7</ele>
        <time>2010-10-23T14:03:42Z</time>
      </trkpt>
      <trkpt lat="45.12031" lon="5.23075">
        <ele>311.1</ele>
        <time>2010-10-23T14:03:43Z</time>
      </trkpt>
      <trkpt lat="45.12035" lon="5.23076">
        <ele>311.2</ele>
        <time>2010-10-23T14:03:44Z</time>
      </trkpt>
      <trkpt lat="45.1204" lon="5.23077">
        <ele>311</ele>
        <time>2010-10-23T14:03:45Z</time>
      </trkpt>
      <trkpt lat="45.12045" lon="5.23079">
        <ele>310.7</ele>
        <time>2010-10-23T14:03:46Z</time>
      </trkpt>
      <trkpt lat="45.12052" lon="5.23079">
        <ele>309.8</ele>
        <time>2010-10-23T14:03:47Z</time>
      </trkpt>
      <trkpt lat="45.12058" lon="5.23081">
        <ele>310.4</ele>
        <time>2010-10-23T14:03:48Z</time>
      </trkpt>
      <trkpt lat="45.12064" lon="5.23083">
        <ele>310.8</ele>
        <time>2010-10-23T14:03:49Z</time>
      </trkpt>
      <trkpt lat="45.1207" lon="5.23085">
        <ele>310.7</ele>
        <time>2010-10-23T14:03:50Z</time>
      </trkpt>
      <trkpt lat="45.12076" lon="5.23087">
        <ele>310.9</ele>
        <time>2010-10-23T14:03:51Z</time>
      </trkpt>
      <trkpt lat="45.12081" lon="5.23089">
        <ele>310.8</ele>
        <time>2010-10-23T14:03:52Z</time>
      </trkpt>
      <trkpt lat="45.12085" lon="5.23092">
        <ele>310.3</ele>
        <time>2010-10-23T14:03:53Z</time>
      </trkpt>
      <trkpt lat="45.12091" lon="5.23093">
        <ele>310.5</ele>
        <time>2010-10-23T14:03:54Z</time>
      </trkpt>
      <trkpt lat="45.12095" lon="5.23097">
        <ele>310.7</ele>
        <time>2010-10-23T14:03:55Z</time>
      </trkpt>
      <trkpt lat="45.121" lon="5.23098">
        <ele>310.7</ele>
        <time>2010-10-23T14:03:56Z</time>
      </trkpt>
      <trkpt lat="45.12106" lon="5.23099">
        <ele>310.6</ele>
        <time>2010-10-23T14:03:57Z</time>
      </trkpt>
      <trkpt lat="45.12112" lon="5.23102">
        <ele>310.2</ele>
        <time>2010-10-23T14:03:58Z</time>
      </trkpt>
      <trkpt lat="45.12116" lon="5.23104">
        <ele>310.1</ele>
        <time>2010-10-23T14:03:59Z</time>
      </trkpt>
      <trkpt lat="45.1212" lon="5.23106">
        <ele>309.3</ele>
        <time>2010-10-23T14:04:00Z</time>
      </trkpt>
      <trkpt lat="45.12124" lon="5.23108">
        <ele>308.9</ele>
        <time>2010-10-23T14:04:00Z</time>
      </trkpt>
      <trkpt lat="45.12127" lon="5.23109">
        <ele>308.9</ele>
        <time>2010-10-23T14:04:02Z</time>
      </trkpt>
      <trkpt lat="45.12132" lon="5.23112">
        <ele>308.9</ele>
        <time>2010-10-23T14:04:03Z</time>
      </trkpt>
      <trkpt lat="45.12136" lon="5.23114">
        <ele>308.1</ele>
        <time>2010-10-23T14:04:04Z</time>
      </trkpt>
      <trkpt lat="45.12139" lon="5.23116">
        <ele>308.4</ele>
        <time>2010-10-23T14:04:05Z</time>
      </trkpt>
      <trkpt lat="45.12142" lon="5.23114">
        <ele>308.3</ele>
        <time>2010-10-23T14:04:06Z</time>
      </trkpt>
      <trkpt lat="45.12143" lon="5.23118">
        <ele>308</ele>
        <time>2010-10-23T14:04:07Z</time>
      </trkpt>
      <trkpt lat="45.12147" lon="5.23118">
        <ele>308.4</ele>
        <time>2010-10-23T14:04:08Z</time>
      </trkpt>
      <trkpt lat="45.1215" lon="5.23119">
        <ele>308.6</ele>
        <time>2010-10-23T14:04:09Z</time>
      </trkpt>
      <trkpt lat="45.12152" lon="5.23119">
        <ele>308.4</ele>
        <time>2010-10-23T14:04:10Z</time>
      </trkpt>
      <trkpt lat="45.12157" lon="5.2312">
        <ele>308.4</ele>
        <time>2010-10-23T14:04:11Z</time>
      </trkpt>
      <trkpt lat="45.1216" lon="5.23119">
        <ele>309</ele>
        <time>2010-10-23T14:04:12Z</time>
      </trkpt>
      <trkpt lat="45.12164" lon="5.23119">
        <ele>309.8</ele>
        <time>2010-10-23T14:04:13Z</time>
      </trkpt>
      <trkpt lat="45.12168" lon="5.23119">
        <ele>310.3</ele>
        <time>2010-10-23T14:04:14Z</time>
      </trkpt>
      <trkpt lat="45.1217" lon="5.23119">
        <ele>310.1</ele>
        <time>2010-10-23T14:04:15Z</time>
      </trkpt>
      <trkpt lat="45.12172" lon="5.23119">
        <ele>309.6</ele>
        <time>2010-10-23T14:04:16Z</time>
      </trkpt>
      <trkpt lat="45.12175" lon="5.23118">
        <ele>310</ele>
        <time>2010-10-23T14:04:17Z</time>
      </trkpt>
      <trkpt lat="45.12178" lon="5.23117">
        <ele>309.1</ele>
        <time>2010-10-23T14:04:18Z</time>
      </trkpt>
      <trkpt lat="45.12181" lon="5.23115">
        <ele>308.8</ele>
        <time>2010-10-23T14:04:19Z</time>
      </trkpt>
      <trkpt lat="45.12183" lon="5.23113">
        <ele>308.4</ele>
        <time>2010-10-23T14:04:19Z</time>
      </trkpt>
      <trkpt lat="45.12185" lon="5.23112">
        <ele>308.5</ele>
        <time>2010-10-23T14:04:20Z</time>
      </trkpt>
      <trkpt lat="45.12188" lon="5.23111">
        <ele>308.9</ele>
        <time>2010-10-23T14:04:22Z</time>
      </trkpt>
      <trkpt lat="45.1219" lon="5.2311">
        <ele>308.4</ele>
        <time>2010-10-23T14:04:23Z</time>
      </trkpt>
      <trkpt lat="45.12193" lon="5.23109">
        <ele>308.2</ele>
        <time>2010-10-23T14:04:24Z</time>
      </trkpt>
      <trkpt lat="45.12195" lon="5.23108">
        <ele>308.1</ele>
        <time>2010-10-23T14:04:25Z</time>
      </trkpt>
      <trkpt lat="45.12197" lon="5.23107">
        <ele>307.8</ele>
        <time>2010-10-23T14:04:26Z</time>
      </trkpt>
      <trkpt lat="45.12199" lon="5.23107">
        <ele>307.7</ele>
        <time>2010-10-23T14:04:27Z</time>
      </trkpt>
      <trkpt lat="45.12201" lon="5.23107">
        <ele>308.5</ele>
        <time>2010-10-23T14:04:29Z</time>
      </trkpt>
      <trkpt lat="45.12203" lon="5.23107">
        <ele>308.3</ele>
        <time>2010-10-23T14:04:30Z</time>
      </trkpt>
      <trkpt lat="45.12205" lon="5.23107">
        <ele>308.6</ele>
        <time>2010-10-23T14:04:31Z</time>
      </trkpt>
      <trkpt lat="45.12206" lon="5.23104">
        <ele>309.2</ele>
        <time>2010-10-23T14:04:32Z</time>
      </trkpt>
      <trkpt lat="45.12208" lon="5.23104">
        <ele>309.1</ele>
        <time>2010-10-23T14:04:33Z</time>
      </trkpt>
      <trkpt lat="45.1221" lon="5.23108">
        <ele>307.7</ele>
        <time>2010-10-23T14:04:34Z</time>
      </trkpt>
      <trkpt lat="45.12211" lon="5.23107">
        <ele>307.7</ele>
        <time>2010-10-23T14:04:35Z</time>
      </trkpt>
      <trkpt lat="45.12212" lon="5.23107">
        <ele>307.9</ele>
        <time>2010-10-23T14:04:40Z</time>
      </trkpt>
      <trkpt lat="45.12212" lon="5.23105">
        <ele>308.6</ele>
        <time>2010-10-23T14:04:42Z</time>
      </trkpt>
      <trkpt lat="45.12212" lon="5.23105">
        <ele>308.9</ele>
        <time>2010-10-23T14:05:21Z</time>
      </trkpt>
      <trkpt lat="45.12213" lon="5.23104">
        <ele>309</ele>
        <time>2010-10-23T14:05:22Z</time>
      </trkpt>
      <trkpt lat="45.12214" lon="5.23104">
        <ele>308.3</ele>
        <time>2010-10-23T14:05:23Z</time>
      </trkpt>
      <trkpt lat="45.12216" lon="5.23104">
        <ele>308.1</ele>
        <time>2010-10-23T14:05:24Z</time>
      </trkpt>
      <trkpt lat="45.12219" lon="5.23104">
        <ele>308.5</ele>
        <time>2010-10-23T14:05:25Z</time>
      </trkpt>
      <trkpt lat="45.12222" lon="5.23102">
        <ele>308.6</ele>
        <time>2010-10-23T14:05:26Z</time>
      </trkpt>
      <trkpt lat="45.12225" lon="5.23103">
        <ele>308.3</ele>
        <time>2010-10-23T14:05:27Z</time>
      </trkpt>
      <trkpt lat="45.12227" lon="5.23103">
        <ele>308.4</ele>
        <time>2010-10-23T14:05:28Z</time>
      </trkpt>
      <trkpt lat="45.12231" lon="5.23104">
        <ele>308.3</ele>
        <time>2010-10-23T14:05:29Z</time>
      </trkpt>
      <trkpt lat="45.12234" lon="5.23103">
        <ele>308.6</ele>
        <time>2010-10-23T14:05:30Z</time>
      </trkpt>
      <trkpt lat="45.12237" lon="5.23105">
        <ele>309.3</ele>
        <time>2010-10-23T14:05:31Z</time>
      </trkpt>
      <trkpt lat="45.12239" lon="5.23104">
        <ele>308.7</ele>
        <time>2010-10-23T14:05:32Z</time>
      </trkpt>
      <trkpt lat="45.12242" lon="5.23104">
        <ele>308.5</ele>
        <time>2010-10-23T14:05:33Z</time>
      </trkpt>
      <trkpt lat="45.12244" lon="5.23103">
        <ele>308</ele>
        <time>2010-10-23T14:05:34Z</time>
      </trkpt>
      <trkpt lat="45.12245" lon="5.23101">
        <ele>308.4</ele>
        <time>2010-10-23T14:05:35Z</time>
      </trkpt>
      <trkpt lat="45.12247" lon="5.23101">
        <ele>308.7</ele>
        <time>2010-10-23T14:05:36Z</time>
      </trkpt>
      <trkpt lat="45.1225" lon="5.231">
        <ele>307.9</ele>
        <time>2010-10-23T14:05:37Z</time>
      </trkpt>
      <trkpt lat="45.12251" lon="5.23099">
        <ele>307.9</ele>
        <time>2010-10-23T14:05:38Z</time>
      </trkpt>
      <trkpt lat="45.12253" lon="5.23099">
        <ele>307.7</ele>
        <time>2010-10-23T14:05:39Z</time>
      </trkpt>
      <trkpt lat="45.12256" lon="5.23099">
        <ele>307.5</ele>
        <time>2010-10-23T14:05:39Z</time>
      </trkpt>
      <trkpt lat="45.12257" lon="5.23099">
        <ele>308.1</ele>
        <time>2010-10-23T14:05:41Z</time>
      </trkpt>
      <trkpt lat="45.1226" lon="5.23097">
        <ele>309.3</ele>
        <time>2010-10-23T14:05:42Z</time>
      </trkpt>
      <trkpt lat="45.12262" lon="5.23097">
        <ele>309.8</ele>
        <time>2010-10-23T14:05:43Z</time>
      </trkpt>
      <trkpt lat="45.12266" lon="5.23097">
        <ele>309.7</ele>
        <time>2010-10-23T14:05:44Z</time>
      </trkpt>
      <trkpt lat="45.12269" lon="5.23097">
        <ele>310.3</ele>
        <time>2010-10-23T14:05:45Z</time>
      </trkpt>
      <trkpt lat="45.12271" lon="5.23096">
        <ele>310.9</ele>
        <time>2010-10-23T14:05:46Z</time>
      </trkpt>
      <trkpt lat="45.12272" lon="5.23096">
        <ele>309.9</ele>
        <time>2010-10-23T14:05:47Z</time>
      </trkpt>
      <trkpt lat="45.12274" lon="5.23095">
        <ele>310.1</ele>
        <time>2010-10-23T14:05:48Z</time>
      </trkpt>
      <trkpt lat="45.12276" lon="5.23095">
        <ele>310.1</ele>
        <time>2010-10-23T14:05:49Z</time>
      </trkpt>
      <trkpt lat="45.12277" lon="5.23095">
        <ele>309.6</ele>
        <time>2010-10-23T14:05:50Z</time>
      </trkpt>
      <trkpt lat="45.12279" lon="5.23094">
        <ele>309.2</ele>
        <time>2010-10-23T14:05:51Z</time>
      </trkpt>
      <trkpt lat="45.12281" lon="5.23093">
        <ele>309.1</ele>
        <time>2010-10-23T14:05:52Z</time>
      </trkpt>
      <trkpt lat="45.12282" lon="5.23093">
        <ele>308.5</ele>
        <time>2010-10-23T14:05:53Z</time>
      </trkpt>
      <trkpt lat="45.12284" lon="5.23093">
        <ele>308.4</ele>
        <time>2010-10-23T14:05:54Z</time>
      </trkpt>
      <trkpt lat="45.12286" lon="5.23093">
        <ele>308.6</ele>
        <time>2010-10-23T14:05:55Z</time>
      </trkpt>
      <trkpt lat="45.12287" lon="5.23093">
        <ele>309</ele>
        <time>2010-10-23T14:05:56Z</time>
      </trkpt>
      <trkpt lat="45.12288" lon="5.23093">
        <ele>309.8</ele>
        <time>2010-10-23T14:05:57Z</time>
      </trkpt>
      <trkpt lat="45.12291" lon="5.23093">
        <ele>310</ele>
        <time>2010-10-23T14:05:58Z</time>
      </trkpt>
      <trkpt lat="45.12292" lon="5.23094">
        <ele>310.1</ele>
        <time>2010-10-23T14:05:59Z</time>
      </trkpt>
      <trkpt lat="45.12295" lon="5.23094">
        <ele>309.3</ele>
        <time>2010-10-23T14:05:59Z</time>
      </trkpt>
      <trkpt lat="45.12297" lon="5.23094">
        <ele>310.2</ele>
        <time>2010-10-23T14:06:01Z</time>
      </trkpt>
      <trkpt lat="45.12297" lon="5.23096">
        <ele>311</ele>
        <time>2010-10-23T14:06:02Z</time>
      </trkpt>
      <trkpt lat="45.12298" lon="5.23096">
        <ele>310.2</ele>
        <time>2010-10-23T14:06:03Z</time>
      </trkpt>
      <trkpt lat="45.123" lon="5.23098">
        <ele>310.2</ele>
        <time>2010-10-23T14:06:04Z</time>
      </trkpt>
      <trkpt lat="45.12301" lon="5.23098">
        <ele>310.8</ele>
        <time>2010-10-23T14:06:05Z</time>
      </trkpt>
      <trkpt lat="45.12303" lon="5.23099">
        <ele>310.7</ele>
        <time>2010-10-23T14:06:06Z</time>
      </trkpt>
      <trkpt lat="45.12305" lon="5.23099">
        <ele>310.7</ele>
        <time>2010-10-23T14:06:07Z</time>
      </trkpt>
      <trkpt lat="45.12306" lon="5.23099">
        <ele>311</ele>
        <time>2010-10-23T14:06:08Z</time>
      </trkpt>
      <trkpt lat="45.12307" lon="5.231">
        <ele>311.4</ele>
        <time>2010-10-23T14:06:10Z</time>
      </trkpt>
      <trkpt lat="45.1231" lon="5.23099">
        <ele>311.2</ele>
        <time>2010-10-23T14:06:11Z</time>
      </trkpt>
      <trkpt lat="45.12312" lon="5.23099">
        <ele>310.7</ele>
        <time>2010-10-23T14:06:12Z</time>
      </trkpt>
      <trkpt lat="45.12313" lon="5.23098">
        <ele>310.2</ele>
        <time>2010-10-23T14:06:13Z</time>
      </trkpt>
      <trkpt lat="45.12315" lon="5.23098">
        <ele>310.2</ele>
        <time>2010-10-23T14:06:14Z</time>
      </trkpt>
      <trkpt lat="45.12317" lon="5.23098">
        <ele>309.9</ele>
        <time>2010-10-23T14:06:15Z</time>
      </trkpt>
      <trkpt lat="45.12319" lon="5.23099">
        <ele>310.1</ele>
        <time>2010-10-23T14:06:16Z</time>
      </trkpt>
      <trkpt lat="45.12322" lon="5.231">
        <ele>310.5</ele>
        <time>2010-10-23T14:06:18Z</time>
      </trkpt>
      <trkpt lat="45.12324" lon="5.23101">
        <ele>310.8</ele>
        <time>2010-10-23T14:06:19Z</time>
      </trkpt>
      <trkpt lat="45.12326" lon="5.23101">
        <ele>310.6</ele>
        <time>2010-10-23T14:06:19Z</time>
      </trkpt>
      <trkpt lat="45.12327" lon="5.23101">
        <ele>310.8</ele>
        <time>2010-10-23T14:06:21Z</time>
      </trkpt>
      <trkpt lat="45.12329" lon="5.23101">
        <ele>310.9</ele>
        <time>2010-10-23T14:06:22Z</time>
      </trkpt>
      <trkpt lat="45.12332" lon="5.23102">
        <ele>310.5</ele>
        <time>2010-10-23T14:06:24Z</time>
      </trkpt>
      <trkpt lat="45.12332" lon="5.23103">
        <ele>310.5</ele>
        <time>2010-10-23T14:06:25Z</time>
      </trkpt>
      <trkpt lat="45.12334" lon="5.23104">
        <ele>310.7</ele>
        <time>2010-10-23T14:06:26Z</time>
      </trkpt>
      <trkpt lat="45.12336" lon="5.23103">
        <ele>311.4</ele>
        <time>2010-10-23T14:06:27Z</time>
      </trkpt>
      <trkpt lat="45.12338" lon="5.23103">
        <ele>311.8</ele>
        <time>2010-10-23T14:06:28Z</time>
      </trkpt>
      <trkpt lat="45.12339" lon="5.23104">
        <ele>311.9</ele>
        <time>2010-10-23T14:06:29Z</time>
      </trkpt>
      <trkpt lat="45.1234" lon="5.23105">
        <ele>312.3</ele>
        <time>2010-10-23T14:06:30Z</time>
      </trkpt>
      <trkpt lat="45.12342" lon="5.23107">
        <ele>312.4</ele>
        <time>2010-10-23T14:06:32Z</time>
      </trkpt>
      <trkpt lat="45.12343" lon="5.23108">
        <ele>313.2</ele>
        <time>2010-10-23T14:06:33Z</time>
      </trkpt>
      <trkpt lat="45.12345" lon="5.23108">
        <ele>313.5</ele>
        <time>2010-10-23T14:06:34Z</time>
      </trkpt>
      <trkpt lat="45.12346" lon="5.23108">
        <ele>313.9</ele>
        <time>2010-10-23T14:06:35Z</time>
      </trkpt>
      <trkpt lat="45.12348" lon="5.23108">
        <ele>313.8</ele>
        <time>2010-10-23T14:06:36Z</time>
      </trkpt>
      <trkpt lat="45.1235" lon="5.23108">
        <ele>313.5</ele>
        <time>2010-10-23T14:06:37Z</time>
      </trkpt>
      <trkpt lat="45.12353" lon="5.23109">
        <ele>313.6</ele>
        <time>2010-10-23T14:06:38Z</time>
      </trkpt>
      <trkpt lat="45.12356" lon="5.2311">
        <ele>313.8</ele>
        <time>2010-10-23T14:06:41Z</time>
      </trkpt>
      <trkpt lat="45.12358" lon="5.23109">
        <ele>314.4</ele>
        <time>2010-10-23T14:06:42Z</time>
      </trkpt>
      <trkpt lat="45.12361" lon="5.2311">
        <ele>314.4</ele>
        <time>2010-10-23T14:06:43Z</time>
      </trkpt>
      <trkpt lat="45.12365" lon="5.2311">
        <ele>314.7</ele>
        <time>2010-10-23T14:06:44Z</time>
      </trkpt>
      <trkpt lat="45.12366" lon="5.2311">
        <ele>314.9</ele>
        <time>2010-10-23T14:06:45Z</time>
      </trkpt>
      <trkpt lat="45.12368" lon="5.2311">
        <ele>315.1</ele>
        <time>2010-10-23T14:06:46Z</time>
      </trkpt>
      <trkpt lat="45.12368" lon="5.23111">
        <ele>315.5</ele>
        <time>2010-10-23T14:06:47Z</time>
      </trkpt>
      <trkpt lat="45.1237" lon="5.23113">
        <ele>316.1</ele>
        <time>2010-10-23T14:06:48Z</time>
      </trkpt>
      <trkpt lat="45.12371" lon="5.23114">
        <ele>315.9</ele>
        <time>2010-10-23T14:06:49Z</time>
      </trkpt>
      <trkpt lat="45.12374" lon="5.23114">
        <ele>315.7</ele>
        <time>2010-10-23T14:06:51Z</time>
      </trkpt>
      <trkpt lat="45.12375" lon="5.23114">
        <ele>315.7</ele>
        <time>2010-10-23T14:06:52Z</time>
      </trkpt>
      <trkpt lat="45.12377" lon="5.23114">
        <ele>315.7</ele>
        <time>2010-10-23T14:06:53Z</time>
      </trkpt>
      <trkpt lat="45.12378" lon="5.23115">
        <ele>316.2</ele>
        <time>2010-10-23T14:06:54Z</time>
      </trkpt>
      <trkpt lat="45.1238" lon="5.23115">
        <ele>316.3</ele>
        <time>2010-10-23T14:06:55Z</time>
      </trkpt>
      <trkpt lat="45.12381" lon="5.23115">
        <ele>316.6</ele>
        <time>2010-10-23T14:06:56Z</time>
      </trkpt>
      <trkpt lat="45.12382" lon="5.23115">
        <ele>316.8</ele>
        <time>2010-10-23T14:06:57Z</time>
      </trkpt>
      <trkpt lat="45.12384" lon="5.23116">
        <ele>316.6</ele>
        <time>2010-10-23T14:06:58Z</time>
      </trkpt>
      <trkpt lat="45.12386" lon="5.23116">
        <ele>316.9</ele>
        <time>2010-10-23T14:06:59Z</time>
      </trkpt>
      <trkpt lat="45.1239" lon="5.23117">
        <ele>317.1</ele>
        <time>2010-10-23T14:07:01Z</time>
      </trkpt>
      <trkpt lat="45.12391" lon="5.23117">
        <ele>316.9</ele>
        <time>2010-10-23T14:07:02Z</time>
      </trkpt>
      <trkpt lat="45.12394" lon="5.23115">
        <ele>317</ele>
        <time>2010-10-23T14:07:04Z</time>
      </trkpt>
      <trkpt lat="45.12396" lon="5.23116">
        <ele>316.8</ele>
        <time>2010-10-23T14:07:05Z</time>
      </trkpt>
      <trkpt lat="45.12397" lon="5.23116">
        <ele>316.7</ele>
        <time>2010-10-23T14:07:06Z</time>
      </trkpt>
      <trkpt lat="45.12399" lon="5.23116">
        <ele>316.6</ele>
        <time>2010-10-23T14:07:07Z</time>
      </trkpt>
      <trkpt lat="45.12401" lon="5.23116">
        <ele>316.7</ele>
        <time>2010-10-23T14:07:08Z</time>
      </trkpt>
      <trkpt lat="45.12403" lon="5.23116">
        <ele>316.7</ele>
        <time>2010-10-23T14:07:09Z</time>
      </trkpt>
      <trkpt lat="45.12405" lon="5.23116">
        <ele>317.1</ele>
        <time>2010-10-23T14:07:10Z</time>
      </trkpt>
      <trkpt lat="45.12407" lon="5.23116">
        <ele>316.9</ele>
        <time>2010-10-23T14:07:11Z</time>
      </trkpt>
      <trkpt lat="45.12409" lon="5.23117">
        <ele>316.9</ele>
        <time>2010-10-23T14:07:12Z</time>
      </trkpt>
      <trkpt lat="45.12411" lon="5.23117">
        <ele>316.6</ele>
        <time>2010-10-23T14:07:13Z</time>
      </trkpt>
      <trkpt lat="45.12414" lon="5.23118">
        <ele>316.1</ele>
        <time>2010-10-23T14:07:14Z</time>
      </trkpt>
      <trkpt lat="45.12417" lon="5.23118">
        <ele>316.1</ele>
        <time>2010-10-23T14:07:15Z</time>
      </trkpt>
      <trkpt lat="45.1242" lon="5.2312">
        <ele>315.8</ele>
        <time>2010-10-23T14:07:16Z</time>
      </trkpt>
      <trkpt lat="45.12425" lon="5.2312">
        <ele>316.4</ele>
        <time>2010-10-23T14:07:17Z</time>
      </trkpt>
      <trkpt lat="45.12428" lon="5.23121">
        <ele>316.6</ele>
        <time>2010-10-23T14:07:18Z</time>
      </trkpt>
      <trkpt lat="45.12433" lon="5.23122">
        <ele>317</ele>
        <time>2010-10-23T14:07:18Z</time>
      </trkpt>
      <trkpt lat="45.12437" lon="5.23122">
        <ele>316.8</ele>
        <time>2010-10-23T14:07:19Z</time>
      </trkpt>
      <trkpt lat="45.12441" lon="5.23121">
        <ele>315.9</ele>
        <time>2010-10-23T14:07:21Z</time>
      </trkpt>
      <trkpt lat="45.12445" lon="5.23121">
        <ele>316</ele>
        <time>2010-10-23T14:07:22Z</time>
      </trkpt>
      <trkpt lat="45.12448" lon="5.23122">
        <ele>315.8</ele>
        <time>2010-10-23T14:07:23Z</time>
      </trkpt>
      <trkpt lat="45.12449" lon="5.23123">
        <ele>317</ele>
        <time>2010-10-23T14:07:24Z</time>
      </trkpt>
      <trkpt lat="45.12453" lon="5.23124">
        <ele>317.6</ele>
        <time>2010-10-23T14:07:25Z</time>
      </trkpt>
      <trkpt lat="45.12457" lon="5.23124">
        <ele>317.4</ele>
        <time>2010-10-23T14:07:26Z</time>
      </trkpt>
      <trkpt lat="45.12459" lon="5.23124">
        <ele>317.4</ele>
        <time>2010-10-23T14:07:27Z</time>
      </trkpt>
      <trkpt lat="45.12461" lon="5.23124">
        <ele>316.9</ele>
        <time>2010-10-23T14:07:28Z</time>
      </trkpt>
      <trkpt lat="45.12465" lon="5.23125">
        <ele>316.7</ele>
        <time>2010-10-23T14:07:29Z</time>
      </trkpt>
      <trkpt lat="45.12468" lon="5.23125">
        <ele>316.2</ele>
        <time>2010-10-23T14:07:30Z</time>
      </trkpt>
      <trkpt lat="45.1247" lon="5.23126">
        <ele>315.5</ele>
        <time>2010-10-23T14:07:31Z</time>
      </trkpt>
      <trkpt lat="45.12471" lon="5.23127">
        <ele>314.5</ele>
        <time>2010-10-23T14:07:32Z</time>
      </trkpt>
      <trkpt lat="45.12472" lon="5.23127">
        <ele>314.3</ele>
        <time>2010-10-23T14:07:33Z</time>
      </trkpt>
      <trkpt lat="45.12475" lon="5.23127">
        <ele>314.1</ele>
        <time>2010-10-23T14:07:34Z</time>
      </trkpt>
      <trkpt lat="45.12478" lon="5.23129">
        <ele>315.4</ele>
        <time>2010-10-23T14:07:35Z</time>
      </trkpt>
      <trkpt lat="45.12479" lon="5.23129">
        <ele>315.9</ele>
        <time>2010-10-23T14:07:36Z</time>
      </trkpt>
      <trkpt lat="45.12481" lon="5.23131">
        <ele>316.5</ele>
        <time>2010-10-23T14:07:37Z</time>
      </trkpt>
      <trkpt lat="45.12483" lon="5.23131">
        <ele>317.1</ele>
        <time>2010-10-23T14:07:38Z</time>
      </trkpt>
      <trkpt lat="45.12485" lon="5.23131">
        <ele>317.5</ele>
        <time>2010-10-23T14:07:38Z</time>
      </trkpt>
      <trkpt lat="45.12487" lon="5.23132">
        <ele>318.5</ele>
        <time>2010-10-23T14:07:40Z</time>
      </trkpt>
      <trkpt lat="45.1249" lon="5.23132">
        <ele>318.6</ele>
        <time>2010-10-23T14:07:41Z</time>
      </trkpt>
      <trkpt lat="45.12492" lon="5.23133">
        <ele>319.2</ele>
        <time>2010-10-23T14:07:42Z</time>
      </trkpt>
      <trkpt lat="45.12495" lon="5.23132">
        <ele>319.2</ele>
        <time>2010-10-23T14:07:43Z</time>
      </trkpt>
      <trkpt lat="45.12496" lon="5.23132">
        <ele>319.3</ele>
        <time>2010-10-23T14:07:44Z</time>
      </trkpt>
      <trkpt lat="45.12499" lon="5.23132">
        <ele>318.9</ele>
        <time>2010-10-23T14:07:46Z</time>
      </trkpt>
      <trkpt lat="45.12506" lon="5.23131">
        <ele>317.7</ele>
        <time>2010-10-23T14:07:48Z</time>
      </trkpt>
      <trkpt lat="45.12507" lon="5.2313">
        <ele>317.8</ele>
        <time>2010-10-23T14:07:49Z</time>
      </trkpt>
      <trkpt lat="45.1251" lon="5.23127">
        <ele>317.5</ele>
        <time>2010-10-23T14:07:50Z</time>
      </trkpt>
      <trkpt lat="45.12511" lon="5.23127">
        <ele>317.7</ele>
        <time>2010-10-23T14:07:52Z</time>
      </trkpt>
      <trkpt lat="45.12513" lon="5.23125">
        <ele>318</ele>
        <time>2010-10-23T14:07:53Z</time>
      </trkpt>
      <trkpt lat="45.12516" lon="5.23124">
        <ele>317.9</ele>
        <time>2010-10-23T14:07:55Z</time>
      </trkpt>
      <trkpt lat="45.12519" lon="5.23124">
        <ele>317.9</ele>
        <time>2010-10-23T14:07:56Z</time>
      </trkpt>
      <trkpt lat="45.1252" lon="5.23122">
        <ele>317.8</ele>
        <time>2010-10-23T14:07:57Z</time>
      </trkpt>
      <trkpt lat="45.12523" lon="5.2312">
        <ele>318.2</ele>
        <time>2010-10-23T14:07:58Z</time>
      </trkpt>
      <trkpt lat="45.12525" lon="5.23119">
        <ele>318.7</ele>
        <time>2010-10-23T14:07:58Z</time>
      </trkpt>
      <trkpt lat="45.12526" lon="5.23118">
        <ele>317.9</ele>
        <time>2010-10-23T14:08:00Z</time>
      </trkpt>
      <trkpt lat="45.12526" lon="5.23117">
        <ele>318.5</ele>
        <time>2010-10-23T14:08:01Z</time>
      </trkpt>
      <trkpt lat="45.12528" lon="5.23115">
        <ele>319.2</ele>
        <time>2010-10-23T14:08:02Z</time>
      </trkpt>
      <trkpt lat="45.12529" lon="5.23114">
        <ele>319.4</ele>
        <time>2010-10-23T14:08:03Z</time>
      </trkpt>
      <trkpt lat="45.12533" lon="5.23113">
        <ele>319.7</ele>
        <time>2010-10-23T14:08:04Z</time>
      </trkpt>
      <trkpt lat="45.12535" lon="5.23111">
        <ele>319.6</ele>
        <time>2010-10-23T14:08:05Z</time>
      </trkpt>
      <trkpt lat="45.12537" lon="5.23112">
        <ele>319.4</ele>
        <time>2010-10-23T14:08:06Z</time>
      </trkpt>
      <trkpt lat="45.1254" lon="5.23111">
        <ele>319.6</ele>
        <time>2010-10-23T14:08:07Z</time>
      </trkpt>
      <trkpt lat="45.12542" lon="5.23111">
        <ele>319.7</ele>
        <time>2010-10-23T14:08:08Z</time>
      </trkpt>
      <trkpt lat="45.12545" lon="5.23111">
        <ele>319.8</ele>
        <time>2010-10-23T14:08:09Z</time>
      </trkpt>
      <trkpt lat="45.12547" lon="5.23109">
        <ele>320</ele>
        <time>2010-10-23T14:08:10Z</time>
      </trkpt>
      <trkpt lat="45.1255" lon="5.23107">
        <ele>320.5</ele>
        <time>2010-10-23T14:08:11Z</time>
      </trkpt>
      <trkpt lat="45.12553" lon="5.23106">
        <ele>320.5</ele>
        <time>2010-10-23T14:08:12Z</time>
      </trkpt>
      <trkpt lat="45.12556" lon="5.23105">
        <ele>320.6</ele>
        <time>2010-10-23T14:08:13Z</time>
      </trkpt>
      <trkpt lat="45.12557" lon="5.23104">
        <ele>320.7</ele>
        <time>2010-10-23T14:08:14Z</time>
      </trkpt>
      <trkpt lat="45.12559" lon="5.23104">
        <ele>320.8</ele>
        <time>2010-10-23T14:08:15Z</time>
      </trkpt>
      <trkpt lat="45.12562" lon="5.23103">
        <ele>320.9</ele>
        <time>2010-10-23T14:08:16Z</time>
      </trkpt>
      <trkpt lat="45.12566" lon="5.23102">
        <ele>320.8</ele>
        <time>2010-10-23T14:08:17Z</time>
      </trkpt>
      <trkpt lat="45.12568" lon="5.23102">
        <ele>320.8</ele>
        <time>2010-10-23T14:08:18Z</time>
      </trkpt>
      <trkpt lat="45.1257" lon="5.23104">
        <ele>320.9</ele>
        <time>2010-10-23T14:08:18Z</time>
      </trkpt>
      <trkpt lat="45.12572" lon="5.23103">
        <ele>321.1</ele>
        <time>2010-10-23T14:08:20Z</time>
      </trkpt>
      <trkpt lat="45.12574" lon="5.23099">
        <ele>320.8</ele>
        <time>2010-10-23T14:08:21Z</time>
      </trkpt>
      <trkpt lat="45.12576" lon="5.23098">
        <ele>320.6</ele>
        <time>2010-10-23T14:08:22Z</time>
      </trkpt>
      <trkpt lat="45.12577" lon="5.23097">
        <ele>320.6</ele>
        <time>2010-10-23T14:08:23Z</time>
      </trkpt>
      <trkpt lat="45.12577" lon="5.23096">
        <ele>320.2</ele>
        <time>2010-10-23T14:08:24Z</time>
      </trkpt>
      <trkpt lat="45.12581" lon="5.23096">
        <ele>320</ele>
        <time>2010-10-23T14:08:25Z</time>
      </trkpt>
      <trkpt lat="45.12585" lon="5.23098">
        <ele>320</ele>
        <time>2010-10-23T14:08:26Z</time>
      </trkpt>
      <trkpt lat="45.12587" lon="5.23096">
        <ele>320</ele>
        <time>2010-10-23T14:08:27Z</time>
      </trkpt>
      <trkpt lat="45.12589" lon="5.23096">
        <ele>320.1</ele>
        <time>2010-10-23T14:08:28Z</time>
      </trkpt>
      <trkpt lat="45.12593" lon="5.23096">
        <ele>320.2</ele>
        <time>2010-10-23T14:08:29Z</time>
      </trkpt>
      <trkpt lat="45.12596" lon="5.23094">
        <ele>320.4</ele>
        <time>2010-10-23T14:08:30Z</time>
      </trkpt>
      <trkpt lat="45.12598" lon="5.23093">
        <ele>320.7</ele>
        <time>2010-10-23T14:08:31Z</time>
      </trkpt>
      <trkpt lat="45.12602" lon="5.23092">
        <ele>320.6</ele>
        <time>2010-10-23T14:08:32Z</time>
      </trkpt>
      <trkpt lat="45.12604" lon="5.2309">
        <ele>320.8</ele>
        <time>2010-10-23T14:08:33Z</time>
      </trkpt>
      <trkpt lat="45.12608" lon="5.23088">
        <ele>321.3</ele>
        <time>2010-10-23T14:08:35Z</time>
      </trkpt>
      <trkpt lat="45.12606" lon="5.23088">
        <ele>322.3</ele>
        <time>2010-10-23T14:08:37Z</time>
      </trkpt>
      <trkpt lat="45.12614" lon="5.23086">
        <ele>322.2</ele>
        <time>2010-10-23T14:08:38Z</time>
      </trkpt>
      <trkpt lat="45.12611" lon="5.23086">
        <ele>322</ele>
        <time>2010-10-23T14:08:38Z</time>
      </trkpt>
      <trkpt lat="45.1261" lon="5.23086">
        <ele>322</ele>
        <time>2010-10-23T14:08:42Z</time>
      </trkpt>
      <trkpt lat="45.1261" lon="5.23088">
        <ele>322.3</ele>
        <time>2010-10-23T14:08:43Z</time>
      </trkpt>
      <trkpt lat="45.12609" lon="5.23088">
        <ele>321.7</ele>
        <time>2010-10-23T14:08:44Z</time>
      </trkpt>
      <trkpt lat="45.12609" lon="5.2309">
        <ele>321.5</ele>
        <time>2010-10-23T14:08:45Z</time>
      </trkpt>
      <trkpt lat="45.12608" lon="5.2309">
        <ele>321.4</ele>
        <time>2010-10-23T14:09:23Z</time>
      </trkpt>
      <trkpt lat="45.12607" lon="5.23089">
        <ele>321.8</ele>
        <time>2010-10-23T14:09:24Z</time>
      </trkpt>
      <trkpt lat="45.12608" lon="5.23088">
        <ele>321.4</ele>
        <time>2010-10-23T14:09:25Z</time>
      </trkpt>
      <trkpt lat="45.12608" lon="5.23088">
        <ele>321.3</ele>
        <time>2010-10-23T14:09:32Z</time>
      </trkpt>
      <trkpt lat="45.1261" lon="5.2309">
        <ele>322.7</ele>
        <time>2010-10-23T14:09:33Z</time>
      </trkpt>
      <trkpt lat="45.12612" lon="5.23091">
        <ele>323.9</ele>
        <time>2010-10-23T14:09:34Z</time>
      </trkpt>
      <trkpt lat="45.12614" lon="5.23092">
        <ele>325.1</ele>
        <time>2010-10-23T14:09:35Z</time>
      </trkpt>
      <trkpt lat="45.12616" lon="5.23093">
        <ele>325.5</ele>
        <time>2010-10-23T14:09:36Z</time>
      </trkpt>
      <trkpt lat="45.12617" lon="5.23092">
        <ele>327.1</ele>
        <time>2010-10-23T14:09:37Z</time>
      </trkpt>
      <trkpt lat="45.12618" lon="5.23092">
        <ele>326.9</ele>
        <time>2010-10-23T14:09:37Z</time>
      </trkpt>
      <trkpt lat="45.12619" lon="5.2309">
        <ele>326.8</ele>
        <time>2010-10-23T14:09:38Z</time>
      </trkpt>
      <trkpt lat="45.12621" lon="5.23089">
        <ele>325.5</ele>
        <time>2010-10-23T14:09:41Z</time>
      </trkpt>
      <trkpt lat="45.12621" lon="5.23089">
        <ele>324</ele>
        <time>2010-10-23T14:09:42Z</time>
      </trkpt>
      <trkpt lat="45.12621" lon="5.23089">
        <ele>322.8</ele>
        <time>2010-10-23T14:09:43Z</time>
      </trkpt>
      <trkpt lat="45.1262" lon="5.23088">
        <ele>322</ele>
        <time>2010-10-23T14:09:45Z</time>
      </trkpt>
      <trkpt lat="45.1262" lon="5.23087">
        <ele>322.1</ele>
        <time>2010-10-23T14:10:19Z</time>
      </trkpt>
      <trkpt lat="45.12617" lon="5.23094">
        <ele>322.8</ele>
        <time>2010-10-23T14:10:20Z</time>
      </trkpt>
      <trkpt lat="45.12615" lon="5.23096">
        <ele>322.9</ele>
        <time>2010-10-23T14:10:21Z</time>
      </trkpt>
      <trkpt lat="45.12614" lon="5.23097">
        <ele>323</ele>
        <time>2010-10-23T14:10:22Z</time>
      </trkpt>
      <trkpt lat="45.12612" lon="5.23098">
        <ele>322.8</ele>
        <time>2010-10-23T14:10:23Z</time>
      </trkpt>
      <trkpt lat="45.12609" lon="5.23099">
        <ele>322.6</ele>
        <time>2010-10-23T14:10:24Z</time>
      </trkpt>
      <trkpt lat="45.12606" lon="5.23097">
        <ele>322.1</ele>
        <time>2010-10-23T14:10:25Z</time>
      </trkpt>
      <trkpt lat="45.12602" lon="5.23096">
        <ele>321.8</ele>
        <time>2010-10-23T14:10:26Z</time>
      </trkpt>
      <trkpt lat="45.12599" lon="5.23093">
        <ele>319</ele>
        <time>2010-10-23T14:10:27Z</time>
      </trkpt>
      <trkpt lat="45.12596" lon="5.23092">
        <ele>318.6</ele>
        <time>2010-10-23T14:10:28Z</time>
      </trkpt>
      <trkpt lat="45.12592" lon="5.23091">
        <ele>316.6</ele>
        <time>2010-10-23T14:10:29Z</time>
      </trkpt>
      <trkpt lat="45.12589" lon="5.2309">
        <ele>316.6</ele>
        <time>2010-10-23T14:10:30Z</time>
      </trkpt>
      <trkpt lat="45.12585" lon="5.23092">
        <ele>316</ele>
        <time>2010-10-23T14:10:31Z</time>
      </trkpt>
      <trkpt lat="45.12582" lon="5.23093">
        <ele>316.5</ele>
        <time>2010-10-23T14:10:32Z</time>
      </trkpt>
      <trkpt lat="45.12578" lon="5.23095">
        <ele>315.3</ele>
        <time>2010-10-23T14:10:33Z</time>
      </trkpt>
      <trkpt lat="45.12575" lon="5.23096">
        <ele>315.2</ele>
        <time>2010-10-23T14:10:34Z</time>
      </trkpt>
      <trkpt lat="45.12571" lon="5.23097">
        <ele>315.2</ele>
        <time>2010-10-23T14:10:35Z</time>
      </trkpt>
      <trkpt lat="45.12568" lon="5.23098">
        <ele>315.2</ele>
        <time>2010-10-23T14:10:36Z</time>
      </trkpt>
      <trkpt lat="45.12565" lon="5.231">
        <ele>315.3</ele>
        <time>2010-10-23T14:10:37Z</time>
      </trkpt>
      <trkpt lat="45.12562" lon="5.23101">
        <ele>315</ele>
        <time>2010-10-23T14:10:37Z</time>
      </trkpt>
      <trkpt lat="45.1256" lon="5.23101">
        <ele>315.4</ele>
        <time>2010-10-23T14:10:39Z</time>
      </trkpt>
      <trkpt lat="45.12558" lon="5.23101">
        <ele>315.3</ele>
        <time>2010-10-23T14:10:40Z</time>
      </trkpt>
      <trkpt lat="45.12556" lon="5.23103">
        <ele>314.9</ele>
        <time>2010-10-23T14:10:41Z</time>
      </trkpt>
      <trkpt lat="45.12557" lon="5.23102">
        <ele>314.5</ele>
        <time>2010-10-23T14:10:43Z</time>
      </trkpt>
      <trkpt lat="45.12558" lon="5.231">
        <ele>315.2</ele>
        <time>2010-10-23T14:10:44Z</time>
      </trkpt>
      <trkpt lat="45.12558" lon="5.231">
        <ele>315.5</ele>
        <time>2010-10-23T14:10:52Z</time>
      </trkpt>
      <trkpt lat="45.12558" lon="5.23099">
        <ele>315.4</ele>
        <time>2010-10-23T14:10:53Z</time>
      </trkpt>
      <trkpt lat="45.12559" lon="5.23099">
        <ele>315.5</ele>
        <time>2010-10-23T14:10:54Z</time>
      </trkpt>
      <trkpt lat="45.1256" lon="5.23098">
        <ele>315.4</ele>
        <time>2010-10-23T14:10:55Z</time>
      </trkpt>
      <trkpt lat="45.12564" lon="5.23096">
        <ele>314.9</ele>
        <time>2010-10-23T14:10:56Z</time>
      </trkpt>
      <trkpt lat="45.12568" lon="5.23093">
        <ele>314.2</ele>
        <time>2010-10-23T14:10:56Z</time>
      </trkpt>
      <trkpt lat="45.12573" lon="5.23091">
        <ele>314.8</ele>
        <time>2010-10-23T14:10:57Z</time>
      </trkpt>
      <trkpt lat="45.12578" lon="5.23089">
        <ele>314.7</ele>
        <time>2010-10-23T14:10:59Z</time>
      </trkpt>
      <trkpt lat="45.12583" lon="5.23089">
        <ele>314.8</ele>
        <time>2010-10-23T14:11:00Z</time>
      </trkpt>
      <trkpt lat="45.12588" lon="5.2309">
        <ele>315.3</ele>
        <time>2010-10-23T14:11:01Z</time>
      </trkpt>
      <trkpt lat="45.12592" lon="5.2309">
        <ele>315.8</ele>
        <time>2010-10-23T14:11:02Z</time>
      </trkpt>
      <trkpt lat="45.12595" lon="5.23089">
        <ele>315.5</ele>
        <time>2010-10-23T14:11:03Z</time>
      </trkpt>
      <trkpt lat="45.12599" lon="5.23088">
        <ele>315.9</ele>
        <time>2010-10-23T14:11:04Z</time>
      </trkpt>
      <trkpt lat="45.12602" lon="5.23087">
        <ele>316</ele>
        <time>2010-10-23T14:11:05Z</time>
      </trkpt>
      <trkpt lat="45.12606" lon="5.23086">
        <ele>316.6</ele>
        <time>2010-10-23T14:11:06Z</time>
      </trkpt>
      <trkpt lat="45.12609" lon="5.23085">
        <ele>316.4</ele>
        <time>2010-10-23T14:11:07Z</time>
      </trkpt>
      <trkpt lat="45.12609" lon="5.23085">
        <ele>316.9</ele>
        <time>2010-10-23T14:11:08Z</time>
      </trkpt>
      <trkpt lat="45.12611" lon="5.23085">
        <ele>317</ele>
        <time>2010-10-23T14:11:09Z</time>
      </trkpt>
      <trkpt lat="45.12612" lon="5.23084">
        <ele>317.2</ele>
        <time>2010-10-23T14:11:19Z</time>
      </trkpt>
      <trkpt lat="45.12611" lon="5.23085">
        <ele>317</ele>
        <time>2010-10-23T14:11:20Z</time>
      </trkpt>
      <trkpt lat="45.1261" lon="5.23085">
        <ele>317</ele>
        <time>2010-10-23T14:11:31Z</time>
      </trkpt>
      <trkpt lat="45.1261" lon="5.23086">
        <ele>318.3</ele>
        <time>2010-10-23T14:11:32Z</time>
      </trkpt>
      <trkpt lat="45.12609" lon="5.23086">
        <ele>318.8</ele>
        <time>2010-10-23T14:11:51Z</time>
      </trkpt>
      <trkpt lat="45.12608" lon="5.23087">
        <ele>319.9</ele>
        <time>2010-10-23T14:11:52Z</time>
      </trkpt>
      <trkpt lat="45.12608" lon="5.23087">
        <ele>319.8</ele>
        <time>2010-10-23T14:11:54Z</time>
      </trkpt>
      <trkpt lat="45.12608" lon="5.23088">
        <ele>320.3</ele>
        <time>2010-10-23T14:12:00Z</time>
      </trkpt>
      <trkpt lat="45.12607" lon="5.23089">
        <ele>321.9</ele>
        <time>2010-10-23T14:12:01Z</time>
      </trkpt>
      <trkpt lat="45.12606" lon="5.23091">
        <ele>322.1</ele>
        <time>2010-10-23T14:12:02Z</time>
      </trkpt>
      <trkpt lat="45.12605" lon="5.23092">
        <ele>322.2</ele>
        <time>2010-10-23T14:12:03Z</time>
      </trkpt>
      <trkpt lat="45.12603" lon="5.23094">
        <ele>322.1</ele>
        <time>2010-10-23T14:12:04Z</time>
      </trkpt>
      <trkpt lat="45.12603" lon="5.23095">
        <ele>321.4</ele>
        <time>2010-10-23T14:12:05Z</time>
      </trkpt>
      <trkpt lat="45.12602" lon="5.23097">
        <ele>321.6</ele>
        <time>2010-10-23T14:12:06Z</time>
      </trkpt>
      <trkpt lat="45.12601" lon="5.23099">
        <ele>321.5</ele>
        <time>2010-10-23T14:12:07Z</time>
      </trkpt>
      <trkpt lat="45.12601" lon="5.231">
        <ele>321.4</ele>
        <time>2010-10-23T14:12:08Z</time>
      </trkpt>
      <trkpt lat="45.126" lon="5.23102">
        <ele>321</ele>
        <time>2010-10-23T14:12:09Z</time>
      </trkpt>
      <trkpt lat="45.12599" lon="5.23103">
        <ele>321.8</ele>
        <time>2010-10-23T14:12:10Z</time>
      </trkpt>
      <trkpt lat="45.126" lon="5.23103">
        <ele>321.8</ele>
        <time>2010-10-23T14:12:14Z</time>
      </trkpt>
      <trkpt lat="45.12599" lon="5.23104">
        <ele>321.8</ele>
        <time>2010-10-23T14:12:15Z</time>
      </trkpt>
      <trkpt lat="45.12598" lon="5.23105">
        <ele>321.9</ele>
        <time>2010-10-23T14:12:16Z</time>
      </trkpt>
      <trkpt lat="45.12598" lon="5.23105">
        <ele>321.9</ele>
        <time>2010-10-23T14:12:23Z</time>
      </trkpt>
      <trkpt lat="45.12597" lon="5.23106">
        <ele>322.6</ele>
        <time>2010-10-23T14:12:24Z</time>
      </trkpt>
      <trkpt lat="45.12597" lon="5.23106">
        <ele>322.6</ele>
        <time>2010-10-23T14:14:29Z</time>
      </trkpt>
      <trkpt lat="45.12598" lon="5.23103">
        <ele>322.3</ele>
        <time>2010-10-23T14:14:30Z</time>
      </trkpt>
      <trkpt lat="45.12598" lon="5.23103">
        <ele>322.5</ele>
        <time>2010-10-23T14:14:31Z</time>
      </trkpt>
      <trkpt lat="45.12597" lon="5.23101">
        <ele>320.8</ele>
        <time>2010-10-23T14:14:32Z</time>
      </trkpt>
      <trkpt lat="45.12597" lon="5.231">
        <ele>320.4</ele>
        <time>2010-10-23T14:14:33Z</time>
      </trkpt>
      <trkpt lat="45.12597" lon="5.23099">
        <ele>320.5</ele>
        <time>2010-10-23T14:14:35Z</time>
      </trkpt>
      <trkpt lat="45.12597" lon="5.23097">
        <ele>320.2</ele>
        <time>2010-10-23T14:14:35Z</time>
      </trkpt>
      <trkpt lat="45.12596" lon="5.23095">
        <ele>319.8</ele>
        <time>2010-10-23T14:14:38Z</time>
      </trkpt>
      <trkpt lat="45.12596" lon="5.23093">
        <ele>319.9</ele>
        <time>2010-10-23T14:14:39Z</time>
      </trkpt>
      <trkpt lat="45.12595" lon="5.23092">
        <ele>319.7</ele>
        <time>2010-10-23T14:14:41Z</time>
      </trkpt>
      <trkpt lat="45.12596" lon="5.2309">
        <ele>319.8</ele>
        <time>2010-10-23T14:14:42Z</time>
      </trkpt>
      <trkpt lat="45.12596" lon="5.23088">
        <ele>319.8</ele>
        <time>2010-10-23T14:14:44Z</time>
      </trkpt>
      <trkpt lat="45.12598" lon="5.23089">
        <ele>319.5</ele>
        <time>2010-10-23T14:14:45Z</time>
      </trkpt>
      <trkpt lat="45.126" lon="5.23093">
        <ele>318.3</ele>
        <time>2010-10-23T14:14:46Z</time>
      </trkpt>
      <trkpt lat="45.126" lon="5.23096">
        <ele>317.9</ele>
        <time>2010-10-23T14:14:47Z</time>
      </trkpt>
      <trkpt lat="45.126" lon="5.23097">
        <ele>317.9</ele>
        <time>2010-10-23T14:14:48Z</time>
      </trkpt>
      <trkpt lat="45.12599" lon="5.23097">
        <ele>317.8</ele>
        <time>2010-10-23T14:14:49Z</time>
      </trkpt>
      <trkpt lat="45.12598" lon="5.23098">
        <ele>317.5</ele>
        <time>2010-10-23T14:14:50Z</time>
      </trkpt>
      <trkpt lat="45.12597" lon="5.23098">
        <ele>317.5</ele>
        <time>2010-10-23T14:14:53Z</time>
      </trkpt>
      <trkpt lat="45.12597" lon="5.23097">
        <ele>317.3</ele>
        <time>2010-10-23T14:14:55Z</time>
      </trkpt>
      <trkpt lat="45.12597" lon="5.23095">
        <ele>317.1</ele>
        <time>2010-10-23T14:14:55Z</time>
      </trkpt>
      <trkpt lat="45.12598" lon="5.23095">
        <ele>317.3</ele>
        <time>2010-10-23T14:14:57Z</time>
      </trkpt>
      <trkpt lat="45.12596" lon="5.23093">
        <ele>317.4</ele>
        <time>2010-10-23T14:14:58Z</time>
      </trkpt>
      <trkpt lat="45.12594" lon="5.23092">
        <ele>316.8</ele>
        <time>2010-10-23T14:14:59Z</time>
      </trkpt>
      <trkpt lat="45.12591" lon="5.23091">
        <ele>317.8</ele>
        <time>2010-10-23T14:15:00Z</time>
      </trkpt>
      <trkpt lat="45.12586" lon="5.23092">
        <ele>319</ele>
        <time>2010-10-23T14:15:01Z</time>
      </trkpt>
      <trkpt lat="45.12584" lon="5.2309">
        <ele>318.9</ele>
        <time>2010-10-23T14:15:02Z</time>
      </trkpt>
      <trkpt lat="45.12582" lon="5.23088">
        <ele>319.1</ele>
        <time>2010-10-23T14:15:03Z</time>
      </trkpt>
      <trkpt lat="45.12579" lon="5.23088">
        <ele>318.9</ele>
        <time>2010-10-23T14:15:04Z</time>
      </trkpt>
      <trkpt lat="45.12578" lon="5.23089">
        <ele>319.1</ele>
        <time>2010-10-23T14:15:05Z</time>
      </trkpt>
      <trkpt lat="45.12575" lon="5.23091">
        <ele>318.5</ele>
        <time>2010-10-23T14:15:06Z</time>
      </trkpt>
      <trkpt lat="45.12573" lon="5.23092">
        <ele>317.9</ele>
        <time>2010-10-23T14:15:07Z</time>
      </trkpt>
      <trkpt lat="45.12569" lon="5.23093">
        <ele>317.5</ele>
        <time>2010-10-23T14:15:08Z</time>
      </trkpt>
      <trkpt lat="45.12568" lon="5.23094">
        <ele>317.5</ele>
        <time>2010-10-23T14:15:09Z</time>
      </trkpt>
      <trkpt lat="45.12565" lon="5.23095">
        <ele>317.1</ele>
        <time>2010-10-23T14:15:10Z</time>
      </trkpt>
      <trkpt lat="45.12562" lon="5.23095">
        <ele>316.8</ele>
        <time>2010-10-23T14:15:11Z</time>
      </trkpt>
      <trkpt lat="45.12561" lon="5.23097">
        <ele>316.5</ele>
        <time>2010-10-23T14:15:12Z</time>
      </trkpt>
      <trkpt lat="45.12559" lon="5.23099">
        <ele>316.3</ele>
        <time>2010-10-23T14:15:13Z</time>
      </trkpt>
      <trkpt lat="45.12555" lon="5.231">
        <ele>316.2</ele>
        <time>2010-10-23T14:15:14Z</time>
      </trkpt>
      <trkpt lat="45.12552" lon="5.23102">
        <ele>316.2</ele>
        <time>2010-10-23T14:15:15Z</time>
      </trkpt>
      <trkpt lat="45.12549" lon="5.23103">
        <ele>316.3</ele>
        <time>2010-10-23T14:15:15Z</time>
      </trkpt>
      <trkpt lat="45.12546" lon="5.23106">
        <ele>318.4</ele>
        <time>2010-10-23T14:15:17Z</time>
      </trkpt>
      <trkpt lat="45.12544" lon="5.23107">
        <ele>317.9</ele>
        <time>2010-10-23T14:15:18Z</time>
      </trkpt>
      <trkpt lat="45.12539" lon="5.23108">
        <ele>316.7</ele>
        <time>2010-10-23T14:15:19Z</time>
      </trkpt>
      <trkpt lat="45.12536" lon="5.2311">
        <ele>316.2</ele>
        <time>2010-10-23T14:15:20Z</time>
      </trkpt>
      <trkpt lat="45.12533" lon="5.23112">
        <ele>315.7</ele>
        <time>2010-10-23T14:15:21Z</time>
      </trkpt>
      <trkpt lat="45.12531" lon="5.23114">
        <ele>314.5</ele>
        <time>2010-10-23T14:15:22Z</time>
      </trkpt>
      <trkpt lat="45.12527" lon="5.23116">
        <ele>314.5</ele>
        <time>2010-10-23T14:15:23Z</time>
      </trkpt>
      <trkpt lat="45.12524" lon="5.23117">
        <ele>314.2</ele>
        <time>2010-10-23T14:15:24Z</time>
      </trkpt>
      <trkpt lat="45.1252" lon="5.23118">
        <ele>313.8</ele>
        <time>2010-10-23T14:15:25Z</time>
      </trkpt>
      <trkpt lat="45.12515" lon="5.23119">
        <ele>313.8</ele>
        <time>2010-10-23T14:15:26Z</time>
      </trkpt>
      <trkpt lat="45.12511" lon="5.2312">
        <ele>313.7</ele>
        <time>2010-10-23T14:15:27Z</time>
      </trkpt>
      <trkpt lat="45.12507" lon="5.23121">
        <ele>313.4</ele>
        <time>2010-10-23T14:15:28Z</time>
      </trkpt>
      <trkpt lat="45.12503" lon="5.23121">
        <ele>313.4</ele>
        <time>2010-10-23T14:15:29Z</time>
      </trkpt>
      <trkpt lat="45.12499" lon="5.23122">
        <ele>313.5</ele>
        <time>2010-10-23T14:15:30Z</time>
      </trkpt>
      <trkpt lat="45.12494" lon="5.23123">
        <ele>313.4</ele>
        <time>2010-10-23T14:15:31Z</time>
      </trkpt>
      <trkpt lat="45.12491" lon="5.23123">
        <ele>313.3</ele>
        <time>2010-10-23T14:15:32Z</time>
      </trkpt>
      <trkpt lat="45.12486" lon="5.23123">
        <ele>313.2</ele>
        <time>2010-10-23T14:15:33Z</time>
      </trkpt>
      <trkpt lat="45.12483" lon="5.23123">
        <ele>313.2</ele>
        <time>2010-10-23T14:15:34Z</time>
      </trkpt>
      <trkpt lat="45.12479" lon="5.23122">
        <ele>313.1</ele>
        <time>2010-10-23T14:15:34Z</time>
      </trkpt>
      <trkpt lat="45.12473" lon="5.23124">
        <ele>314.4</ele>
        <time>2010-10-23T14:15:35Z</time>
      </trkpt>
      <trkpt lat="45.12469" lon="5.23124">
        <ele>316.5</ele>
        <time>2010-10-23T14:15:37Z</time>
      </trkpt>
      <trkpt lat="45.12464" lon="5.23122">
        <ele>317</ele>
        <time>2010-10-23T14:15:38Z</time>
      </trkpt>
      <trkpt lat="45.1246" lon="5.23123">
        <ele>317.7</ele>
        <time>2010-10-23T14:15:39Z</time>
      </trkpt>
      <trkpt lat="45.12457" lon="5.23123">
        <ele>318.6</ele>
        <time>2010-10-23T14:15:40Z</time>
      </trkpt>
      <trkpt lat="45.12454" lon="5.23123">
        <ele>318.9</ele>
        <time>2010-10-23T14:15:41Z</time>
      </trkpt>
      <trkpt lat="45.12452" lon="5.23122">
        <ele>318.5</ele>
        <time>2010-10-23T14:15:42Z</time>
      </trkpt>
      <trkpt lat="45.12448" lon="5.2312">
        <ele>318.9</ele>
        <time>2010-10-23T14:15:43Z</time>
      </trkpt>
      <trkpt lat="45.12449" lon="5.23118">
        <ele>319.1</ele>
        <time>2010-10-23T14:15:45Z</time>
      </trkpt>
      <trkpt lat="45.12452" lon="5.23121">
        <ele>318.7</ele>
        <time>2010-10-23T14:15:46Z</time>
      </trkpt>
      <trkpt lat="45.12454" lon="5.23121">
        <ele>318.8</ele>
        <time>2010-10-23T14:15:47Z</time>
      </trkpt>
      <trkpt lat="45.12453" lon="5.23122">
        <ele>319.2</ele>
        <time>2010-10-23T14:15:49Z</time>
      </trkpt>
      <trkpt lat="45.12452" lon="5.23122">
        <ele>319.3</ele>
        <time>2010-10-23T14:15:50Z</time>
      </trkpt>
      <trkpt lat="45.12447" lon="5.2312">
        <ele>318.8</ele>
        <time>2010-10-23T14:15:51Z</time>
      </trkpt>
      <trkpt lat="45.12444" lon="5.23119">
        <ele>318.4</ele>
        <time>2010-10-23T14:15:52Z</time>
      </trkpt>
      <trkpt lat="45.12442" lon="5.23119">
        <ele>318.7</ele>
        <time>2010-10-23T14:15:53Z</time>
      </trkpt>
      <trkpt lat="45.12438" lon="5.23119">
        <ele>318.4</ele>
        <time>2010-10-23T14:15:54Z</time>
      </trkpt>
      <trkpt lat="45.12435" lon="5.23118">
        <ele>317.9</ele>
        <time>2010-10-23T14:15:54Z</time>
      </trkpt>
      <trkpt lat="45.12432" lon="5.23118">
        <ele>317.8</ele>
        <time>2010-10-23T14:15:55Z</time>
      </trkpt>
      <trkpt lat="45.1243" lon="5.23118">
        <ele>317.9</ele>
        <time>2010-10-23T14:15:57Z</time>
      </trkpt>
      <trkpt lat="45.12427" lon="5.23119">
        <ele>317.9</ele>
        <time>2010-10-23T14:15:58Z</time>
      </trkpt>
      <trkpt lat="45.12424" lon="5.2312">
        <ele>317.9</ele>
        <time>2010-10-23T14:15:59Z</time>
      </trkpt>
      <trkpt lat="45.1242" lon="5.23121">
        <ele>317.8</ele>
        <time>2010-10-23T14:16:00Z</time>
      </trkpt>
      <trkpt lat="45.12418" lon="5.23122">
        <ele>318.2</ele>
        <time>2010-10-23T14:16:01Z</time>
      </trkpt>
      <trkpt lat="45.12414" lon="5.23122">
        <ele>318.7</ele>
        <time>2010-10-23T14:16:02Z</time>
      </trkpt>
      <trkpt lat="45.12411" lon="5.23123">
        <ele>319.8</ele>
        <time>2010-10-23T14:16:03Z</time>
      </trkpt>
      <trkpt lat="45.12408" lon="5.23125">
        <ele>319.7</ele>
        <time>2010-10-23T14:16:04Z</time>
      </trkpt>
      <trkpt lat="45.12404" lon="5.23127">
        <ele>320.5</ele>
        <time>2010-10-23T14:16:05Z</time>
      </trkpt>
      <trkpt lat="45.124" lon="5.23128">
        <ele>320.7</ele>
        <time>2010-10-23T14:16:06Z</time>
      </trkpt>
      <trkpt lat="45.12397" lon="5.2313">
        <ele>321</ele>
        <time>2010-10-23T14:16:07Z</time>
      </trkpt>
      <trkpt lat="45.12393" lon="5.23131">
        <ele>321.4</ele>
        <time>2010-10-23T14:16:08Z</time>
      </trkpt>
      <trkpt lat="45.1239" lon="5.23133">
        <ele>322.5</ele>
        <time>2010-10-23T14:16:09Z</time>
      </trkpt>
      <trkpt lat="45.12387" lon="5.23132">
        <ele>321.3</ele>
        <time>2010-10-23T14:16:10Z</time>
      </trkpt>
      <trkpt lat="45.12386" lon="5.23132">
        <ele>321.1</ele>
        <time>2010-10-23T14:16:11Z</time>
      </trkpt>
      <trkpt lat="45.12384" lon="5.23133">
        <ele>321</ele>
        <time>2010-10-23T14:16:12Z</time>
      </trkpt>
      <trkpt lat="45.12382" lon="5.23133">
        <ele>322</ele>
        <time>2010-10-23T14:16:13Z</time>
      </trkpt>
      <trkpt lat="45.12379" lon="5.23134">
        <ele>322.9</ele>
        <time>2010-10-23T14:16:14Z</time>
      </trkpt>
      <trkpt lat="45.12376" lon="5.23134">
        <ele>324.2</ele>
        <time>2010-10-23T14:16:15Z</time>
      </trkpt>
      <trkpt lat="45.12375" lon="5.23134">
        <ele>323.4</ele>
        <time>2010-10-23T14:16:17Z</time>
      </trkpt>
      <trkpt lat="45.12373" lon="5.23134">
        <ele>321.8</ele>
        <time>2010-10-23T14:16:18Z</time>
      </trkpt>
      <trkpt lat="45.12372" lon="5.23135">
        <ele>321.9</ele>
        <time>2010-10-23T14:16:19Z</time>
      </trkpt>
      <trkpt lat="45.12372" lon="5.23136">
        <ele>321.6</ele>
        <time>2010-10-23T14:16:20Z</time>
      </trkpt>
      <trkpt lat="45.12372" lon="5.23138">
        <ele>322</ele>
        <time>2010-10-23T14:16:21Z</time>
      </trkpt>
      <trkpt lat="45.12373" lon="5.23141">
        <ele>321.7</ele>
        <time>2010-10-23T14:16:22Z</time>
      </trkpt>
      <trkpt lat="45.12373" lon="5.23143">
        <ele>321.4</ele>
        <time>2010-10-23T14:16:23Z</time>
      </trkpt>
      <trkpt lat="45.12372" lon="5.23146">
        <ele>321.6</ele>
        <time>2010-10-23T14:16:24Z</time>
      </trkpt>
      <trkpt lat="45.12372" lon="5.23149">
        <ele>322.6</ele>
        <time>2010-10-23T14:16:25Z</time>
      </trkpt>
      <trkpt lat="45.12371" lon="5.23152">
        <ele>322.4</ele>
        <time>2010-10-23T14:16:26Z</time>
      </trkpt>
      <trkpt lat="45.12371" lon="5.23155">
        <ele>322.6</ele>
        <time>2010-10-23T14:16:27Z</time>
      </trkpt>
      <trkpt lat="45.1237" lon="5.23157">
        <ele>322.5</ele>
        <time>2010-10-23T14:16:29Z</time>
      </trkpt>
      <trkpt lat="45.12369" lon="5.23164">
        <ele>322.5</ele>
        <time>2010-10-23T14:16:30Z</time>
      </trkpt>
      <trkpt lat="45.1237" lon="5.2317">
        <ele>322.3</ele>
        <time>2010-10-23T14:16:31Z</time>
      </trkpt>
      <trkpt lat="45.1237" lon="5.23173">
        <ele>322.3</ele>
        <time>2010-10-23T14:16:32Z</time>
      </trkpt>
      <trkpt lat="45.12371" lon="5.23177">
        <ele>323</ele>
        <time>2010-10-23T14:16:33Z</time>
      </trkpt>
      <trkpt lat="45.1237" lon="5.2318">
        <ele>323</ele>
        <time>2010-10-23T14:16:34Z</time>
      </trkpt>
      <trkpt lat="45.12369" lon="5.23183">
        <ele>324.2</ele>
        <time>2010-10-23T14:16:34Z</time>
      </trkpt>
      <trkpt lat="45.12368" lon="5.23185">
        <ele>324.3</ele>
        <time>2010-10-23T14:16:36Z</time>
      </trkpt>
      <trkpt lat="45.12366" lon="5.23186">
        <ele>324.3</ele>
        <time>2010-10-23T14:16:37Z</time>
      </trkpt>
      <trkpt lat="45.12364" lon="5.23188">
        <ele>324.3</ele>
        <time>2010-10-23T14:16:39Z</time>
      </trkpt>
      <trkpt lat="45.12364" lon="5.23191">
        <ele>324.1</ele>
        <time>2010-10-23T14:16:40Z</time>
      </trkpt>
      <trkpt lat="45.12364" lon="5.2319">
        <ele>324.6</ele>
        <time>2010-10-23T14:16:43Z</time>
      </trkpt>
      <trkpt lat="45.12364" lon="5.23189">
        <ele>324.6</ele>
        <time>2010-10-23T14:16:45Z</time>
      </trkpt>
      <trkpt lat="45.12365" lon="5.2319">
        <ele>326.3</ele>
        <time>2010-10-23T14:16:46Z</time>
      </trkpt>
      <trkpt lat="45.12364" lon="5.2319">
        <ele>325.8</ele>
        <time>2010-10-23T14:16:47Z</time>
      </trkpt>
      <trkpt lat="45.12365" lon="5.23191">
        <ele>325.9</ele>
        <time>2010-10-23T14:16:48Z</time>
      </trkpt>
      <trkpt lat="45.12365" lon="5.2319">
        <ele>325.3</ele>
        <time>2010-10-23T14:18:05Z</time>
      </trkpt>
      <trkpt lat="45.12362" lon="5.23189">
        <ele>325.8</ele>
        <time>2010-10-23T14:18:06Z</time>
      </trkpt>
      <trkpt lat="45.12361" lon="5.23189">
        <ele>324.8</ele>
        <time>2010-10-23T14:18:07Z</time>
      </trkpt>
      <trkpt lat="45.1236" lon="5.2319">
        <ele>325.2</ele>
        <time>2010-10-23T14:18:09Z</time>
      </trkpt>
      <trkpt lat="45.1236" lon="5.23188">
        <ele>325</ele>
        <time>2010-10-23T14:18:10Z</time>
      </trkpt>
      <trkpt lat="45.12361" lon="5.23187">
        <ele>325.2</ele>
        <time>2010-10-23T14:18:12Z</time>
      </trkpt>
      <trkpt lat="45.12362" lon="5.23187">
        <ele>325.8</ele>
        <time>2010-10-23T14:18:13Z</time>
      </trkpt>
      <trkpt lat="45.12362" lon="5.23187">
        <ele>326</ele>
        <time>2010-10-23T14:18:17Z</time>
      </trkpt>
      <trkpt lat="45.12362" lon="5.23187">
        <ele>326.3</ele>
        <time>2010-10-23T14:18:18Z</time>
      </trkpt>
      <trkpt lat="45.12362" lon="5.23187">
        <ele>326.3</ele>
        <time>2010-10-23T14:18:27Z</time>
      </trkpt>
      <trkpt lat="45.12361" lon="5.23185">
        <ele>325.7</ele>
        <time>2010-10-23T14:18:28Z</time>
      </trkpt>
      <trkpt lat="45.12361" lon="5.23185">
        <ele>325.9</ele>
        <time>2010-10-23T14:18:48Z</time>
      </trkpt>
      <trkpt lat="45.12359" lon="5.23184">
        <ele>325.6</ele>
        <time>2010-10-23T14:18:49Z</time>
      </trkpt>
      <trkpt lat="45.12359" lon="5.23184">
        <ele>324.9</ele>
        <time>2010-10-23T14:18:51Z</time>
      </trkpt>
      <trkpt lat="45.12359" lon="5.23185">
        <ele>325.3</ele>
        <time>2010-10-23T14:18:53Z</time>
      </trkpt>
      <trkpt lat="45.1236" lon="5.23185">
        <ele>327</ele>
        <time>2010-10-23T14:18:53Z</time>
      </trkpt>
      <trkpt lat="45.1236" lon="5.23186">
        <ele>326.9</ele>
        <time>2010-10-23T14:18:55Z</time>
      </trkpt>
      <trkpt lat="45.12361" lon="5.23187">
        <ele>326.1</ele>
        <time>2010-10-23T14:18:56Z</time>
      </trkpt>
      <trkpt lat="45.12361" lon="5.23188">
        <ele>326.2</ele>
        <time>2010-10-23T14:19:21Z</time>
      </trkpt>
      <trkpt lat="45.12362" lon="5.23187">
        <ele>328</ele>
        <time>2010-10-23T14:19:22Z</time>
      </trkpt>
      <trkpt lat="45.12362" lon="5.23186">
        <ele>328.3</ele>
        <time>2010-10-23T14:19:26Z</time>
      </trkpt>
      <trkpt lat="45.1236" lon="5.23185">
        <ele>325.8</ele>
        <time>2010-10-23T14:19:27Z</time>
      </trkpt>
      <trkpt lat="45.1236" lon="5.23185">
        <ele>326.8</ele>
        <time>2010-10-23T14:19:28Z</time>
      </trkpt>
      <trkpt lat="45.1236" lon="5.23185">
        <ele>327</ele>
        <time>2010-10-23T14:19:31Z</time>
      </trkpt>
      <trkpt lat="45.1236" lon="5.23187">
        <ele>328.4</ele>
        <time>2010-10-23T14:19:32Z</time>
      </trkpt>
      <trkpt lat="45.1236" lon="5.23186">
        <ele>328.6</ele>
        <time>2010-10-23T14:19:37Z</time>
      </trkpt>
      <trkpt lat="45.12359" lon="5.23188">
        <ele>331.7</ele>
        <time>2010-10-23T14:19:38Z</time>
      </trkpt>
      <trkpt lat="45.12359" lon="5.23188">
        <ele>332</ele>
        <time>2010-10-23T14:20:56Z</time>
      </trkpt>
      <trkpt lat="45.1236" lon="5.23187">
        <ele>332.2</ele>
        <time>2010-10-23T14:20:57Z</time>
      </trkpt>
      <trkpt lat="45.1236" lon="5.23187">
        <ele>332.2</ele>
        <time>2010-10-23T14:21:00Z</time>
      </trkpt>
      <trkpt lat="45.12359" lon="5.23188">
        <ele>332.1</ele>
        <time>2010-10-23T14:21:26Z</time>
      </trkpt>
      <trkpt lat="45.1236" lon="5.2319">
        <ele>332.1</ele>
        <time>2010-10-23T14:21:27Z</time>
      </trkpt>
      <trkpt lat="45.1236" lon="5.2319">
        <ele>332.2</ele>
        <time>2010-10-23T14:21:28Z</time>
      </trkpt>
      <trkpt lat="45.12358" lon="5.23191">
        <ele>333.1</ele>
        <time>2010-10-23T14:21:29Z</time>
      </trkpt>
      <trkpt lat="45.12358" lon="5.2319">
        <ele>333.4</ele>
        <time>2010-10-23T14:21:30Z</time>
      </trkpt>
      <trkpt lat="45.12357" lon="5.23191">
        <ele>333.7</ele>
        <time>2010-10-23T14:21:31Z</time>
      </trkpt>
      <trkpt lat="45.12358" lon="5.23192">
        <ele>334.3</ele>
        <time>2010-10-23T14:21:34Z</time>
      </trkpt>
      <trkpt lat="45.12358" lon="5.23193">
        <ele>335.8</ele>
        <time>2010-10-23T14:21:35Z</time>
      </trkpt>
      <trkpt lat="45.12358" lon="5.23193">
        <ele>335.6</ele>
        <time>2010-10-23T14:22:37Z</time>
      </trkpt>
      <trkpt lat="45.12358" lon="5.23192">
        <ele>335.4</ele>
        <time>2010-10-23T14:22:39Z</time>
      </trkpt>
      <trkpt lat="45.12359" lon="5.2319">
        <ele>334.9</ele>
        <time>2010-10-23T14:22:40Z</time>
      </trkpt>
      <trkpt lat="45.12359" lon="5.2319">
        <ele>334.7</ele>
        <time>2010-10-23T14:22:44Z</time>
      </trkpt>
      <trkpt lat="45.12359" lon="5.23188">
        <ele>330.3</ele>
        <time>2010-10-23T14:22:45Z</time>
      </trkpt>
      <trkpt lat="45.1236" lon="5.23187">
        <ele>329.8</ele>
        <time>2010-10-23T14:22:47Z</time>
      </trkpt>
      <trkpt lat="45.1236" lon="5.23188">
        <ele>330.9</ele>
        <time>2010-10-23T14:22:48Z</time>
      </trkpt>
      <trkpt lat="45.1236" lon="5.23188">
        <ele>330.6</ele>
        <time>2010-10-23T14:22:51Z</time>
      </trkpt>
      <trkpt lat="45.1236" lon="5.23189">
        <ele>331.7</ele>
        <time>2010-10-23T14:22:52Z</time>
      </trkpt>
      <trkpt lat="45.1236" lon="5.23189">
        <ele>331.7</ele>
        <time>2010-10-23T14:22:57Z</time>
      </trkpt>
      <trkpt lat="45.12359" lon="5.23191">
        <ele>331</ele>
        <time>2010-10-23T14:22:58Z</time>
      </trkpt>
      <trkpt lat="45.12359" lon="5.23191">
        <ele>331</ele>
        <time>2010-10-23T14:23:00Z</time>
      </trkpt>
      <trkpt lat="45.1236" lon="5.23187">
        <ele>331.9</ele>
        <time>2010-10-23T14:23:01Z</time>
      </trkpt>
      <trkpt lat="45.12359" lon="5.23188">
        <ele>332.2</ele>
        <time>2010-10-23T14:23:03Z</time>
      </trkpt>
      <trkpt lat="45.12359" lon="5.23187">
        <ele>333</ele>
        <time>2010-10-23T14:23:04Z</time>
      </trkpt>
      <trkpt lat="45.12359" lon="5.23187">
        <ele>332.8</ele>
        <time>2010-10-23T14:23:11Z</time>
      </trkpt>
      <trkpt lat="45.1236" lon="5.23186">
        <ele>331.9</ele>
        <time>2010-10-23T14:23:11Z</time>
      </trkpt>
      <trkpt lat="45.1236" lon="5.23185">
        <ele>331.9</ele>
        <time>2010-10-23T14:28:04Z</time>
      </trkpt>
      <trkpt lat="45.12201" lon="5.24014">
        <ele>263</ele>
        <time>2010-10-23T14:59:10Z</time>
      </trkpt>
      <trkpt lat="45.12205" lon="5.24011">
        <ele>269.7</ele>
        <time>2010-10-23T14:59:11Z</time>
      </trkpt>
      <trkpt lat="45.12208" lon="5.24008">
        <ele>268.4</ele>
        <time>2010-10-23T14:59:12Z</time>
      </trkpt>
      <trkpt lat="45.12209" lon="5.24009">
        <ele>270.5</ele>
        <time>2010-10-23T14:59:14Z</time>
      </trkpt>
      <trkpt lat="45.12208" lon="5.24014">
        <ele>270.6</ele>
        <time>2010-10-23T14:59:15Z</time>
      </trkpt>
      <trkpt lat="45.12207" lon="5.24018">
        <ele>271.5</ele>
        <time>2010-10-23T14:59:15Z</time>
      </trkpt>
      <trkpt lat="45.12208" lon="5.24022">
        <ele>272.5</ele>
        <time>2010-10-23T14:59:17Z</time>
      </trkpt>
      <trkpt lat="45.12208" lon="5.24027">
        <ele>272.5</ele>
        <time>2010-10-23T14:59:18Z</time>
      </trkpt>
      <trkpt lat="45.12208" lon="5.24031">
        <ele>273.3</ele>
        <time>2010-10-23T14:59:19Z</time>
      </trkpt>
      <trkpt lat="45.12209" lon="5.24035">
        <ele>274.6</ele>
        <time>2010-10-23T14:59:20Z</time>
      </trkpt>
      <trkpt lat="45.1221" lon="5.24039">
        <ele>273.5</ele>
        <time>2010-10-23T14:59:21Z</time>
      </trkpt>
      <trkpt lat="45.12209" lon="5.24043">
        <ele>274.2</ele>
        <time>2010-10-23T14:59:22Z</time>
      </trkpt>
      <trkpt lat="45.12208" lon="5.24048">
        <ele>272.9</ele>
        <time>2010-10-23T14:59:23Z</time>
      </trkpt>
      <trkpt lat="45.12208" lon="5.24053">
        <ele>273.7</ele>
        <time>2010-10-23T14:59:24Z</time>
      </trkpt>
      <trkpt lat="45.1221" lon="5.24057">
        <ele>274</ele>
        <time>2010-10-23T14:59:25Z</time>
      </trkpt>
      <trkpt lat="45.1221" lon="5.2406">
        <ele>273.7</ele>
        <time>2010-10-23T14:59:26Z</time>
      </trkpt>
      <trkpt lat="45.1221" lon="5.24061">
        <ele>273.7</ele>
        <time>2010-10-23T14:59:27Z</time>
      </trkpt>
      <trkpt lat="45.1221" lon="5.24063">
        <ele>273.8</ele>
        <time>2010-10-23T14:59:28Z</time>
      </trkpt>
      <trkpt lat="45.12209" lon="5.24065">
        <ele>273.6</ele>
        <time>2010-10-23T14:59:29Z</time>
      </trkpt>
      <trkpt lat="45.12209" lon="5.24069">
        <ele>273.8</ele>
        <time>2010-10-23T14:59:30Z</time>
      </trkpt>
      <trkpt lat="45.1221" lon="5.24072">
        <ele>274.1</ele>
        <time>2010-10-23T14:59:31Z</time>
      </trkpt>
      <trkpt lat="45.12211" lon="5.24077">
        <ele>274.6</ele>
        <time>2010-10-23T14:59:32Z</time>
      </trkpt>
      <trkpt lat="45.12213" lon="5.24081">
        <ele>275.6</ele>
        <time>2010-10-23T14:59:33Z</time>
      </trkpt>
      <trkpt lat="45.12212" lon="5.24085">
        <ele>275.4</ele>
        <time>2010-10-23T14:59:34Z</time>
      </trkpt>
      <trkpt lat="45.12212" lon="5.24087">
        <ele>274.9</ele>
        <time>2010-10-23T14:59:35Z</time>
      </trkpt>
      <trkpt lat="45.12211" lon="5.24091">
        <ele>274.9</ele>
        <time>2010-10-23T14:59:35Z</time>
      </trkpt>
      <trkpt lat="45.12211" lon="5.24093">
        <ele>274.8</ele>
        <time>2010-10-23T14:59:37Z</time>
      </trkpt>
      <trkpt lat="45.1221" lon="5.24096">
        <ele>274.8</ele>
        <time>2010-10-23T14:59:38Z</time>
      </trkpt>
      <trkpt lat="45.1221" lon="5.24099">
        <ele>274</ele>
        <time>2010-10-23T14:59:39Z</time>
      </trkpt>
      <trkpt lat="45.1221" lon="5.24102">
        <ele>274.1</ele>
        <time>2010-10-23T14:59:40Z</time>
      </trkpt>
      <trkpt lat="45.12211" lon="5.24106">
        <ele>273.7</ele>
        <time>2010-10-23T14:59:41Z</time>
      </trkpt>
      <trkpt lat="45.12211" lon="5.24109">
        <ele>273.2</ele>
        <time>2010-10-23T14:59:42Z</time>
      </trkpt>
      <trkpt lat="45.12212" lon="5.24111">
        <ele>272.8</ele>
        <time>2010-10-23T14:59:43Z</time>
      </trkpt>
      <trkpt lat="45.12213" lon="5.24113">
        <ele>274.3</ele>
        <time>2010-10-23T14:59:44Z</time>
      </trkpt>
      <trkpt lat="45.12213" lon="5.24116">
        <ele>274.6</ele>
        <time>2010-10-23T14:59:45Z</time>
      </trkpt>
      <trkpt lat="45.12214" lon="5.24118">
        <ele>274</ele>
        <time>2010-10-23T14:59:46Z</time>
      </trkpt>
      <trkpt lat="45.12215" lon="5.2412">
        <ele>274.6</ele>
        <time>2010-10-23T14:59:47Z</time>
      </trkpt>
      <trkpt lat="45.12215" lon="5.24123">
        <ele>274.4</ele>
        <time>2010-10-23T14:59:48Z</time>
      </trkpt>
      <trkpt lat="45.12216" lon="5.24126">
        <ele>274.6</ele>
        <time>2010-10-23T14:59:49Z</time>
      </trkpt>
      <trkpt lat="45.12217" lon="5.24129">
        <ele>274.9</ele>
        <time>2010-10-23T14:59:50Z</time>
      </trkpt>
      <trkpt lat="45.12217" lon="5.24132">
        <ele>275</ele>
        <time>2010-10-23T14:59:51Z</time>
      </trkpt>
      <trkpt lat="45.12217" lon="5.24135">
        <ele>275.1</ele>
        <time>2010-10-23T14:59:52Z</time>
      </trkpt>
      <trkpt lat="45.12218" lon="5.24139">
        <ele>274.7</ele>
        <time>2010-10-23T14:59:53Z</time>
      </trkpt>
      <trkpt lat="45.12218" lon="5.24142">
        <ele>274.3</ele>
        <time>2010-10-23T14:59:54Z</time>
      </trkpt>
      <trkpt lat="45.1222" lon="5.24145">
        <ele>273.8</ele>
        <time>2010-10-23T14:59:55Z</time>
      </trkpt>
      <trkpt lat="45.12221" lon="5.24149">
        <ele>273.8</ele>
        <time>2010-10-23T14:59:55Z</time>
      </trkpt>
      <trkpt lat="45.12222" lon="5.24152">
        <ele>273.6</ele>
        <time>2010-10-23T14:59:57Z</time>
      </trkpt>
      <trkpt lat="45.12222" lon="5.24157">
        <ele>273</ele>
        <time>2010-10-23T14:59:58Z</time>
      </trkpt>
      <trkpt lat="45.12223" lon="5.24161">
        <ele>273.1</ele>
        <time>2010-10-23T14:59:59Z</time>
      </trkpt>
      <trkpt lat="45.12225" lon="5.24163">
        <ele>273</ele>
        <time>2010-10-23T15:00:00Z</time>
      </trkpt>
      <trkpt lat="45.12225" lon="5.24166">
        <ele>273.7</ele>
        <time>2010-10-23T15:00:01Z</time>
      </trkpt>
      <trkpt lat="45.12226" lon="5.2417">
        <ele>273.8</ele>
        <time>2010-10-23T15:00:02Z</time>
      </trkpt>
      <trkpt lat="45.12228" lon="5.24172">
        <ele>274.2</ele>
        <time>2010-10-23T15:00:03Z</time>
      </trkpt>
      <trkpt lat="45.1223" lon="5.24172">
        <ele>274.1</ele>
        <time>2010-10-23T15:00:04Z</time>
      </trkpt>
      <trkpt lat="45.1223" lon="5.24176">
        <ele>274.1</ele>
        <time>2010-10-23T15:00:05Z</time>
      </trkpt>
      <trkpt lat="45.12231" lon="5.24178">
        <ele>273.8</ele>
        <time>2010-10-23T15:00:06Z</time>
      </trkpt>
      <trkpt lat="45.12232" lon="5.2418">
        <ele>274</ele>
        <time>2010-10-23T15:00:07Z</time>
      </trkpt>
      <trkpt lat="45.12233" lon="5.24182">
        <ele>274.2</ele>
        <time>2010-10-23T15:00:08Z</time>
      </trkpt>
      <trkpt lat="45.12235" lon="5.24184">
        <ele>274.4</ele>
        <time>2010-10-23T15:00:09Z</time>
      </trkpt>
      <trkpt lat="45.12236" lon="5.24186">
        <ele>274.2</ele>
        <time>2010-10-23T15:00:10Z</time>
      </trkpt>
      <trkpt lat="45.12238" lon="5.24189">
        <ele>274.4</ele>
        <time>2010-10-23T15:00:11Z</time>
      </trkpt>
      <trkpt lat="45.12238" lon="5.24194">
        <ele>274.7</ele>
        <time>2010-10-23T15:00:12Z</time>
      </trkpt>
      <trkpt lat="45.12238" lon="5.242">
        <ele>274.7</ele>
        <time>2010-10-23T15:00:13Z</time>
      </trkpt>
      <trkpt lat="45.12239" lon="5.24204">
        <ele>274.9</ele>
        <time>2010-10-23T15:00:14Z</time>
      </trkpt>
      <trkpt lat="45.1224" lon="5.24208">
        <ele>274.9</ele>
        <time>2010-10-23T15:00:15Z</time>
      </trkpt>
      <trkpt lat="45.12241" lon="5.24212">
        <ele>275.1</ele>
        <time>2010-10-23T15:00:15Z</time>
      </trkpt>
      <trkpt lat="45.12243" lon="5.24215">
        <ele>274.7</ele>
        <time>2010-10-23T15:00:17Z</time>
      </trkpt>
      <trkpt lat="45.12244" lon="5.24218">
        <ele>274.8</ele>
        <time>2010-10-23T15:00:18Z</time>
      </trkpt>
      <trkpt lat="45.12244" lon="5.24222">
        <ele>274.5</ele>
        <time>2010-10-23T15:00:19Z</time>
      </trkpt>
      <trkpt lat="45.12244" lon="5.24227">
        <ele>274.6</ele>
        <time>2010-10-23T15:00:20Z</time>
      </trkpt>
      <trkpt lat="45.12246" lon="5.24231">
        <ele>274.6</ele>
        <time>2010-10-23T15:00:21Z</time>
      </trkpt>
      <trkpt lat="45.12247" lon="5.24235">
        <ele>274.8</ele>
        <time>2010-10-23T15:00:22Z</time>
      </trkpt>
      <trkpt lat="45.12248" lon="5.2424">
        <ele>274.7</ele>
        <time>2010-10-23T15:00:23Z</time>
      </trkpt>
      <trkpt lat="45.12249" lon="5.24248">
        <ele>274.5</ele>
        <time>2010-10-23T15:00:24Z</time>
      </trkpt>
      <trkpt lat="45.1225" lon="5.24253">
        <ele>274.7</ele>
        <time>2010-10-23T15:00:25Z</time>
      </trkpt>
      <trkpt lat="45.12252" lon="5.24257">
        <ele>275</ele>
        <time>2010-10-23T15:00:26Z</time>
      </trkpt>
      <trkpt lat="45.12252" lon="5.24264">
        <ele>275</ele>
        <time>2010-10-23T15:00:27Z</time>
      </trkpt>
      <trkpt lat="45.12253" lon="5.2427">
        <ele>274.7</ele>
        <time>2010-10-23T15:00:28Z</time>
      </trkpt>
      <trkpt lat="45.12253" lon="5.24277">
        <ele>274.4</ele>
        <time>2010-10-23T15:00:29Z</time>
      </trkpt>
      <trkpt lat="45.12255" lon="5.24283">
        <ele>274.8</ele>
        <time>2010-10-23T15:00:30Z</time>
      </trkpt>
      <trkpt lat="45.12256" lon="5.24289">
        <ele>275</ele>
        <time>2010-10-23T15:00:31Z</time>
      </trkpt>
      <trkpt lat="45.12257" lon="5.24296">
        <ele>274.9</ele>
        <time>2010-10-23T15:00:32Z</time>
      </trkpt>
      <trkpt lat="45.12258" lon="5.24302">
        <ele>274.5</ele>
        <time>2010-10-23T15:00:33Z</time>
      </trkpt>
      <trkpt lat="45.1226" lon="5.24309">
        <ele>274.3</ele>
        <time>2010-10-23T15:00:34Z</time>
      </trkpt>
      <trkpt lat="45.12261" lon="5.24315">
        <ele>273.9</ele>
        <time>2010-10-23T15:00:34Z</time>
      </trkpt>
      <trkpt lat="45.12262" lon="5.24322">
        <ele>273.9</ele>
        <time>2010-10-23T15:00:35Z</time>
      </trkpt>
      <trkpt lat="45.12262" lon="5.24328">
        <ele>273.7</ele>
        <time>2010-10-23T15:00:37Z</time>
      </trkpt>
      <trkpt lat="45.12263" lon="5.24334">
        <ele>273.5</ele>
        <time>2010-10-23T15:00:38Z</time>
      </trkpt>
      <trkpt lat="45.12262" lon="5.2434">
        <ele>272.7</ele>
        <time>2010-10-23T15:00:39Z</time>
      </trkpt>
      <trkpt lat="45.12262" lon="5.24346">
        <ele>272.5</ele>
        <time>2010-10-23T15:00:40Z</time>
      </trkpt>
      <trkpt lat="45.12262" lon="5.24352">
        <ele>272.3</ele>
        <time>2010-10-23T15:00:41Z</time>
      </trkpt>
      <trkpt lat="45.12263" lon="5.24358">
        <ele>272.2</ele>
        <time>2010-10-23T15:00:42Z</time>
      </trkpt>
      <trkpt lat="45.12263" lon="5.24364">
        <ele>272.1</ele>
        <time>2010-10-23T15:00:43Z</time>
      </trkpt>
      <trkpt lat="45.12263" lon="5.2437">
        <ele>272.9</ele>
        <time>2010-10-23T15:00:44Z</time>
      </trkpt>
      <trkpt lat="45.12263" lon="5.24375">
        <ele>273.1</ele>
        <time>2010-10-23T15:00:45Z</time>
      </trkpt>
      <trkpt lat="45.12264" lon="5.2438">
        <ele>273.3</ele>
        <time>2010-10-23T15:00:46Z</time>
      </trkpt>
      <trkpt lat="45.12264" lon="5.24385">
        <ele>273.2</ele>
        <time>2010-10-23T15:00:47Z</time>
      </trkpt>
      <trkpt lat="45.12265" lon="5.2439">
        <ele>273.7</ele>
        <time>2010-10-23T15:00:48Z</time>
      </trkpt>
      <trkpt lat="45.12265" lon="5.24395">
        <ele>273.3</ele>
        <time>2010-10-23T15:00:49Z</time>
      </trkpt>
      <trkpt lat="45.12265" lon="5.244">
        <ele>273.4</ele>
        <time>2010-10-23T15:00:50Z</time>
      </trkpt>
      <trkpt lat="45.12265" lon="5.24404">
        <ele>272.3</ele>
        <time>2010-10-23T15:00:51Z</time>
      </trkpt>
      <trkpt lat="45.12266" lon="5.24407">
        <ele>271.9</ele>
        <time>2010-10-23T15:00:52Z</time>
      </trkpt>
      <trkpt lat="45.12266" lon="5.24412">
        <ele>272.5</ele>
        <time>2010-10-23T15:00:53Z</time>
      </trkpt>
      <trkpt lat="45.12266" lon="5.24416">
        <ele>272.3</ele>
        <time>2010-10-23T15:00:54Z</time>
      </trkpt>
      <trkpt lat="45.12266" lon="5.24421">
        <ele>272.3</ele>
        <time>2010-10-23T15:00:54Z</time>
      </trkpt>
      <trkpt lat="45.12266" lon="5.24425">
        <ele>272.2</ele>
        <time>2010-10-23T15:00:55Z</time>
      </trkpt>
      <trkpt lat="45.12267" lon="5.24429">
        <ele>272.2</ele>
        <time>2010-10-23T15:00:57Z</time>
      </trkpt>
      <trkpt lat="45.12268" lon="5.24434">
        <ele>272.2</ele>
        <time>2010-10-23T15:00:58Z</time>
      </trkpt>
      <trkpt lat="45.12268" lon="5.24439">
        <ele>272.4</ele>
        <time>2010-10-23T15:00:59Z</time>
      </trkpt>
      <trkpt lat="45.12267" lon="5.24444">
        <ele>271.8</ele>
        <time>2010-10-23T15:01:00Z</time>
      </trkpt>
      <trkpt lat="45.12268" lon="5.24447">
        <ele>272</ele>
        <time>2010-10-23T15:01:01Z</time>
      </trkpt>
      <trkpt lat="45.12268" lon="5.24451">
        <ele>272.1</ele>
        <time>2010-10-23T15:01:02Z</time>
      </trkpt>
      <trkpt lat="45.12269" lon="5.24454">
        <ele>271.4</ele>
        <time>2010-10-23T15:01:03Z</time>
      </trkpt>
      <trkpt lat="45.12269" lon="5.24458">
        <ele>271.3</ele>
        <time>2010-10-23T15:01:04Z</time>
      </trkpt>
      <trkpt lat="45.12269" lon="5.24463">
        <ele>270.5</ele>
        <time>2010-10-23T15:01:05Z</time>
      </trkpt>
      <trkpt lat="45.12268" lon="5.24469">
        <ele>270.8</ele>
        <time>2010-10-23T15:01:06Z</time>
      </trkpt>
      <trkpt lat="45.12268" lon="5.24473">
        <ele>270.7</ele>
        <time>2010-10-23T15:01:07Z</time>
      </trkpt>
      <trkpt lat="45.12268" lon="5.24477">
        <ele>271</ele>
        <time>2010-10-23T15:01:08Z</time>
      </trkpt>
      <trkpt lat="45.12267" lon="5.24482">
        <ele>270.9</ele>
        <time>2010-10-23T15:01:09Z</time>
      </trkpt>
      <trkpt lat="45.12267" lon="5.24486">
        <ele>270.5</ele>
        <time>2010-10-23T15:01:10Z</time>
      </trkpt>
      <trkpt lat="45.12267" lon="5.2449">
        <ele>270.4</ele>
        <time>2010-10-23T15:01:11Z</time>
      </trkpt>
      <trkpt lat="45.12268" lon="5.24494">
        <ele>270.4</ele>
        <time>2010-10-23T15:01:12Z</time>
      </trkpt>
      <trkpt lat="45.12268" lon="5.24498">
        <ele>270.5</ele>
        <time>2010-10-23T15:01:13Z</time>
      </trkpt>
      <trkpt lat="45.12269" lon="5.24503">
        <ele>270.5</ele>
        <time>2010-10-23T15:01:14Z</time>
      </trkpt>
      <trkpt lat="45.1227" lon="5.2451">
        <ele>270.2</ele>
        <time>2010-10-23T15:01:14Z</time>
      </trkpt>
      <trkpt lat="45.12271" lon="5.24517">
        <ele>269.9</ele>
        <time>2010-10-23T15:01:15Z</time>
      </trkpt>
      <trkpt lat="45.12272" lon="5.24524">
        <ele>269.9</ele>
        <time>2010-10-23T15:01:17Z</time>
      </trkpt>
      <trkpt lat="45.12273" lon="5.2453">
        <ele>269.7</ele>
        <time>2010-10-23T15:01:18Z</time>
      </trkpt>
      <trkpt lat="45.12275" lon="5.24536">
        <ele>269.6</ele>
        <time>2010-10-23T15:01:19Z</time>
      </trkpt>
      <trkpt lat="45.12277" lon="5.24541">
        <ele>269.4</ele>
        <time>2010-10-23T15:01:20Z</time>
      </trkpt>
      <trkpt lat="45.12279" lon="5.24544">
        <ele>269</ele>
        <time>2010-10-23T15:01:21Z</time>
      </trkpt>
      <trkpt lat="45.12282" lon="5.24548">
        <ele>269.1</ele>
        <time>2010-10-23T15:01:22Z</time>
      </trkpt>
      <trkpt lat="45.12284" lon="5.24551">
        <ele>268.8</ele>
        <time>2010-10-23T15:01:23Z</time>
      </trkpt>
      <trkpt lat="45.12287" lon="5.24553">
        <ele>268.9</ele>
        <time>2010-10-23T15:01:24Z</time>
      </trkpt>
      <trkpt lat="45.1229" lon="5.24555">
        <ele>268.6</ele>
        <time>2010-10-23T15:01:25Z</time>
      </trkpt>
      <trkpt lat="45.12294" lon="5.24558">
        <ele>268.5</ele>
        <time>2010-10-23T15:01:26Z</time>
      </trkpt>
      <trkpt lat="45.12299" lon="5.24559">
        <ele>268.1</ele>
        <time>2010-10-23T15:01:27Z</time>
      </trkpt>
      <trkpt lat="45.12302" lon="5.2456">
        <ele>267.6</ele>
        <time>2010-10-23T15:01:28Z</time>
      </trkpt>
      <trkpt lat="45.12305" lon="5.24565">
        <ele>267.3</ele>
        <time>2010-10-23T15:01:29Z</time>
      </trkpt>
      <trkpt lat="45.12307" lon="5.24568">
        <ele>267.5</ele>
        <time>2010-10-23T15:01:30Z</time>
      </trkpt>
      <trkpt lat="45.12308" lon="5.24572">
        <ele>267.8</ele>
        <time>2010-10-23T15:01:31Z</time>
      </trkpt>
      <trkpt lat="45.12305" lon="5.24573">
        <ele>267.4</ele>
        <time>2010-10-23T15:01:33Z</time>
      </trkpt>
      <trkpt lat="45.12303" lon="5.24573">
        <ele>266.7</ele>
        <time>2010-10-23T15:01:34Z</time>
      </trkpt>
      <trkpt lat="45.12302" lon="5.24573">
        <ele>266.6</ele>
        <time>2010-10-23T15:01:36Z</time>
      </trkpt>
      <trkpt lat="45.123" lon="5.24574">
        <ele>266.2</ele>
        <time>2010-10-23T15:01:37Z</time>
      </trkpt>
      <trkpt lat="45.12298" lon="5.24574">
        <ele>265.5</ele>
        <time>2010-10-23T15:01:38Z</time>
      </trkpt>
      <trkpt lat="45.12297" lon="5.24574">
        <ele>264.4</ele>
        <time>2010-10-23T15:01:39Z</time>
      </trkpt>
      <trkpt lat="45.12296" lon="5.24574">
        <ele>263.9</ele>
        <time>2010-10-23T15:01:40Z</time>
      </trkpt>
      <trkpt lat="45.12294" lon="5.24574">
        <ele>263.8</ele>
        <time>2010-10-23T15:01:41Z</time>
      </trkpt>
      <trkpt lat="45.12292" lon="5.24573">
        <ele>263.8</ele>
        <time>2010-10-23T15:01:42Z</time>
      </trkpt>
      <trkpt lat="45.1229" lon="5.24573">
        <ele>263.8</ele>
        <time>2010-10-23T15:01:43Z</time>
      </trkpt>
      <trkpt lat="45.12288" lon="5.24573">
        <ele>263.6</ele>
        <time>2010-10-23T15:01:44Z</time>
      </trkpt>
      <trkpt lat="45.12287" lon="5.24572">
        <ele>263.2</ele>
        <time>2010-10-23T15:01:45Z</time>
      </trkpt>
      <trkpt lat="45.12284" lon="5.24571">
        <ele>262.7</ele>
        <time>2010-10-23T15:01:46Z</time>
      </trkpt>
      <trkpt lat="45.12281" lon="5.24572">
        <ele>261.7</ele>
        <time>2010-10-23T15:01:47Z</time>
      </trkpt>
      <trkpt lat="45.12279" lon="5.24572">
        <ele>260.7</ele>
        <time>2010-10-23T15:01:48Z</time>
      </trkpt>
      <trkpt lat="45.12276" lon="5.24572">
        <ele>260.4</ele>
        <time>2010-10-23T15:01:49Z</time>
      </trkpt>
      <trkpt lat="45.12274" lon="5.24572">
        <ele>260.5</ele>
        <time>2010-10-23T15:01:50Z</time>
      </trkpt>
      <trkpt lat="45.12272" lon="5.24572">
        <ele>260</ele>
        <time>2010-10-23T15:01:51Z</time>
      </trkpt>
      <trkpt lat="45.12269" lon="5.24573">
        <ele>260.1</ele>
        <time>2010-10-23T15:01:52Z</time>
      </trkpt>
      <trkpt lat="45.12266" lon="5.24574">
        <ele>260.1</ele>
        <time>2010-10-23T15:01:53Z</time>
      </trkpt>
      <trkpt lat="45.12262" lon="5.24574">
        <ele>259.9</ele>
        <time>2010-10-23T15:01:54Z</time>
      </trkpt>
      <trkpt lat="45.12258" lon="5.24574">
        <ele>260.2</ele>
        <time>2010-10-23T15:01:54Z</time>
      </trkpt>
      <trkpt lat="45.12255" lon="5.24575">
        <ele>260.4</ele>
        <time>2010-10-23T15:01:56Z</time>
      </trkpt>
      <trkpt lat="45.1225" lon="5.24576">
        <ele>260.2</ele>
        <time>2010-10-23T15:01:57Z</time>
      </trkpt>
      <trkpt lat="45.12245" lon="5.24577">
        <ele>260.3</ele>
        <time>2010-10-23T15:01:58Z</time>
      </trkpt>
      <trkpt lat="45.1224" lon="5.24577">
        <ele>260.1</ele>
        <time>2010-10-23T15:01:59Z</time>
      </trkpt>
      <trkpt lat="45.12237" lon="5.24579">
        <ele>259.9</ele>
        <time>2010-10-23T15:02:00Z</time>
      </trkpt>
      <trkpt lat="45.12234" lon="5.24579">
        <ele>259.6</ele>
        <time>2010-10-23T15:02:01Z</time>
      </trkpt>
      <trkpt lat="45.1223" lon="5.24579">
        <ele>259.6</ele>
        <time>2010-10-23T15:02:02Z</time>
      </trkpt>
      <trkpt lat="45.12227" lon="5.24581">
        <ele>258.3</ele>
        <time>2010-10-23T15:02:04Z</time>
      </trkpt>
      <trkpt lat="45.12223" lon="5.24581">
        <ele>256.9</ele>
        <time>2010-10-23T15:02:05Z</time>
      </trkpt>
      <trkpt lat="45.12221" lon="5.24581">
        <ele>256.2</ele>
        <time>2010-10-23T15:02:06Z</time>
      </trkpt>
      <trkpt lat="45.12218" lon="5.2458">
        <ele>255.6</ele>
        <time>2010-10-23T15:02:07Z</time>
      </trkpt>
      <trkpt lat="45.12215" lon="5.2458">
        <ele>255.1</ele>
        <time>2010-10-23T15:02:08Z</time>
      </trkpt>
      <trkpt lat="45.12213" lon="5.24579">
        <ele>254.7</ele>
        <time>2010-10-23T15:02:09Z</time>
      </trkpt>
      <trkpt lat="45.12211" lon="5.24579">
        <ele>254.4</ele>
        <time>2010-10-23T15:02:10Z</time>
      </trkpt>
      <trkpt lat="45.1221" lon="5.24578">
        <ele>254.8</ele>
        <time>2010-10-23T15:02:11Z</time>
      </trkpt>
      <trkpt lat="45.12208" lon="5.24577">
        <ele>254.7</ele>
        <time>2010-10-23T15:02:12Z</time>
      </trkpt>
      <trkpt lat="45.12205" lon="5.24577">
        <ele>254.7</ele>
        <time>2010-10-23T15:02:13Z</time>
      </trkpt>
      <trkpt lat="45.12203" lon="5.24576">
        <ele>254.4</ele>
        <time>2010-10-23T15:02:14Z</time>
      </trkpt>
      <trkpt lat="45.12201" lon="5.24575">
        <ele>254.1</ele>
        <time>2010-10-23T15:02:14Z</time>
      </trkpt>
      <trkpt lat="45.12199" lon="5.24575">
        <ele>254.4</ele>
        <time>2010-10-23T15:02:16Z</time>
      </trkpt>
      <trkpt lat="45.12197" lon="5.24574">
        <ele>254.5</ele>
        <time>2010-10-23T15:02:17Z</time>
      </trkpt>
      <trkpt lat="45.12195" lon="5.24573">
        <ele>254.9</ele>
        <time>2010-10-23T15:02:18Z</time>
      </trkpt>
      <trkpt lat="45.12193" lon="5.24573">
        <ele>255.6</ele>
        <time>2010-10-23T15:02:19Z</time>
      </trkpt>
      <trkpt lat="45.12191" lon="5.24573">
        <ele>255.9</ele>
        <time>2010-10-23T15:02:20Z</time>
      </trkpt>
      <trkpt lat="45.12188" lon="5.24572">
        <ele>256.3</ele>
        <time>2010-10-23T15:02:21Z</time>
      </trkpt>
      <trkpt lat="45.12185" lon="5.24573">
        <ele>256.3</ele>
        <time>2010-10-23T15:02:22Z</time>
      </trkpt>
      <trkpt lat="45.12183" lon="5.24573">
        <ele>256.1</ele>
        <time>2010-10-23T15:02:23Z</time>
      </trkpt>
      <trkpt lat="45.12181" lon="5.24572">
        <ele>255.5</ele>
        <time>2010-10-23T15:02:24Z</time>
      </trkpt>
      <trkpt lat="45.12179" lon="5.24571">
        <ele>255.5</ele>
        <time>2010-10-23T15:02:25Z</time>
      </trkpt>
      <trkpt lat="45.12175" lon="5.24571">
        <ele>255.9</ele>
        <time>2010-10-23T15:02:26Z</time>
      </trkpt>
      <trkpt lat="45.12172" lon="5.2457">
        <ele>255.8</ele>
        <time>2010-10-23T15:02:27Z</time>
      </trkpt>
      <trkpt lat="45.12169" lon="5.24567">
        <ele>255.6</ele>
        <time>2010-10-23T15:02:28Z</time>
      </trkpt>
      <trkpt lat="45.12166" lon="5.24566">
        <ele>256.1</ele>
        <time>2010-10-23T15:02:29Z</time>
      </trkpt>
      <trkpt lat="45.12162" lon="5.24564">
        <ele>256.4</ele>
        <time>2010-10-23T15:02:30Z</time>
      </trkpt>
      <trkpt lat="45.12158" lon="5.24564">
        <ele>256.3</ele>
        <time>2010-10-23T15:02:31Z</time>
      </trkpt>
      <trkpt lat="45.12154" lon="5.24563">
        <ele>255.8</ele>
        <time>2010-10-23T15:02:32Z</time>
      </trkpt>
      <trkpt lat="45.1215" lon="5.24562">
        <ele>255.9</ele>
        <time>2010-10-23T15:02:33Z</time>
      </trkpt>
      <trkpt lat="45.12145" lon="5.24561">
        <ele>255.7</ele>
        <time>2010-10-23T15:02:34Z</time>
      </trkpt>
      <trkpt lat="45.12141" lon="5.24559">
        <ele>255.7</ele>
        <time>2010-10-23T15:02:34Z</time>
      </trkpt>
      <trkpt lat="45.12137" lon="5.24556">
        <ele>256.4</ele>
        <time>2010-10-23T15:02:36Z</time>
      </trkpt>
      <trkpt lat="45.12134" lon="5.24556">
        <ele>256.7</ele>
        <time>2010-10-23T15:02:37Z</time>
      </trkpt>
      <trkpt lat="45.1213" lon="5.24556">
        <ele>256.5</ele>
        <time>2010-10-23T15:02:38Z</time>
      </trkpt>
      <trkpt lat="45.12126" lon="5.24557">
        <ele>256.3</ele>
        <time>2010-10-23T15:02:39Z</time>
      </trkpt>
      <trkpt lat="45.12123" lon="5.24555">
        <ele>255.9</ele>
        <time>2010-10-23T15:02:40Z</time>
      </trkpt>
      <trkpt lat="45.1212" lon="5.24553">
        <ele>255.6</ele>
        <time>2010-10-23T15:02:41Z</time>
      </trkpt>
      <trkpt lat="45.12117" lon="5.2455">
        <ele>255.3</ele>
        <time>2010-10-23T15:02:42Z</time>
      </trkpt>
      <trkpt lat="45.12113" lon="5.24549">
        <ele>255.4</ele>
        <time>2010-10-23T15:02:43Z</time>
      </trkpt>
      <trkpt lat="45.12109" lon="5.24548">
        <ele>255.1</ele>
        <time>2010-10-23T15:02:44Z</time>
      </trkpt>
      <trkpt lat="45.12105" lon="5.24546">
        <ele>255.1</ele>
        <time>2010-10-23T15:02:45Z</time>
      </trkpt>
      <trkpt lat="45.12101" lon="5.24545">
        <ele>255</ele>
        <time>2010-10-23T15:02:46Z</time>
      </trkpt>
      <trkpt lat="45.12098" lon="5.24544">
        <ele>255.1</ele>
        <time>2010-10-23T15:02:47Z</time>
      </trkpt>
      <trkpt lat="45.12094" lon="5.24542">
        <ele>255.2</ele>
        <time>2010-10-23T15:02:48Z</time>
      </trkpt>
      <trkpt lat="45.1209" lon="5.24541">
        <ele>255.6</ele>
        <time>2010-10-23T15:02:49Z</time>
      </trkpt>
      <trkpt lat="45.12086" lon="5.24539">
        <ele>255.5</ele>
        <time>2010-10-23T15:02:50Z</time>
      </trkpt>
      <trkpt lat="45.12082" lon="5.24539">
        <ele>257</ele>
        <time>2010-10-23T15:02:51Z</time>
      </trkpt>
      <trkpt lat="45.12078" lon="5.24538">
        <ele>256.2</ele>
        <time>2010-10-23T15:02:52Z</time>
      </trkpt>
      <trkpt lat="45.12074" lon="5.24537">
        <ele>255.9</ele>
        <time>2010-10-23T15:02:53Z</time>
      </trkpt>
      <trkpt lat="45.1207" lon="5.24536">
        <ele>255.7</ele>
        <time>2010-10-23T15:02:53Z</time>
      </trkpt>
      <trkpt lat="45.12066" lon="5.24536">
        <ele>255.8</ele>
        <time>2010-10-23T15:02:54Z</time>
      </trkpt>
      <trkpt lat="45.12061" lon="5.24533">
        <ele>255.2</ele>
        <time>2010-10-23T15:02:56Z</time>
      </trkpt>
      <trkpt lat="45.12057" lon="5.24532">
        <ele>255.2</ele>
        <time>2010-10-23T15:02:57Z</time>
      </trkpt>
      <trkpt lat="45.12053" lon="5.2453">
        <ele>254.9</ele>
        <time>2010-10-23T15:02:58Z</time>
      </trkpt>
      <trkpt lat="45.12049" lon="5.24528">
        <ele>255</ele>
        <time>2010-10-23T15:02:59Z</time>
      </trkpt>
      <trkpt lat="45.12046" lon="5.24526">
        <ele>255.6</ele>
        <time>2010-10-23T15:03:00Z</time>
      </trkpt>
      <trkpt lat="45.12042" lon="5.24525">
        <ele>255.6</ele>
        <time>2010-10-23T15:03:01Z</time>
      </trkpt>
      <trkpt lat="45.12039" lon="5.24524">
        <ele>255.9</ele>
        <time>2010-10-23T15:03:02Z</time>
      </trkpt>
      <trkpt lat="45.12036" lon="5.24522">
        <ele>255.9</ele>
        <time>2010-10-23T15:03:03Z</time>
      </trkpt>
      <trkpt lat="45.12033" lon="5.24521">
        <ele>255.6</ele>
        <time>2010-10-23T15:03:04Z</time>
      </trkpt>
      <trkpt lat="45.1203" lon="5.24519">
        <ele>255.6</ele>
        <time>2010-10-23T15:03:05Z</time>
      </trkpt>
      <trkpt lat="45.12027" lon="5.24518">
        <ele>256.2</ele>
        <time>2010-10-23T15:03:06Z</time>
      </trkpt>
      <trkpt lat="45.12024" lon="5.24516">
        <ele>256.1</ele>
        <time>2010-10-23T15:03:07Z</time>
      </trkpt>
      <trkpt lat="45.12022" lon="5.24514">
        <ele>255.6</ele>
        <time>2010-10-23T15:03:08Z</time>
      </trkpt>
      <trkpt lat="45.12019" lon="5.24512">
        <ele>255.2</ele>
        <time>2010-10-23T15:03:09Z</time>
      </trkpt>
      <trkpt lat="45.12016" lon="5.24509">
        <ele>255.3</ele>
        <time>2010-10-23T15:03:10Z</time>
      </trkpt>
      <trkpt lat="45.12014" lon="5.24506">
        <ele>255.2</ele>
        <time>2010-10-23T15:03:11Z</time>
      </trkpt>
      <trkpt lat="45.12011" lon="5.24504">
        <ele>255.7</ele>
        <time>2010-10-23T15:03:12Z</time>
      </trkpt>
      <trkpt lat="45.12007" lon="5.24502">
        <ele>255.8</ele>
        <time>2010-10-23T15:03:13Z</time>
      </trkpt>
      <trkpt lat="45.12005" lon="5.24498">
        <ele>256.2</ele>
        <time>2010-10-23T15:03:13Z</time>
      </trkpt>
      <trkpt lat="45.12002" lon="5.24497">
        <ele>256.3</ele>
        <time>2010-10-23T15:03:14Z</time>
      </trkpt>
      <trkpt lat="45.11999" lon="5.24495">
        <ele>256.6</ele>
        <time>2010-10-23T15:03:16Z</time>
      </trkpt>
      <trkpt lat="45.11998" lon="5.24494">
        <ele>256.9</ele>
        <time>2010-10-23T15:03:17Z</time>
      </trkpt>
      <trkpt lat="45.11996" lon="5.24494">
        <ele>257</ele>
        <time>2010-10-23T15:03:18Z</time>
      </trkpt>
      <trkpt lat="45.11994" lon="5.24493">
        <ele>257.2</ele>
        <time>2010-10-23T15:03:19Z</time>
      </trkpt>
      <trkpt lat="45.11993" lon="5.24492">
        <ele>257.9</ele>
        <time>2010-10-23T15:03:21Z</time>
      </trkpt>
      <trkpt lat="45.1199" lon="5.2449">
        <ele>257.8</ele>
        <time>2010-10-23T15:03:22Z</time>
      </trkpt>
      <trkpt lat="45.11988" lon="5.24489">
        <ele>257.3</ele>
        <time>2010-10-23T15:03:23Z</time>
      </trkpt>
      <trkpt lat="45.11986" lon="5.24488">
        <ele>257.5</ele>
        <time>2010-10-23T15:03:24Z</time>
      </trkpt>
      <trkpt lat="45.11984" lon="5.24486">
        <ele>257.7</ele>
        <time>2010-10-23T15:03:25Z</time>
      </trkpt>
      <trkpt lat="45.11982" lon="5.24485">
        <ele>257.6</ele>
        <time>2010-10-23T15:03:26Z</time>
      </trkpt>
      <trkpt lat="45.11981" lon="5.24482">
        <ele>257.5</ele>
        <time>2010-10-23T15:03:27Z</time>
      </trkpt>
      <trkpt lat="45.11979" lon="5.24481">
        <ele>257.9</ele>
        <time>2010-10-23T15:03:28Z</time>
      </trkpt>
      <trkpt lat="45.11977" lon="5.24479">
        <ele>258.3</ele>
        <time>2010-10-23T15:03:29Z</time>
      </trkpt>
      <trkpt lat="45.11975" lon="5.24477">
        <ele>258</ele>
        <time>2010-10-23T15:03:30Z</time>
      </trkpt>
      <trkpt lat="45.11973" lon="5.24476">
        <ele>258.2</ele>
        <time>2010-10-23T15:03:31Z</time>
      </trkpt>
      <trkpt lat="45.11971" lon="5.24473">
        <ele>258.4</ele>
        <time>2010-10-23T15:03:32Z</time>
      </trkpt>
      <trkpt lat="45.11969" lon="5.2447">
        <ele>258</ele>
        <time>2010-10-23T15:03:33Z</time>
      </trkpt>
      <trkpt lat="45.11967" lon="5.24468">
        <ele>257.8</ele>
        <time>2010-10-23T15:03:33Z</time>
      </trkpt>
      <trkpt lat="45.11964" lon="5.24464">
        <ele>258.4</ele>
        <time>2010-10-23T15:03:34Z</time>
      </trkpt>
      <trkpt lat="45.11963" lon="5.2446">
        <ele>258.5</ele>
        <time>2010-10-23T15:03:36Z</time>
      </trkpt>
      <trkpt lat="45.11961" lon="5.24456">
        <ele>258.6</ele>
        <time>2010-10-23T15:03:37Z</time>
      </trkpt>
      <trkpt lat="45.11959" lon="5.24454">
        <ele>258.5</ele>
        <time>2010-10-23T15:03:38Z</time>
      </trkpt>
      <trkpt lat="45.11958" lon="5.24449">
        <ele>258.5</ele>
        <time>2010-10-23T15:03:39Z</time>
      </trkpt>
      <trkpt lat="45.11956" lon="5.24445">
        <ele>258.4</ele>
        <time>2010-10-23T15:03:40Z</time>
      </trkpt>
      <trkpt lat="45.11956" lon="5.2444">
        <ele>259.1</ele>
        <time>2010-10-23T15:03:41Z</time>
      </trkpt>
      <trkpt lat="45.11954" lon="5.24437">
        <ele>259.5</ele>
        <time>2010-10-23T15:03:42Z</time>
      </trkpt>
      <trkpt lat="45.11954" lon="5.24433">
        <ele>259.9</ele>
        <time>2010-10-23T15:03:43Z</time>
      </trkpt>
      <trkpt lat="45.11953" lon="5.24429">
        <ele>260</ele>
        <time>2010-10-23T15:03:44Z</time>
      </trkpt>
      <trkpt lat="45.11952" lon="5.24425">
        <ele>260.1</ele>
        <time>2010-10-23T15:03:45Z</time>
      </trkpt>
      <trkpt lat="45.11952" lon="5.24421">
        <ele>260.2</ele>
        <time>2010-10-23T15:03:46Z</time>
      </trkpt>
      <trkpt lat="45.11951" lon="5.24416">
        <ele>261.1</ele>
        <time>2010-10-23T15:03:47Z</time>
      </trkpt>
      <trkpt lat="45.11951" lon="5.24412">
        <ele>261.5</ele>
        <time>2010-10-23T15:03:48Z</time>
      </trkpt>
      <trkpt lat="45.11951" lon="5.24408">
        <ele>261.8</ele>
        <time>2010-10-23T15:03:49Z</time>
      </trkpt>
      <trkpt lat="45.11951" lon="5.24405">
        <ele>262.6</ele>
        <time>2010-10-23T15:03:50Z</time>
      </trkpt>
      <trkpt lat="45.11952" lon="5.24402">
        <ele>262.8</ele>
        <time>2010-10-23T15:03:51Z</time>
      </trkpt>
      <trkpt lat="45.11952" lon="5.24399">
        <ele>263.3</ele>
        <time>2010-10-23T15:03:52Z</time>
      </trkpt>
      <trkpt lat="45.11952" lon="5.24395">
        <ele>264.7</ele>
        <time>2010-10-23T15:03:53Z</time>
      </trkpt>
      <trkpt lat="45.11953" lon="5.24392">
        <ele>265</ele>
        <time>2010-10-23T15:03:53Z</time>
      </trkpt>
      <trkpt lat="45.11954" lon="5.24388">
        <ele>265.5</ele>
        <time>2010-10-23T15:03:55Z</time>
      </trkpt>
      <trkpt lat="45.11955" lon="5.24384">
        <ele>265.6</ele>
        <time>2010-10-23T15:03:56Z</time>
      </trkpt>
      <trkpt lat="45.11954" lon="5.24381">
        <ele>266.5</ele>
        <time>2010-10-23T15:03:57Z</time>
      </trkpt>
      <trkpt lat="45.11955" lon="5.24379">
        <ele>266.2</ele>
        <time>2010-10-23T15:03:58Z</time>
      </trkpt>
      <trkpt lat="45.11956" lon="5.24376">
        <ele>266.3</ele>
        <time>2010-10-23T15:03:59Z</time>
      </trkpt>
      <trkpt lat="45.11958" lon="5.24374">
        <ele>266</ele>
        <time>2010-10-23T15:04:00Z</time>
      </trkpt>
      <trkpt lat="45.1196" lon="5.24371">
        <ele>266.4</ele>
        <time>2010-10-23T15:04:01Z</time>
      </trkpt>
      <trkpt lat="45.1196" lon="5.24368">
        <ele>266</ele>
        <time>2010-10-23T15:04:02Z</time>
      </trkpt>
      <trkpt lat="45.1196" lon="5.24366">
        <ele>265.8</ele>
        <time>2010-10-23T15:04:03Z</time>
      </trkpt>
      <trkpt lat="45.11961" lon="5.24363">
        <ele>265.6</ele>
        <time>2010-10-23T15:04:04Z</time>
      </trkpt>
      <trkpt lat="45.1196" lon="5.2436">
        <ele>265.7</ele>
        <time>2010-10-23T15:04:05Z</time>
      </trkpt>
      <trkpt lat="45.11961" lon="5.24354">
        <ele>266.1</ele>
        <time>2010-10-23T15:04:06Z</time>
      </trkpt>
      <trkpt lat="45.11962" lon="5.24351">
        <ele>265.9</ele>
        <time>2010-10-23T15:04:07Z</time>
      </trkpt>
      <trkpt lat="45.11962" lon="5.24346">
        <ele>265.9</ele>
        <time>2010-10-23T15:04:08Z</time>
      </trkpt>
      <trkpt lat="45.11962" lon="5.24342">
        <ele>266</ele>
        <time>2010-10-23T15:04:09Z</time>
      </trkpt>
      <trkpt lat="45.11962" lon="5.24337">
        <ele>265.9</ele>
        <time>2010-10-23T15:04:10Z</time>
      </trkpt>
      <trkpt lat="45.11963" lon="5.2433">
        <ele>265.9</ele>
        <time>2010-10-23T15:04:11Z</time>
      </trkpt>
      <trkpt lat="45.11963" lon="5.24324">
        <ele>265.8</ele>
        <time>2010-10-23T15:04:12Z</time>
      </trkpt>
      <trkpt lat="45.11964" lon="5.24319">
        <ele>266</ele>
        <time>2010-10-23T15:04:13Z</time>
      </trkpt>
      <trkpt lat="45.11963" lon="5.24315">
        <ele>265.5</ele>
        <time>2010-10-23T15:04:13Z</time>
      </trkpt>
      <trkpt lat="45.11962" lon="5.24312">
        <ele>265.3</ele>
        <time>2010-10-23T15:04:15Z</time>
      </trkpt>
      <trkpt lat="45.11961" lon="5.24309">
        <ele>264.9</ele>
        <time>2010-10-23T15:04:16Z</time>
      </trkpt>
      <trkpt lat="45.1196" lon="5.24306">
        <ele>265.2</ele>
        <time>2010-10-23T15:04:17Z</time>
      </trkpt>
      <trkpt lat="45.1196" lon="5.24304">
        <ele>264.3</ele>
        <time>2010-10-23T15:04:18Z</time>
      </trkpt>
      <trkpt lat="45.1196" lon="5.24301">
        <ele>264.2</ele>
        <time>2010-10-23T15:04:19Z</time>
      </trkpt>
      <trkpt lat="45.11958" lon="5.243">
        <ele>264.6</ele>
        <time>2010-10-23T15:04:20Z</time>
      </trkpt>
      <trkpt lat="45.11957" lon="5.24298">
        <ele>264.1</ele>
        <time>2010-10-23T15:04:21Z</time>
      </trkpt>
      <trkpt lat="45.11956" lon="5.24295">
        <ele>264.5</ele>
        <time>2010-10-23T15:04:22Z</time>
      </trkpt>
      <trkpt lat="45.11954" lon="5.24293">
        <ele>264.8</ele>
        <time>2010-10-23T15:04:23Z</time>
      </trkpt>
      <trkpt lat="45.11953" lon="5.24291">
        <ele>264.6</ele>
        <time>2010-10-23T15:04:24Z</time>
      </trkpt>
      <trkpt lat="45.11953" lon="5.24289">
        <ele>265.3</ele>
        <time>2010-10-23T15:04:25Z</time>
      </trkpt>
      <trkpt lat="45.11953" lon="5.24286">
        <ele>265</ele>
        <time>2010-10-23T15:04:26Z</time>
      </trkpt>
      <trkpt lat="45.11952" lon="5.24283">
        <ele>264.8</ele>
        <time>2010-10-23T15:04:27Z</time>
      </trkpt>
      <trkpt lat="45.11951" lon="5.24281">
        <ele>264.4</ele>
        <time>2010-10-23T15:04:28Z</time>
      </trkpt>
      <trkpt lat="45.1195" lon="5.24278">
        <ele>264.6</ele>
        <time>2010-10-23T15:04:29Z</time>
      </trkpt>
      <trkpt lat="45.11949" lon="5.24275">
        <ele>264.7</ele>
        <time>2010-10-23T15:04:30Z</time>
      </trkpt>
      <trkpt lat="45.11948" lon="5.24273">
        <ele>264.7</ele>
        <time>2010-10-23T15:04:31Z</time>
      </trkpt>
      <trkpt lat="45.11947" lon="5.24271">
        <ele>264.6</ele>
        <time>2010-10-23T15:04:32Z</time>
      </trkpt>
      <trkpt lat="45.11947" lon="5.24269">
        <ele>264.4</ele>
        <time>2010-10-23T15:04:33Z</time>
      </trkpt>
      <trkpt lat="45.11946" lon="5.24266">
        <ele>264.8</ele>
        <time>2010-10-23T15:04:33Z</time>
      </trkpt>
      <trkpt lat="45.11945" lon="5.24264">
        <ele>264.7</ele>
        <time>2010-10-23T15:04:35Z</time>
      </trkpt>
      <trkpt lat="45.11945" lon="5.24262">
        <ele>264.7</ele>
        <time>2010-10-23T15:04:36Z</time>
      </trkpt>
      <trkpt lat="45.11946" lon="5.24259">
        <ele>264.9</ele>
        <time>2010-10-23T15:04:37Z</time>
      </trkpt>
      <trkpt lat="45.11946" lon="5.24259">
        <ele>264.4</ele>
        <time>2010-10-23T15:04:38Z</time>
      </trkpt>
      <trkpt lat="45.11946" lon="5.24256">
        <ele>263.5</ele>
        <time>2010-10-23T15:04:39Z</time>
      </trkpt>
      <trkpt lat="45.11945" lon="5.24254">
        <ele>263.5</ele>
        <time>2010-10-23T15:04:40Z</time>
      </trkpt>
      <trkpt lat="45.11944" lon="5.24252">
        <ele>262.9</ele>
        <time>2010-10-23T15:04:41Z</time>
      </trkpt>
      <trkpt lat="45.11943" lon="5.2425">
        <ele>262.7</ele>
        <time>2010-10-23T15:04:42Z</time>
      </trkpt>
      <trkpt lat="45.11943" lon="5.24249">
        <ele>264</ele>
        <time>2010-10-23T15:04:43Z</time>
      </trkpt>
      <trkpt lat="45.11942" lon="5.24248">
        <ele>263.7</ele>
        <time>2010-10-23T15:04:44Z</time>
      </trkpt>
      <trkpt lat="45.11942" lon="5.24247">
        <ele>264.3</ele>
        <time>2010-10-23T15:04:45Z</time>
      </trkpt>
      <trkpt lat="45.11941" lon="5.24246">
        <ele>265</ele>
        <time>2010-10-23T15:04:46Z</time>
      </trkpt>
      <trkpt lat="45.11941" lon="5.24244">
        <ele>265.2</ele>
        <time>2010-10-23T15:04:47Z</time>
      </trkpt>
      <trkpt lat="45.11941" lon="5.24243">
        <ele>265.3</ele>
        <time>2010-10-23T15:04:48Z</time>
      </trkpt>
      <trkpt lat="45.1194" lon="5.24241">
        <ele>267.1</ele>
        <time>2010-10-23T15:04:50Z</time>
      </trkpt>
      <trkpt lat="45.11939" lon="5.24239">
        <ele>267.7</ele>
        <time>2010-10-23T15:04:52Z</time>
      </trkpt>
      <trkpt lat="45.11939" lon="5.24237">
        <ele>267</ele>
        <time>2010-10-23T15:04:53Z</time>
      </trkpt>
      <trkpt lat="45.1194" lon="5.24235">
        <ele>267.2</ele>
        <time>2010-10-23T15:04:53Z</time>
      </trkpt>
      <trkpt lat="45.11939" lon="5.24233">
        <ele>267.2</ele>
        <time>2010-10-23T15:04:55Z</time>
      </trkpt>
      <trkpt lat="45.11939" lon="5.2423">
        <ele>267.6</ele>
        <time>2010-10-23T15:04:56Z</time>
      </trkpt>
      <trkpt lat="45.11938" lon="5.24228">
        <ele>267.6</ele>
        <time>2010-10-23T15:04:57Z</time>
      </trkpt>
      <trkpt lat="45.11938" lon="5.24225">
        <ele>267.6</ele>
        <time>2010-10-23T15:04:58Z</time>
      </trkpt>
      <trkpt lat="45.11939" lon="5.24222">
        <ele>268</ele>
        <time>2010-10-23T15:04:59Z</time>
      </trkpt>
      <trkpt lat="45.11938" lon="5.24218">
        <ele>268.8</ele>
        <time>2010-10-23T15:05:00Z</time>
      </trkpt>
      <trkpt lat="45.11938" lon="5.24214">
        <ele>268.9</ele>
        <time>2010-10-23T15:05:01Z</time>
      </trkpt>
      <trkpt lat="45.11938" lon="5.24211">
        <ele>269.2</ele>
        <time>2010-10-23T15:05:02Z</time>
      </trkpt>
      <trkpt lat="45.11938" lon="5.24208">
        <ele>269.5</ele>
        <time>2010-10-23T15:05:03Z</time>
      </trkpt>
      <trkpt lat="45.11938" lon="5.24206">
        <ele>269.6</ele>
        <time>2010-10-23T15:05:04Z</time>
      </trkpt>
      <trkpt lat="45.11938" lon="5.24203">
        <ele>269.5</ele>
        <time>2010-10-23T15:05:05Z</time>
      </trkpt>
      <trkpt lat="45.11938" lon="5.24202">
        <ele>269.7</ele>
        <time>2010-10-23T15:05:06Z</time>
      </trkpt>
      <trkpt lat="45.11939" lon="5.242">
        <ele>270.1</ele>
        <time>2010-10-23T15:05:07Z</time>
      </trkpt>
      <trkpt lat="45.11939" lon="5.24197">
        <ele>270</ele>
        <time>2010-10-23T15:05:08Z</time>
      </trkpt>
      <trkpt lat="45.11941" lon="5.24195">
        <ele>270.8</ele>
        <time>2010-10-23T15:05:09Z</time>
      </trkpt>
      <trkpt lat="45.11941" lon="5.24192">
        <ele>271.6</ele>
        <time>2010-10-23T15:05:10Z</time>
      </trkpt>
      <trkpt lat="45.1194" lon="5.24186">
        <ele>272.2</ele>
        <time>2010-10-23T15:05:11Z</time>
      </trkpt>
      <trkpt lat="45.1194" lon="5.24183">
        <ele>273.6</ele>
        <time>2010-10-23T15:05:12Z</time>
      </trkpt>
      <trkpt lat="45.1194" lon="5.2418">
        <ele>273.6</ele>
        <time>2010-10-23T15:05:12Z</time>
      </trkpt>
      <trkpt lat="45.11941" lon="5.24177">
        <ele>273.8</ele>
        <time>2010-10-23T15:05:13Z</time>
      </trkpt>
      <trkpt lat="45.11942" lon="5.24176">
        <ele>274.6</ele>
        <time>2010-10-23T15:05:15Z</time>
      </trkpt>
      <trkpt lat="45.11943" lon="5.24173">
        <ele>275.1</ele>
        <time>2010-10-23T15:05:16Z</time>
      </trkpt>
      <trkpt lat="45.11943" lon="5.24171">
        <ele>275.1</ele>
        <time>2010-10-23T15:05:17Z</time>
      </trkpt>
      <trkpt lat="45.11943" lon="5.24168">
        <ele>275</ele>
        <time>2010-10-23T15:05:18Z</time>
      </trkpt>
      <trkpt lat="45.11944" lon="5.24165">
        <ele>274.8</ele>
        <time>2010-10-23T15:05:19Z</time>
      </trkpt>
      <trkpt lat="45.11947" lon="5.24164">
        <ele>274.8</ele>
        <time>2010-10-23T15:05:20Z</time>
      </trkpt>
      <trkpt lat="45.11949" lon="5.24161">
        <ele>274.8</ele>
        <time>2010-10-23T15:05:21Z</time>
      </trkpt>
      <trkpt lat="45.1195" lon="5.2416">
        <ele>274.3</ele>
        <time>2010-10-23T15:05:22Z</time>
      </trkpt>
      <trkpt lat="45.1195" lon="5.24158">
        <ele>274.3</ele>
        <time>2010-10-23T15:05:23Z</time>
      </trkpt>
      <trkpt lat="45.11951" lon="5.24156">
        <ele>274.1</ele>
        <time>2010-10-23T15:05:24Z</time>
      </trkpt>
      <trkpt lat="45.11951" lon="5.24153">
        <ele>274.8</ele>
        <time>2010-10-23T15:05:25Z</time>
      </trkpt>
      <trkpt lat="45.11952" lon="5.24151">
        <ele>275</ele>
        <time>2010-10-23T15:05:26Z</time>
      </trkpt>
      <trkpt lat="45.11952" lon="5.24149">
        <ele>275</ele>
        <time>2010-10-23T15:05:27Z</time>
      </trkpt>
      <trkpt lat="45.11952" lon="5.24146">
        <ele>274.9</ele>
        <time>2010-10-23T15:05:28Z</time>
      </trkpt>
      <trkpt lat="45.11953" lon="5.24143">
        <ele>274.7</ele>
        <time>2010-10-23T15:05:29Z</time>
      </trkpt>
      <trkpt lat="45.11954" lon="5.24139">
        <ele>274.5</ele>
        <time>2010-10-23T15:05:30Z</time>
      </trkpt>
      <trkpt lat="45.11955" lon="5.24135">
        <ele>274.6</ele>
        <time>2010-10-23T15:05:31Z</time>
      </trkpt>
      <trkpt lat="45.11955" lon="5.2413">
        <ele>274.7</ele>
        <time>2010-10-23T15:05:32Z</time>
      </trkpt>
      <trkpt lat="45.11956" lon="5.24125">
        <ele>274.7</ele>
        <time>2010-10-23T15:05:32Z</time>
      </trkpt>
      <trkpt lat="45.11957" lon="5.24121">
        <ele>274.7</ele>
        <time>2010-10-23T15:05:33Z</time>
      </trkpt>
      <trkpt lat="45.11958" lon="5.24117">
        <ele>274.5</ele>
        <time>2010-10-23T15:05:35Z</time>
      </trkpt>
      <trkpt lat="45.11959" lon="5.24113">
        <ele>275.1</ele>
        <time>2010-10-23T15:05:36Z</time>
      </trkpt>
      <trkpt lat="45.11959" lon="5.24109">
        <ele>274.9</ele>
        <time>2010-10-23T15:05:37Z</time>
      </trkpt>
      <trkpt lat="45.11958" lon="5.24106">
        <ele>274.7</ele>
        <time>2010-10-23T15:05:38Z</time>
      </trkpt>
      <trkpt lat="45.11957" lon="5.24104">
        <ele>274.5</ele>
        <time>2010-10-23T15:05:39Z</time>
      </trkpt>
      <trkpt lat="45.11957" lon="5.24103">
        <ele>274.4</ele>
        <time>2010-10-23T15:05:40Z</time>
      </trkpt>
      <trkpt lat="45.11955" lon="5.24101">
        <ele>274.7</ele>
        <time>2010-10-23T15:05:41Z</time>
      </trkpt>
      <trkpt lat="45.11954" lon="5.241">
        <ele>274.7</ele>
        <time>2010-10-23T15:05:42Z</time>
      </trkpt>
      <trkpt lat="45.11953" lon="5.24099">
        <ele>275</ele>
        <time>2010-10-23T15:05:43Z</time>
      </trkpt>
      <trkpt lat="45.11951" lon="5.24099">
        <ele>274.8</ele>
        <time>2010-10-23T15:05:44Z</time>
      </trkpt>
      <trkpt lat="45.11949" lon="5.24099">
        <ele>275.4</ele>
        <time>2010-10-23T15:05:45Z</time>
      </trkpt>
      <trkpt lat="45.11946" lon="5.24099">
        <ele>275.5</ele>
        <time>2010-10-23T15:05:46Z</time>
      </trkpt>
      <trkpt lat="45.11945" lon="5.24098">
        <ele>275.9</ele>
        <time>2010-10-23T15:05:47Z</time>
      </trkpt>
      <trkpt lat="45.11942" lon="5.24097">
        <ele>276.1</ele>
        <time>2010-10-23T15:05:48Z</time>
      </trkpt>
      <trkpt lat="45.1194" lon="5.24097">
        <ele>276.2</ele>
        <time>2010-10-23T15:05:49Z</time>
      </trkpt>
      <trkpt lat="45.11938" lon="5.24096">
        <ele>276.4</ele>
        <time>2010-10-23T15:05:50Z</time>
      </trkpt>
      <trkpt lat="45.11935" lon="5.24094">
        <ele>276.6</ele>
        <time>2010-10-23T15:05:51Z</time>
      </trkpt>
      <trkpt lat="45.11933" lon="5.24094">
        <ele>276.6</ele>
        <time>2010-10-23T15:05:52Z</time>
      </trkpt>
      <trkpt lat="45.1193" lon="5.24094">
        <ele>276.3</ele>
        <time>2010-10-23T15:05:52Z</time>
      </trkpt>
      <trkpt lat="45.11928" lon="5.24093">
        <ele>275.7</ele>
        <time>2010-10-23T15:05:53Z</time>
      </trkpt>
      <trkpt lat="45.11926" lon="5.24093">
        <ele>275.4</ele>
        <time>2010-10-23T15:05:55Z</time>
      </trkpt>
      <trkpt lat="45.11924" lon="5.24093">
        <ele>275</ele>
        <time>2010-10-23T15:05:56Z</time>
      </trkpt>
      <trkpt lat="45.11922" lon="5.24094">
        <ele>275</ele>
        <time>2010-10-23T15:05:57Z</time>
      </trkpt>
      <trkpt lat="45.1192" lon="5.24093">
        <ele>274.8</ele>
        <time>2010-10-23T15:05:58Z</time>
      </trkpt>
      <trkpt lat="45.11918" lon="5.24093">
        <ele>274.7</ele>
        <time>2010-10-23T15:05:59Z</time>
      </trkpt>
      <trkpt lat="45.11915" lon="5.24093">
        <ele>274</ele>
        <time>2010-10-23T15:06:00Z</time>
      </trkpt>
      <trkpt lat="45.11913" lon="5.24095">
        <ele>273.2</ele>
        <time>2010-10-23T15:06:01Z</time>
      </trkpt>
      <trkpt lat="45.11911" lon="5.24096">
        <ele>272.5</ele>
        <time>2010-10-23T15:06:02Z</time>
      </trkpt>
      <trkpt lat="45.11908" lon="5.24096">
        <ele>271.6</ele>
        <time>2010-10-23T15:06:03Z</time>
      </trkpt>
      <trkpt lat="45.11905" lon="5.24096">
        <ele>271.9</ele>
        <time>2010-10-23T15:06:04Z</time>
      </trkpt>
      <trkpt lat="45.11903" lon="5.24094">
        <ele>271.8</ele>
        <time>2010-10-23T15:06:05Z</time>
      </trkpt>
      <trkpt lat="45.119" lon="5.2409">
        <ele>272.6</ele>
        <time>2010-10-23T15:06:06Z</time>
      </trkpt>
      <trkpt lat="45.11898" lon="5.24088">
        <ele>272.9</ele>
        <time>2010-10-23T15:06:07Z</time>
      </trkpt>
      <trkpt lat="45.11896" lon="5.24088">
        <ele>273.1</ele>
        <time>2010-10-23T15:06:08Z</time>
      </trkpt>
      <trkpt lat="45.11895" lon="5.24088">
        <ele>272.2</ele>
        <time>2010-10-23T15:06:09Z</time>
      </trkpt>
      <trkpt lat="45.11892" lon="5.24087">
        <ele>272.6</ele>
        <time>2010-10-23T15:06:10Z</time>
      </trkpt>
      <trkpt lat="45.1189" lon="5.24085">
        <ele>272.8</ele>
        <time>2010-10-23T15:06:11Z</time>
      </trkpt>
      <trkpt lat="45.11888" lon="5.24085">
        <ele>272.8</ele>
        <time>2010-10-23T15:06:12Z</time>
      </trkpt>
      <trkpt lat="45.11887" lon="5.24084">
        <ele>272.3</ele>
        <time>2010-10-23T15:06:12Z</time>
      </trkpt>
      <trkpt lat="45.11886" lon="5.24083">
        <ele>273.5</ele>
        <time>2010-10-23T15:06:14Z</time>
      </trkpt>
      <trkpt lat="45.11884" lon="5.24081">
        <ele>274.9</ele>
        <time>2010-10-23T15:06:15Z</time>
      </trkpt>
      <trkpt lat="45.11883" lon="5.24081">
        <ele>275.7</ele>
        <time>2010-10-23T15:06:16Z</time>
      </trkpt>
      <trkpt lat="45.1188" lon="5.2408">
        <ele>275.7</ele>
        <time>2010-10-23T15:06:17Z</time>
      </trkpt>
      <trkpt lat="45.11879" lon="5.2408">
        <ele>275.8</ele>
        <time>2010-10-23T15:06:18Z</time>
      </trkpt>
      <trkpt lat="45.11877" lon="5.24078">
        <ele>276</ele>
        <time>2010-10-23T15:06:20Z</time>
      </trkpt>
      <trkpt lat="45.11876" lon="5.24079">
        <ele>275.5</ele>
        <time>2010-10-23T15:06:21Z</time>
      </trkpt>
      <trkpt lat="45.11874" lon="5.24078">
        <ele>275.7</ele>
        <time>2010-10-23T15:06:22Z</time>
      </trkpt>
      <trkpt lat="45.11871" lon="5.24077">
        <ele>275.5</ele>
        <time>2010-10-23T15:06:23Z</time>
      </trkpt>
      <trkpt lat="45.1187" lon="5.24076">
        <ele>275.4</ele>
        <time>2010-10-23T15:06:24Z</time>
      </trkpt>
      <trkpt lat="45.11869" lon="5.24076">
        <ele>275.3</ele>
        <time>2010-10-23T15:06:25Z</time>
      </trkpt>
      <trkpt lat="45.11867" lon="5.24075">
        <ele>275.2</ele>
        <time>2010-10-23T15:06:26Z</time>
      </trkpt>
      <trkpt lat="45.11865" lon="5.24074">
        <ele>274.9</ele>
        <time>2010-10-23T15:06:27Z</time>
      </trkpt>
      <trkpt lat="45.11863" lon="5.24074">
        <ele>274.9</ele>
        <time>2010-10-23T15:06:28Z</time>
      </trkpt>
      <trkpt lat="45.11861" lon="5.24074">
        <ele>274.6</ele>
        <time>2010-10-23T15:06:29Z</time>
      </trkpt>
      <trkpt lat="45.11858" lon="5.24074">
        <ele>274.6</ele>
        <time>2010-10-23T15:06:30Z</time>
      </trkpt>
      <trkpt lat="45.11856" lon="5.24075">
        <ele>274.7</ele>
        <time>2010-10-23T15:06:31Z</time>
      </trkpt>
      <trkpt lat="45.11853" lon="5.24074">
        <ele>274.2</ele>
        <time>2010-10-23T15:06:32Z</time>
      </trkpt>
      <trkpt lat="45.1185" lon="5.24075">
        <ele>274</ele>
        <time>2010-10-23T15:06:32Z</time>
      </trkpt>
      <trkpt lat="45.11849" lon="5.24081">
        <ele>274.2</ele>
        <time>2010-10-23T15:06:34Z</time>
      </trkpt>
      <trkpt lat="45.11846" lon="5.24081">
        <ele>273.8</ele>
        <time>2010-10-23T15:06:35Z</time>
      </trkpt>
      <trkpt lat="45.11843" lon="5.24079">
        <ele>273.9</ele>
        <time>2010-10-23T15:06:36Z</time>
      </trkpt>
      <trkpt lat="45.11841" lon="5.24078">
        <ele>273.9</ele>
        <time>2010-10-23T15:06:37Z</time>
      </trkpt>
      <trkpt lat="45.11838" lon="5.24077">
        <ele>274.1</ele>
        <time>2010-10-23T15:06:38Z</time>
      </trkpt>
      <trkpt lat="45.11836" lon="5.24076">
        <ele>274</ele>
        <time>2010-10-23T15:06:39Z</time>
      </trkpt>
      <trkpt lat="45.11834" lon="5.24075">
        <ele>273.9</ele>
        <time>2010-10-23T15:06:40Z</time>
      </trkpt>
      <trkpt lat="45.11832" lon="5.24075">
        <ele>274.5</ele>
        <time>2010-10-23T15:06:41Z</time>
      </trkpt>
      <trkpt lat="45.11829" lon="5.24073">
        <ele>274.7</ele>
        <time>2010-10-23T15:06:42Z</time>
      </trkpt>
      <trkpt lat="45.11826" lon="5.24073">
        <ele>275</ele>
        <time>2010-10-23T15:06:43Z</time>
      </trkpt>
      <trkpt lat="45.11823" lon="5.24073">
        <ele>274.8</ele>
        <time>2010-10-23T15:06:44Z</time>
      </trkpt>
      <trkpt lat="45.11818" lon="5.24071">
        <ele>274.2</ele>
        <time>2010-10-23T15:06:45Z</time>
      </trkpt>
      <trkpt lat="45.11814" lon="5.24068">
        <ele>274.5</ele>
        <time>2010-10-23T15:06:46Z</time>
      </trkpt>
      <trkpt lat="45.11812" lon="5.24065">
        <ele>275.5</ele>
        <time>2010-10-23T15:06:47Z</time>
      </trkpt>
      <trkpt lat="45.1181" lon="5.24064">
        <ele>275.1</ele>
        <time>2010-10-23T15:06:48Z</time>
      </trkpt>
      <trkpt lat="45.11807" lon="5.24062">
        <ele>274.6</ele>
        <time>2010-10-23T15:06:49Z</time>
      </trkpt>
      <trkpt lat="45.11805" lon="5.24061">
        <ele>274.4</ele>
        <time>2010-10-23T15:06:50Z</time>
      </trkpt>
      <trkpt lat="45.11801" lon="5.2406">
        <ele>274.2</ele>
        <time>2010-10-23T15:06:51Z</time>
      </trkpt>
      <trkpt lat="45.11799" lon="5.24058">
        <ele>274.1</ele>
        <time>2010-10-23T15:06:52Z</time>
      </trkpt>
      <trkpt lat="45.11795" lon="5.24057">
        <ele>274</ele>
        <time>2010-10-23T15:06:52Z</time>
      </trkpt>
      <trkpt lat="45.11793" lon="5.24056">
        <ele>273.9</ele>
        <time>2010-10-23T15:06:54Z</time>
      </trkpt>
      <trkpt lat="45.1179" lon="5.24054">
        <ele>274.2</ele>
        <time>2010-10-23T15:06:55Z</time>
      </trkpt>
      <trkpt lat="45.11787" lon="5.2405">
        <ele>274</ele>
        <time>2010-10-23T15:06:56Z</time>
      </trkpt>
      <trkpt lat="45.11783" lon="5.24047">
        <ele>274.1</ele>
        <time>2010-10-23T15:06:57Z</time>
      </trkpt>
      <trkpt lat="45.1178" lon="5.24046">
        <ele>274.3</ele>
        <time>2010-10-23T15:06:58Z</time>
      </trkpt>
      <trkpt lat="45.11778" lon="5.24045">
        <ele>274.9</ele>
        <time>2010-10-23T15:06:59Z</time>
      </trkpt>
      <trkpt lat="45.11776" lon="5.24045">
        <ele>275</ele>
        <time>2010-10-23T15:07:00Z</time>
      </trkpt>
      <trkpt lat="45.11773" lon="5.24046">
        <ele>274.6</ele>
        <time>2010-10-23T15:07:01Z</time>
      </trkpt>
      <trkpt lat="45.11771" lon="5.24046">
        <ele>274.2</ele>
        <time>2010-10-23T15:07:02Z</time>
      </trkpt>
      <trkpt lat="45.11769" lon="5.24046">
        <ele>274.2</ele>
        <time>2010-10-23T15:07:03Z</time>
      </trkpt>
      <trkpt lat="45.11767" lon="5.24045">
        <ele>274.2</ele>
        <time>2010-10-23T15:07:04Z</time>
      </trkpt>
      <trkpt lat="45.11764" lon="5.24043">
        <ele>274.4</ele>
        <time>2010-10-23T15:07:05Z</time>
      </trkpt>
      <trkpt lat="45.11762" lon="5.24043">
        <ele>274.6</ele>
        <time>2010-10-23T15:07:06Z</time>
      </trkpt>
      <trkpt lat="45.11761" lon="5.24041">
        <ele>274.6</ele>
        <time>2010-10-23T15:07:07Z</time>
      </trkpt>
      <trkpt lat="45.11759" lon="5.24041">
        <ele>274</ele>
        <time>2010-10-23T15:07:08Z</time>
      </trkpt>
      <trkpt lat="45.11757" lon="5.2404">
        <ele>273.9</ele>
        <time>2010-10-23T15:07:09Z</time>
      </trkpt>
      <trkpt lat="45.11756" lon="5.2404">
        <ele>273.9</ele>
        <time>2010-10-23T15:07:10Z</time>
      </trkpt>
      <trkpt lat="45.11754" lon="5.2404">
        <ele>273.7</ele>
        <time>2010-10-23T15:07:11Z</time>
      </trkpt>
      <trkpt lat="45.11752" lon="5.24041">
        <ele>273.8</ele>
        <time>2010-10-23T15:07:11Z</time>
      </trkpt>
      <trkpt lat="45.1175" lon="5.24041">
        <ele>273.3</ele>
        <time>2010-10-23T15:07:12Z</time>
      </trkpt>
      <trkpt lat="45.11748" lon="5.24039">
        <ele>273.7</ele>
        <time>2010-10-23T15:07:14Z</time>
      </trkpt>
      <trkpt lat="45.11746" lon="5.24038">
        <ele>274.2</ele>
        <time>2010-10-23T15:07:15Z</time>
      </trkpt>
      <trkpt lat="45.11744" lon="5.24037">
        <ele>273.4</ele>
        <time>2010-10-23T15:07:16Z</time>
      </trkpt>
      <trkpt lat="45.11743" lon="5.24037">
        <ele>273.6</ele>
        <time>2010-10-23T15:07:17Z</time>
      </trkpt>
      <trkpt lat="45.11741" lon="5.24036">
        <ele>273.6</ele>
        <time>2010-10-23T15:07:18Z</time>
      </trkpt>
      <trkpt lat="45.11739" lon="5.24034">
        <ele>273.6</ele>
        <time>2010-10-23T15:07:19Z</time>
      </trkpt>
      <trkpt lat="45.11738" lon="5.24033">
        <ele>273.6</ele>
        <time>2010-10-23T15:07:20Z</time>
      </trkpt>
      <trkpt lat="45.11736" lon="5.24032">
        <ele>274.2</ele>
        <time>2010-10-23T15:07:21Z</time>
      </trkpt>
      <trkpt lat="45.11734" lon="5.24032">
        <ele>274.4</ele>
        <time>2010-10-23T15:07:22Z</time>
      </trkpt>
      <trkpt lat="45.11732" lon="5.24033">
        <ele>274.5</ele>
        <time>2010-10-23T15:07:23Z</time>
      </trkpt>
      <trkpt lat="45.11729" lon="5.24032">
        <ele>274.8</ele>
        <time>2010-10-23T15:07:24Z</time>
      </trkpt>
      <trkpt lat="45.11726" lon="5.24031">
        <ele>275.2</ele>
        <time>2010-10-23T15:07:25Z</time>
      </trkpt>
      <trkpt lat="45.11725" lon="5.2403">
        <ele>275.4</ele>
        <time>2010-10-23T15:07:26Z</time>
      </trkpt>
      <trkpt lat="45.11723" lon="5.2403">
        <ele>275.1</ele>
        <time>2010-10-23T15:07:27Z</time>
      </trkpt>
      <trkpt lat="45.11722" lon="5.24028">
        <ele>275.6</ele>
        <time>2010-10-23T15:07:28Z</time>
      </trkpt>
      <trkpt lat="45.1172" lon="5.24027">
        <ele>275.5</ele>
        <time>2010-10-23T15:07:29Z</time>
      </trkpt>
      <trkpt lat="45.11719" lon="5.24026">
        <ele>275.4</ele>
        <time>2010-10-23T15:07:30Z</time>
      </trkpt>
      <trkpt lat="45.11718" lon="5.24025">
        <ele>275.4</ele>
        <time>2010-10-23T15:07:31Z</time>
      </trkpt>
      <trkpt lat="45.11717" lon="5.24024">
        <ele>275.3</ele>
        <time>2010-10-23T15:07:31Z</time>
      </trkpt>
      <trkpt lat="45.11716" lon="5.24022">
        <ele>275.6</ele>
        <time>2010-10-23T15:07:32Z</time>
      </trkpt>
      <trkpt lat="45.11715" lon="5.2402">
        <ele>275.9</ele>
        <time>2010-10-23T15:07:34Z</time>
      </trkpt>
      <trkpt lat="45.11714" lon="5.24019">
        <ele>275.9</ele>
        <time>2010-10-23T15:07:35Z</time>
      </trkpt>
      <trkpt lat="45.11713" lon="5.24018">
        <ele>275.9</ele>
        <time>2010-10-23T15:07:36Z</time>
      </trkpt>
      <trkpt lat="45.11712" lon="5.24015">
        <ele>275.6</ele>
        <time>2010-10-23T15:07:37Z</time>
      </trkpt>
      <trkpt lat="45.1171" lon="5.24014">
        <ele>275.5</ele>
        <time>2010-10-23T15:07:38Z</time>
      </trkpt>
      <trkpt lat="45.11708" lon="5.24012">
        <ele>275.7</ele>
        <time>2010-10-23T15:07:39Z</time>
      </trkpt>
      <trkpt lat="45.11707" lon="5.24013">
        <ele>275.8</ele>
        <time>2010-10-23T15:07:40Z</time>
      </trkpt>
      <trkpt lat="45.11705" lon="5.24015">
        <ele>275.7</ele>
        <time>2010-10-23T15:07:41Z</time>
      </trkpt>
      <trkpt lat="45.11704" lon="5.24015">
        <ele>275.8</ele>
        <time>2010-10-23T15:07:42Z</time>
      </trkpt>
      <trkpt lat="45.11702" lon="5.24014">
        <ele>276</ele>
        <time>2010-10-23T15:07:43Z</time>
      </trkpt>
      <trkpt lat="45.117" lon="5.24014">
        <ele>276</ele>
        <time>2010-10-23T15:07:44Z</time>
      </trkpt>
      <trkpt lat="45.11698" lon="5.24014">
        <ele>276.2</ele>
        <time>2010-10-23T15:07:45Z</time>
      </trkpt>
      <trkpt lat="45.11696" lon="5.24015">
        <ele>275.7</ele>
        <time>2010-10-23T15:07:46Z</time>
      </trkpt>
      <trkpt lat="45.11692" lon="5.24016">
        <ele>275.2</ele>
        <time>2010-10-23T15:07:47Z</time>
      </trkpt>
      <trkpt lat="45.11689" lon="5.24017">
        <ele>274.6</ele>
        <time>2010-10-23T15:07:48Z</time>
      </trkpt>
      <trkpt lat="45.11687" lon="5.24016">
        <ele>274.4</ele>
        <time>2010-10-23T15:07:49Z</time>
      </trkpt>
      <trkpt lat="45.11685" lon="5.24015">
        <ele>274.4</ele>
        <time>2010-10-23T15:07:50Z</time>
      </trkpt>
      <trkpt lat="45.11684" lon="5.24014">
        <ele>274.3</ele>
        <time>2010-10-23T15:07:51Z</time>
      </trkpt>
      <trkpt lat="45.11682" lon="5.24012">
        <ele>274.4</ele>
        <time>2010-10-23T15:07:51Z</time>
      </trkpt>
      <trkpt lat="45.1168" lon="5.24012">
        <ele>274</ele>
        <time>2010-10-23T15:07:52Z</time>
      </trkpt>
      <trkpt lat="45.11676" lon="5.24011">
        <ele>273.4</ele>
        <time>2010-10-23T15:07:54Z</time>
      </trkpt>
      <trkpt lat="45.11673" lon="5.24008">
        <ele>274.7</ele>
        <time>2010-10-23T15:07:55Z</time>
      </trkpt>
      <trkpt lat="45.1167" lon="5.24006">
        <ele>275.3</ele>
        <time>2010-10-23T15:07:56Z</time>
      </trkpt>
      <trkpt lat="45.11668" lon="5.24005">
        <ele>275.3</ele>
        <time>2010-10-23T15:07:57Z</time>
      </trkpt>
      <trkpt lat="45.11665" lon="5.24004">
        <ele>275.4</ele>
        <time>2010-10-23T15:07:58Z</time>
      </trkpt>
      <trkpt lat="45.11662" lon="5.24002">
        <ele>275.3</ele>
        <time>2010-10-23T15:07:59Z</time>
      </trkpt>
      <trkpt lat="45.11659" lon="5.24">
        <ele>275</ele>
        <time>2010-10-23T15:08:00Z</time>
      </trkpt>
      <trkpt lat="45.11656" lon="5.23998">
        <ele>274.8</ele>
        <time>2010-10-23T15:08:01Z</time>
      </trkpt>
      <trkpt lat="45.11653" lon="5.23997">
        <ele>274.4</ele>
        <time>2010-10-23T15:08:02Z</time>
      </trkpt>
      <trkpt lat="45.11649" lon="5.23996">
        <ele>273.5</ele>
        <time>2010-10-23T15:08:03Z</time>
      </trkpt>
      <trkpt lat="45.11646" lon="5.23996">
        <ele>273.5</ele>
        <time>2010-10-23T15:08:04Z</time>
      </trkpt>
      <trkpt lat="45.11642" lon="5.23996">
        <ele>273.1</ele>
        <time>2010-10-23T15:08:05Z</time>
      </trkpt>
      <trkpt lat="45.11639" lon="5.23996">
        <ele>272.9</ele>
        <time>2010-10-23T15:08:06Z</time>
      </trkpt>
      <trkpt lat="45.11635" lon="5.23995">
        <ele>272.5</ele>
        <time>2010-10-23T15:08:07Z</time>
      </trkpt>
      <trkpt lat="45.11631" lon="5.23994">
        <ele>271.9</ele>
        <time>2010-10-23T15:08:08Z</time>
      </trkpt>
      <trkpt lat="45.11627" lon="5.23991">
        <ele>272.4</ele>
        <time>2010-10-23T15:08:09Z</time>
      </trkpt>
      <trkpt lat="45.11624" lon="5.23989">
        <ele>272.3</ele>
        <time>2010-10-23T15:08:10Z</time>
      </trkpt>
      <trkpt lat="45.11621" lon="5.23987">
        <ele>272.2</ele>
        <time>2010-10-23T15:08:11Z</time>
      </trkpt>
      <trkpt lat="45.11618" lon="5.23985">
        <ele>272.6</ele>
        <time>2010-10-23T15:08:11Z</time>
      </trkpt>
      <trkpt lat="45.11615" lon="5.23984">
        <ele>271.8</ele>
        <time>2010-10-23T15:08:12Z</time>
      </trkpt>
      <trkpt lat="45.11611" lon="5.2398">
        <ele>271.6</ele>
        <time>2010-10-23T15:08:14Z</time>
      </trkpt>
      <trkpt lat="45.11608" lon="5.23979">
        <ele>271.5</ele>
        <time>2010-10-23T15:08:15Z</time>
      </trkpt>
      <trkpt lat="45.11604" lon="5.23978">
        <ele>269.9</ele>
        <time>2010-10-23T15:08:16Z</time>
      </trkpt>
      <trkpt lat="45.11601" lon="5.23975">
        <ele>269.7</ele>
        <time>2010-10-23T15:08:17Z</time>
      </trkpt>
      <trkpt lat="45.11597" lon="5.23974">
        <ele>269</ele>
        <time>2010-10-23T15:08:18Z</time>
      </trkpt>
      <trkpt lat="45.11593" lon="5.23972">
        <ele>268.5</ele>
        <time>2010-10-23T15:08:19Z</time>
      </trkpt>
      <trkpt lat="45.11589" lon="5.2397">
        <ele>268.4</ele>
        <time>2010-10-23T15:08:20Z</time>
      </trkpt>
      <trkpt lat="45.11585" lon="5.23968">
        <ele>268.1</ele>
        <time>2010-10-23T15:08:21Z</time>
      </trkpt>
      <trkpt lat="45.11581" lon="5.23965">
        <ele>268.3</ele>
        <time>2010-10-23T15:08:22Z</time>
      </trkpt>
      <trkpt lat="45.11576" lon="5.23962">
        <ele>268.3</ele>
        <time>2010-10-23T15:08:23Z</time>
      </trkpt>
      <trkpt lat="45.11572" lon="5.2396">
        <ele>268.4</ele>
        <time>2010-10-23T15:08:24Z</time>
      </trkpt>
      <trkpt lat="45.11568" lon="5.23957">
        <ele>268</ele>
        <time>2010-10-23T15:08:25Z</time>
      </trkpt>
      <trkpt lat="45.11563" lon="5.23954">
        <ele>268.3</ele>
        <time>2010-10-23T15:08:26Z</time>
      </trkpt>
      <trkpt lat="45.11558" lon="5.23952">
        <ele>268</ele>
        <time>2010-10-23T15:08:27Z</time>
      </trkpt>
      <trkpt lat="45.11554" lon="5.2395">
        <ele>267.9</ele>
        <time>2010-10-23T15:08:28Z</time>
      </trkpt>
      <trkpt lat="45.11549" lon="5.23947">
        <ele>268.1</ele>
        <time>2010-10-23T15:08:29Z</time>
      </trkpt>
      <trkpt lat="45.11546" lon="5.23944">
        <ele>267.7</ele>
        <time>2010-10-23T15:08:30Z</time>
      </trkpt>
      <trkpt lat="45.11542" lon="5.23942">
        <ele>267.8</ele>
        <time>2010-10-23T15:08:31Z</time>
      </trkpt>
      <trkpt lat="45.11539" lon="5.23939">
        <ele>267.7</ele>
        <time>2010-10-23T15:08:31Z</time>
      </trkpt>
      <trkpt lat="45.11535" lon="5.23937">
        <ele>267.7</ele>
        <time>2010-10-23T15:08:33Z</time>
      </trkpt>
      <trkpt lat="45.11531" lon="5.23934">
        <ele>267.6</ele>
        <time>2010-10-23T15:08:34Z</time>
      </trkpt>
      <trkpt lat="45.11528" lon="5.2393">
        <ele>267.5</ele>
        <time>2010-10-23T15:08:35Z</time>
      </trkpt>
      <trkpt lat="45.11526" lon="5.23928">
        <ele>267.5</ele>
        <time>2010-10-23T15:08:36Z</time>
      </trkpt>
      <trkpt lat="45.11523" lon="5.23929">
        <ele>267.6</ele>
        <time>2010-10-23T15:08:37Z</time>
      </trkpt>
      <trkpt lat="45.1152" lon="5.23929">
        <ele>268.3</ele>
        <time>2010-10-23T15:08:38Z</time>
      </trkpt>
      <trkpt lat="45.11517" lon="5.23926">
        <ele>268.4</ele>
        <time>2010-10-23T15:08:39Z</time>
      </trkpt>
      <trkpt lat="45.11513" lon="5.23924">
        <ele>268</ele>
        <time>2010-10-23T15:08:40Z</time>
      </trkpt>
      <trkpt lat="45.11509" lon="5.23923">
        <ele>267.9</ele>
        <time>2010-10-23T15:08:41Z</time>
      </trkpt>
      <trkpt lat="45.11506" lon="5.23921">
        <ele>267.9</ele>
        <time>2010-10-23T15:08:42Z</time>
      </trkpt>
      <trkpt lat="45.11503" lon="5.2392">
        <ele>267.9</ele>
        <time>2010-10-23T15:08:43Z</time>
      </trkpt>
      <trkpt lat="45.11499" lon="5.2392">
        <ele>267.2</ele>
        <time>2010-10-23T15:08:44Z</time>
      </trkpt>
      <trkpt lat="45.11496" lon="5.23918">
        <ele>267.3</ele>
        <time>2010-10-23T15:08:45Z</time>
      </trkpt>
      <trkpt lat="45.11493" lon="5.23917">
        <ele>267.1</ele>
        <time>2010-10-23T15:08:46Z</time>
      </trkpt>
      <trkpt lat="45.1149" lon="5.23915">
        <ele>266.5</ele>
        <time>2010-10-23T15:08:47Z</time>
      </trkpt>
      <trkpt lat="45.11487" lon="5.23915">
        <ele>266.4</ele>
        <time>2010-10-23T15:08:48Z</time>
      </trkpt>
      <trkpt lat="45.11485" lon="5.23912">
        <ele>266.3</ele>
        <time>2010-10-23T15:08:49Z</time>
      </trkpt>
      <trkpt lat="45.11482" lon="5.23911">
        <ele>266.4</ele>
        <time>2010-10-23T15:08:50Z</time>
      </trkpt>
      <trkpt lat="45.1148" lon="5.23908">
        <ele>267.1</ele>
        <time>2010-10-23T15:08:51Z</time>
      </trkpt>
      <trkpt lat="45.11476" lon="5.23907">
        <ele>267.1</ele>
        <time>2010-10-23T15:08:51Z</time>
      </trkpt>
      <trkpt lat="45.11473" lon="5.23906">
        <ele>267</ele>
        <time>2010-10-23T15:08:53Z</time>
      </trkpt>
      <trkpt lat="45.1147" lon="5.23903">
        <ele>267.6</ele>
        <time>2010-10-23T15:08:54Z</time>
      </trkpt>
      <trkpt lat="45.11468" lon="5.23902">
        <ele>267.6</ele>
        <time>2010-10-23T15:08:55Z</time>
      </trkpt>
      <trkpt lat="45.11465" lon="5.239">
        <ele>267</ele>
        <time>2010-10-23T15:08:56Z</time>
      </trkpt>
      <trkpt lat="45.11462" lon="5.23898">
        <ele>266.8</ele>
        <time>2010-10-23T15:08:57Z</time>
      </trkpt>
      <trkpt lat="45.11458" lon="5.23895">
        <ele>266.5</ele>
        <time>2010-10-23T15:08:58Z</time>
      </trkpt>
      <trkpt lat="45.11453" lon="5.23891">
        <ele>266.6</ele>
        <time>2010-10-23T15:08:59Z</time>
      </trkpt>
      <trkpt lat="45.11448" lon="5.23888">
        <ele>267.3</ele>
        <time>2010-10-23T15:09:00Z</time>
      </trkpt>
      <trkpt lat="45.11443" lon="5.23885">
        <ele>267.2</ele>
        <time>2010-10-23T15:09:01Z</time>
      </trkpt>
      <trkpt lat="45.11437" lon="5.23883">
        <ele>267.1</ele>
        <time>2010-10-23T15:09:02Z</time>
      </trkpt>
      <trkpt lat="45.11432" lon="5.23879">
        <ele>267.1</ele>
        <time>2010-10-23T15:09:03Z</time>
      </trkpt>
      <trkpt lat="45.11427" lon="5.23876">
        <ele>267</ele>
        <time>2010-10-23T15:09:04Z</time>
      </trkpt>
      <trkpt lat="45.11423" lon="5.23874">
        <ele>267</ele>
        <time>2010-10-23T15:09:05Z</time>
      </trkpt>
      <trkpt lat="45.11418" lon="5.2387">
        <ele>266.1</ele>
        <time>2010-10-23T15:09:06Z</time>
      </trkpt>
      <trkpt lat="45.11415" lon="5.23869">
        <ele>265.6</ele>
        <time>2010-10-23T15:09:07Z</time>
      </trkpt>
      <trkpt lat="45.11411" lon="5.23866">
        <ele>265.4</ele>
        <time>2010-10-23T15:09:08Z</time>
      </trkpt>
      <trkpt lat="45.11407" lon="5.23863">
        <ele>265.9</ele>
        <time>2010-10-23T15:09:09Z</time>
      </trkpt>
      <trkpt lat="45.11404" lon="5.2386">
        <ele>265.7</ele>
        <time>2010-10-23T15:09:10Z</time>
      </trkpt>
      <trkpt lat="45.114" lon="5.23856">
        <ele>265.9</ele>
        <time>2010-10-23T15:09:11Z</time>
      </trkpt>
      <trkpt lat="45.11396" lon="5.23854">
        <ele>265.8</ele>
        <time>2010-10-23T15:09:11Z</time>
      </trkpt>
      <trkpt lat="45.11393" lon="5.2385">
        <ele>265.6</ele>
        <time>2010-10-23T15:09:13Z</time>
      </trkpt>
      <trkpt lat="45.1139" lon="5.23847">
        <ele>265.7</ele>
        <time>2010-10-23T15:09:14Z</time>
      </trkpt>
      <trkpt lat="45.11388" lon="5.23843">
        <ele>266</ele>
        <time>2010-10-23T15:09:15Z</time>
      </trkpt>
      <trkpt lat="45.11386" lon="5.23839">
        <ele>265.5</ele>
        <time>2010-10-23T15:09:16Z</time>
      </trkpt>
      <trkpt lat="45.11387" lon="5.23836">
        <ele>265.3</ele>
        <time>2010-10-23T15:09:17Z</time>
      </trkpt>
      <trkpt lat="45.11389" lon="5.23834">
        <ele>265.5</ele>
        <time>2010-10-23T15:09:18Z</time>
      </trkpt>
      <trkpt lat="45.1139" lon="5.2383">
        <ele>265.4</ele>
        <time>2010-10-23T15:09:19Z</time>
      </trkpt>
      <trkpt lat="45.11392" lon="5.23827">
        <ele>265.6</ele>
        <time>2010-10-23T15:09:20Z</time>
      </trkpt>
      <trkpt lat="45.11393" lon="5.23825">
        <ele>265.6</ele>
        <time>2010-10-23T15:09:21Z</time>
      </trkpt>
      <trkpt lat="45.11394" lon="5.23821">
        <ele>265.3</ele>
        <time>2010-10-23T15:09:23Z</time>
      </trkpt>
      <trkpt lat="45.11395" lon="5.2382">
        <ele>264.9</ele>
        <time>2010-10-23T15:09:24Z</time>
      </trkpt>
      <trkpt lat="45.11396" lon="5.23818">
        <ele>264.9</ele>
        <time>2010-10-23T15:09:25Z</time>
      </trkpt>
      <trkpt lat="45.11396" lon="5.23817">
        <ele>264.7</ele>
        <time>2010-10-23T15:09:26Z</time>
      </trkpt>
      <trkpt lat="45.11398" lon="5.23816">
        <ele>265</ele>
        <time>2010-10-23T15:09:28Z</time>
      </trkpt>
      <trkpt lat="45.11398" lon="5.23816">
        <ele>265.1</ele>
        <time>2010-10-23T15:09:30Z</time>
      </trkpt>
      <trkpt lat="45.11398" lon="5.23817">
        <ele>265.4</ele>
        <time>2010-10-23T15:09:30Z</time>
      </trkpt>
      <trkpt lat="45.11397" lon="5.23817">
        <ele>265.2</ele>
        <time>2010-10-23T15:09:35Z</time>
      </trkpt>
      <trkpt lat="45.11397" lon="5.2382">
        <ele>265.3</ele>
        <time>2010-10-23T15:09:36Z</time>
      </trkpt>
      <trkpt lat="45.11396" lon="5.2382">
        <ele>265.2</ele>
        <time>2010-10-23T15:09:37Z</time>
      </trkpt>
      <trkpt lat="45.11397" lon="5.23821">
        <ele>265.3</ele>
        <time>2010-10-23T15:09:38Z</time>
      </trkpt>
      <trkpt lat="45.11398" lon="5.23822">
        <ele>265.4</ele>
        <time>2010-10-23T15:09:39Z</time>
      </trkpt>
      <trkpt lat="45.11398" lon="5.23822">
        <ele>265.2</ele>
        <time>2010-10-23T15:09:40Z</time>
      </trkpt>
      <trkpt lat="45.11398" lon="5.2382">
        <ele>264.3</ele>
        <time>2010-10-23T15:09:41Z</time>
      </trkpt>
      <trkpt lat="45.11397" lon="5.2382">
        <ele>265.1</ele>
        <time>2010-10-23T15:09:42Z</time>
      </trkpt>
      <trkpt lat="45.11396" lon="5.2382">
        <ele>265.1</ele>
        <time>2010-10-23T15:09:43Z</time>
      </trkpt>
      <trkpt lat="45.11397" lon="5.2382">
        <ele>264.9</ele>
        <time>2010-10-23T15:09:47Z</time>
      </trkpt>
      <trkpt lat="45.11397" lon="5.23822">
        <ele>265.3</ele>
        <time>2010-10-23T15:09:48Z</time>
      </trkpt>
      <trkpt lat="45.11397" lon="5.23822">
        <ele>265.4</ele>
        <time>2010-10-23T15:10:30Z</time>
      </trkpt>
      <trkpt lat="45.11399" lon="5.23823">
        <ele>267</ele>
        <time>2010-10-23T15:10:32Z</time>
      </trkpt>
      <trkpt lat="45.11399" lon="5.23824">
        <ele>267.2</ele>
        <time>2010-10-23T15:10:35Z</time>
      </trkpt>
      <trkpt lat="45.11399" lon="5.23826">
        <ele>269</ele>
        <time>2010-10-23T15:10:36Z</time>
      </trkpt>
      <trkpt lat="45.114" lon="5.23825">
        <ele>269.3</ele>
        <time>2010-10-23T15:10:39Z</time>
      </trkpt>
      <trkpt lat="45.114" lon="5.23824">
        <ele>269.1</ele>
        <time>2010-10-23T15:10:40Z</time>
      </trkpt>
      <trkpt lat="45.114" lon="5.23824">
        <ele>269.3</ele>
        <time>2010-10-23T15:11:28Z</time>
      </trkpt>
    </trkseg>
  </trk>
</gpx>